[[{"header":{"parameterUnit":"m.s-1","parameterCategory":1,"la1":30.6,"la2":28.766,"lo1":-90.7593,"lo2":-88.6598,"dy":0.0162,"dx":0.0183,"nx":116,"ny":114,"refTime":"2023-06-14T06:00:00:Z","depth":0,"parameterNumber":2,"parameterNumberName":"U-component_of_WINDS"},"data":[0.0,0.0,0.0,0.0,0.0,0.0,0.0,0.0,0.0,0.0,0.0,0.0,0.0,0.0,0.0,0.0,0.0,0.0,0.0,0.0,0.0,0.0,0.0,0.0,0.0,0.0,0.0,0.0,0.0,0.0,0.0,0.0,0.0,0.0,0.0,0.0,0.0,0.0,0.0,0.0,0.0,0.0,0.0,0.0,0.0,0.0,0.0,0.0,0.0,0.0,0.0,0.0,0.0,0.0,0.0,0.0,0.0,0.0,0.0,0.0,0.0,0.0,0.0,0.0,0.0,0.0,0.0,0.0,0.0,0.0,0.0,0.0,0.0,0.0,0.0,0.0,0.0,0.0,0.0,0.0,0.0,0.0,0.0,0.0,0.0,0.0,0.0,0.0,0.0,0.0,0.0,0.0,0.0,0.0,0.0,0.0,0.0,0.0,0.0,0.0,0.0,0.0,0.0,0.0,0.0,0.0,0.0,0.0,0.0,0.0,0.0,0.0,0.0,0.0,0.0,0.0,0.0,0.0,0.0,0.0,0.0,0.0,0.0,0.0,0.0,0.0,0.0,0.0,0.0,0.0,0.0,0.0,0.0,0.0,0.0,0.0,0.0,0.0,0.0,0.0,0.0,0.0,0.0,0.0,0.0,0.0,0.0,0.0,0.0,0.0,0.0,0.0,0.0,0.0,0.0,0.0,0.0,0.0,0.0,0.0,0.0,0.0,0.0,0.0,0.0,0.0,0.0,0.0,0.0,0.0,0.0,0.0,0.0,0.0,0.0,0.0,0.0,0.0,0.0,0.0,0.0,0.0,0.0,0.0,0.0,0.0,0.0,0.0,0.0,0.0,0.0,0.0,0.0,0.0,0.0,0.0,0.0,0.0,0.0,0.0,0.0,0.0,0.0,0.0,0.0,0.0,0.0,0.0,0.0,0.0,0.0,0.0,0.0,0.0,0.0,0.0,0.0,0.0,0.0,0.0,0.0,0.0,0.0,0.0,0.0,0.0,0.0,0.0,0.0,0.0,0.0,0.0,0.0,0.0,0.0,0.0,0.0,0.0,0.0,0.0,0.0,0.0,0.0,0.0,0.0,0.0,0.0,0.0,0.0,0.0,0.0,0.0,0.0,0.0,0.0,0.0,0.0,0.0,0.0,0.0,0.0,0.0,0.0,0.0,0.0,0.0,0.0,0.0,0.0,0.0,0.0,0.0,0.0,0.0,0.0,0.0,0.0,0.0,0.0,0.0,0.0,0.0,0.0,0.0,0.0,0.0,0.0,0.0,0.0,0.0,0.0,0.0,0.0,0.0,0.0,0.0,0.0,0.0,0.0,0.0,0.0,0.0,0.0,0.0,0.0,0.0,0.0,0.0,0.0,0.0,0.0,0.0,0.0,0.0,0.0,0.0,0.0,0.0,0.0,0.0,0.0,0.0,0.0,0.0,0.0,0.0,0.0,0.0,0.0,0.0,0.0,0.0,0.0,0.0,0.0,0.0,0.0,0.0,0.0,0.0,0.0,0.0,0.0,0.0,0.0,0.0,0.0,0.0,0.0,0.0,0.0,0.0,0.0,0.0,0.0,0.0,0.0,0.0,0.0,0.0,0.0,0.0,0.0,0.0,0.0,0.0,0.0,0.0,0.0,0.0,0.0,0.0,0.0,0.0,0.0,0.0,0.0,0.0,0.0,0.0,0.0,0.0,0.0,0.0,0.0,0.0,0.0,0.0,0.0,0.0,0.0,0.0,0.0,0.0,0.0,0.0,0.0,0.0,0.0,0.0,0.0,0.0,0.0,0.0,0.0,0.0,0.0,0.0,0.0,0.0,0.0,0.0,0.0,0.0,0.0,0.0,0.0,0.0,0.0,0.0,0.0,0.0,0.0,0.0,0.0,0.0,0.0,0.0,0.0,0.0,0.0,0.0,0.0,0.0,0.0,0.0,0.0,0.0,0.0,0.0,0.0,0.0,0.0,0.0,0.0,0.0,0.0,0.0,0.0,0.0,0.0,0.0,0.0,0.0,0.0,0.0,0.0,0.0,0.0,0.0,0.0,0.0,0.0,0.0,0.0,0.0,0.0,0.0,0.0,0.0,0.0,0.0,0.0,0.0,0.0,0.0,0.0,0.0,0.0,0.0,0.0,0.0,0.0,0.0,0.0,0.0,0.0,0.0,0.0,0.0,0.0,0.0,0.0,0.0,0.0,0.0,0.0,0.0,0.0,0.0,0.0,0.0,0.0,0.0,0.0,0.0,0.0,0.0,0.0,0.0,0.0,0.0,0.0,0.0,0.0,0.0,0.0,0.0,0.0,0.0,0.0,0.0,0.0,0.0,0.0,0.0,0.0,0.0,0.0,0.0,0.0,0.0,0.0,0.0,0.0,0.0,0.0,0.0,0.0,0.0,0.0,0.0,0.0,0.0,0.0,0.0,0.0,0.0,0.0,0.0,0.0,0.0,0.0,0.0,0.0,0.0,0.0,0.0,0.0,0.0,0.0,0.0,0.0,0.0,0.0,0.0,0.0,0.0,0.0,0.0,0.0,0.0,0.0,0.0,0.0,0.0,0.0,0.0,0.0,0.0,0.0,0.0,0.0,0.0,0.0,0.0,0.0,0.0,0.0,0.0,0.0,0.0,0.0,0.0,0.0,0.0,0.0,0.0,0.0,0.0,0.0,0.0,0.0,0.0,0.0,0.0,0.0,0.0,0.0,0.0,0.0,0.0,0.0,0.0,0.0,0.0,0.0,0.0,0.0,0.0,0.0,0.0,0.0,0.0,0.0,0.0,0.0,0.0,0.0,0.0,0.0,0.0,0.0,0.0,0.0,0.0,0.0,0.0,0.0,0.0,0.0,0.0,0.0,0.0,0.0,0.0,0.0,0.0,0.0,0.0,0.0,0.0,0.0,0.0,0.0,0.0,0.0,0.0,0.0,0.0,0.0,0.0,0.0,0.0,0.0,0.0,0.0,0.0,0.0,0.0,0.0,0.0,0.0,0.0,0.0,0.0,0.0,0.0,0.0,0.0,0.0,0.0,0.0,0.0,0.0,0.0,0.0,0.0,0.0,0.0,0.0,0.0,0.0,0.0,0.0,0.0,0.0,0.0,0.0,0.0,0.0,0.0,0.0,0.0,0.0,0.0,0.0,0.0,0.0,0.0,0.0,0.0,0.0,0.0,0.0,0.0,0.0,0.0,0.0,0.0,0.0,0.0,0.0,0.0,0.0,0.0,0.0,0.0,0.0,0.0,0.0,0.0,0.0,0.0,0.0,0.0,0.0,0.0,0.0,0.0,0.0,0.0,0.0,0.0,0.0,0.0,0.0,0.0,0.0,0.0,0.0,0.0,0.0,0.0,0.0,0.0,0.0,0.0,0.0,0.0,0.0,0.0,0.0,0.0,0.0,0.0,0.0,0.0,0.0,0.0,0.0,0.0,0.0,0.0,0.0,0.0,0.0,0.0,0.0,0.0,0.0,0.0,0.0,0.0,0.0,0.0,0.0,0.0,0.0,0.0,0.0,0.0,0.0,0.0,0.0,0.0,0.0,0.0,0.0,0.0,0.0,0.0,0.0,0.0,0.0,0.0,0.0,0.0,0.0,0.0,0.0,0.0,0.0,0.0,0.0,0.0,0.0,0.0,0.0,0.0,0.0,0.0,0.0,0.0,0.0,0.0,0.0,0.0,0.0,0.0,0.0,0.0,0.0,0.0,0.0,0.0,0.0,0.0,0.0,0.0,0.0,0.0,0.0,0.0,0.0,0.0,0.0,0.0,0.0,0.0,0.0,0.0,0.0,0.0,0.0,0.0,0.0,0.0,0.0,0.0,0.0,0.0,0.0,0.0,0.0,0.0,0.0,0.0,0.0,0.0,0.0,0.0,0.0,0.0,0.0,0.0,0.0,0.0,0.0,0.0,0.0,0.0,0.0,0.0,0.0,0.0,0.0,0.0,0.0,0.0,0.0,0.0,0.0,0.0,0.0,0.0,0.0,0.0,0.0,0.0,0.0,0.0,0.0,0.0,0.0,0.0,0.0,0.0,0.0,0.0,0.0,0.0,0.0,0.0,0.0,0.0,0.0,0.0,0.0,0.0,0.0,0.0,0.0,0.0,0.0,0.0,0.0,0.0,0.0,0.0,0.0,0.0,0.0,0.0,0.0,0.0,0.0,0.0,0.0,0.0,0.0,0.0,0.0,0.0,0.0,0.0,0.0,0.0,0.0,0.0,0.0,0.0,0.0,0.0,0.0,0.0,0.0,0.0,0.0,0.0,0.0,0.0,0.0,0.0,0.0,0.0,0.0,0.0,0.0,0.0,0.0,0.0,0.0,0.0,0.0,0.0,0.0,0.0,0.0,0.0,0.0,0.0,0.0,0.0,0.0,0.0,0.0,0.0,0.0,0.0,0.0,0.0,0.0,0.0,0.0,0.0,0.0,0.0,0.0,0.0,0.0,0.0,0.0,0.0,0.0,0.0,0.0,0.0,0.0,0.0,0.0,0.0,0.0,0.0,0.0,0.0,0.0,0.0,0.0,0.0,0.0,0.0,0.0,0.0,0.0,0.0,0.0,0.0,0.0,0.0,0.0,0.0,0.0,0.0,0.0,0.0,0.0,0.0,0.0,0.0,0.0,0.0,0.0,0.0,0.0,0.0,0.0,0.0,0.0,0.0,0.0,0.0,0.0,0.0,0.0,0.0,0.0,0.0,0.0,0.0,0.0,0.0,0.0,0.0,0.0,0.0,0.0,0.0,0.0,0.0,0.0,0.0,0.0,0.0,0.0,0.0,0.0,0.0,0.0,0.0,0.0,0.0,0.0,0.0,0.0,0.0,0.0,0.0,0.0,0.0,0.0,0.0,0.0,0.0,0.0,0.0,0.0,0.0,0.0,0.0,0.0,0.0,0.0,0.0,0.0,0.0,0.0,0.0,0.0,0.0,0.0,0.0,0.0,0.0,0.0,0.0,0.0,0.0,0.0,0.0,0.0,0.0,0.0,0.0,0.0,0.0,0.0,0.0,0.0,0.0,0.0,0.0,0.0,0.0,0.0,0.0,0.0,0.0,0.0,0.0,0.0,0.0,0.0,0.0,0.0,0.0,0.0,0.0,0.0,0.0,0.0,0.0,0.0,0.0,0.0,0.0,0.0,0.0,0.0,0.0,0.0,0.0,0.0,0.0,0.0,0.0,0.0,0.0,0.0,0.0,0.0,0.0,0.0,0.0,0.0,0.0,0.0,0.0,0.0,0.0,0.0,0.0,0.0,0.0,0.0,0.0,0.0,0.0,0.0,0.0,0.0,0.0,0.0,0.0,0.0,0.0,0.0,0.0,0.0,0.0,0.0,0.0,0.0,0.0,0.0,0.0,0.0,0.0,0.0,0.0,0.0,0.0,0.0,0.0,0.0,0.0,0.0,0.0,0.0,0.0,0.0,0.0,0.0,0.0,0.0,0.0,0.0,0.0,0.0,0.0,0.0,0.0,0.0,0.0,0.0,0.0,0.0,0.0,0.0,0.0,0.0,0.0,0.0,0.0,0.0,0.0,0.0,0.0,0.0,0.0,0.0,0.0,0.0,0.0,0.0,0.0,0.0,0.0,0.0,0.0,0.0,0.0,0.0,0.0,0.0,0.0,0.0,0.0,0.0,0.0,0.0,0.0,0.0,0.0,0.0,0.0,0.0,0.0,0.0,0.0,0.0,0.0,0.0,0.0,0.0,0.0,0.0,0.0,0.0,0.0,0.0,0.0,0.0,0.0,0.0,0.0,0.0,0.0,0.0,0.0,0.0,0.0,0.0,0.0,0.0,0.0,0.0,0.0,0.0,0.0,0.0,0.0,0.0,0.0,0.0,0.0,0.0,0.0,0.0,0.0,0.0,0.0,0.0,0.0,0.0,0.0,0.0,0.0,0.0,0.0,0.0,0.0,0.0,0.0,0.0,0.0,0.0,0.0,0.0,0.0,0.0,0.0,0.0,0.0,0.0,0.0,0.0,0.0,0.0,0.0,0.0,0.0,0.0,0.0,0.0,0.0,0.0,0.0,0.0,0.0,0.0,0.0,0.0,0.0,0.0,0.0,0.0,0.0,0.0,0.0,0.0,0.0,0.0,0.0,0.0,0.0,0.0,0.0,0.0,0.0,-3.6062,-3.6062,0.0,0.0,0.0,0.0,0.0,0.0,0.0,0.0,0.0,0.0,0.0,0.0,0.0,0.0,0.0,0.0,0.0,0.0,0.0,0.0,0.0,0.0,0.0,0.0,0.0,0.0,0.0,0.0,0.0,0.0,0.0,0.0,0.0,0.0,0.0,0.0,0.0,0.0,0.0,0.0,0.0,0.0,0.0,0.0,0.0,0.0,0.0,0.0,0.0,0.0,0.0,0.0,0.0,0.0,0.0,0.0,0.0,0.0,0.0,0.0,0.0,0.0,0.0,0.0,0.0,0.0,0.0,0.0,0.0,0.0,0.0,0.0,0.0,0.0,0.0,0.0,0.0,0.0,0.0,0.0,0.0,0.0,0.0,0.0,0.0,0.0,0.0,0.0,0.0,0.0,0.0,0.0,0.0,0.0,0.0,0.0,0.0,0.0,0.0,0.0,0.0,0.0,0.0,0.0,0.0,0.0,0.0,0.0,0.0,0.0,0.0,0.0,0.0,0.0,-3.6627,-3.6411,0.0,0.0,0.0,0.0,0.0,0.0,0.0,0.0,0.0,0.0,0.0,0.0,0.0,0.0,0.0,0.0,0.0,0.0,0.0,0.0,0.0,0.0,0.0,0.0,0.0,0.0,0.0,0.0,0.0,0.0,0.0,0.0,0.0,0.0,0.0,0.0,0.0,0.0,0.0,0.0,0.0,0.0,0.0,0.0,0.0,0.0,0.0,0.0,0.0,0.0,0.0,0.0,0.0,0.0,0.0,0.0,0.0,0.0,0.0,0.0,0.0,0.0,0.0,0.0,0.0,0.0,0.0,0.0,0.0,0.0,0.0,0.0,0.0,0.0,0.0,0.0,0.0,0.0,0.0,0.0,0.0,0.0,0.0,0.0,0.0,0.0,0.0,0.0,0.0,0.0,0.0,0.0,0.0,0.0,0.0,0.0,0.0,0.0,0.0,0.0,0.0,0.0,0.0,0.0,0.0,0.0,0.0,0.0,-3.6783,-3.6771,-3.6699,-3.7228,-3.7661,-3.7938,-3.706,-3.6795,-3.6964,-3.6867,0.0,0.0,0.0,0.0,0.0,0.0,0.0,0.0,0.0,0.0,0.0,0.0,0.0,0.0,0.0,0.0,0.0,0.0,0.0,0.0,0.0,0.0,0.0,0.0,0.0,0.0,0.0,0.0,0.0,0.0,0.0,0.0,0.0,0.0,0.0,0.0,0.0,0.0,0.0,0.0,0.0,0.0,0.0,0.0,0.0,0.0,0.0,0.0,0.0,0.0,0.0,0.0,0.0,0.0,0.0,0.0,0.0,0.0,0.0,0.0,0.0,0.0,0.0,0.0,0.0,0.0,0.0,0.0,0.0,0.0,0.0,0.0,0.0,0.0,0.0,0.0,0.0,0.0,0.0,0.0,0.0,0.0,0.0,0.0,0.0,0.0,-3.5668,-3.5668,0.0,0.0,0.0,0.0,0.0,0.0,0.0,0.0,0.0,0.0,0.0,0.0,0.0,-3.6824,-3.7039,-3.7485,-3.775,-3.7781,-3.8274,-3.825,-3.7793,-3.8346,-3.8371,-3.7974,-3.7829,0.0,-3.9152,-3.8695,0.0,0.0,0.0,0.0,0.0,0.0,0.0,0.0,0.0,0.0,0.0,0.0,0.0,0.0,0.0,0.0,0.0,0.0,0.0,0.0,0.0,0.0,0.0,0.0,0.0,0.0,0.0,0.0,0.0,0.0,0.0,0.0,0.0,0.0,0.0,0.0,0.0,0.0,0.0,0.0,0.0,0.0,0.0,0.0,0.0,0.0,0.0,0.0,0.0,0.0,0.0,0.0,0.0,0.0,0.0,0.0,0.0,0.0,0.0,0.0,0.0,0.0,0.0,0.0,0.0,0.0,0.0,0.0,0.0,0.0,0.0,0.0,0.0,0.0,0.0,0.0,0.0,0.0,0.0,0.0,0.0,0.0,0.0,0.0,0.0,-3.5782,-3.5819,-3.5819,-3.6346,-3.6764,0.0,0.0,0.0,0.0,0.0,0.0,0.0,0.0,0.0,-3.6928,-3.7272,-3.7658,-3.8106,-3.8334,-3.8599,-3.89,-3.8839,-3.8695,-3.8455,-3.8383,-3.8383,-3.8455,-3.8455,-3.9068,-3.9958,-3.8815,-3.8346,-3.8359,0.0,0.0,0.0,0.0,-3.9236,-3.9669,0.0,0.0,0.0,0.0,0.0,0.0,0.0,0.0,0.0,0.0,0.0,0.0,0.0,0.0,0.0,0.0,0.0,0.0,0.0,0.0,0.0,0.0,0.0,0.0,0.0,0.0,0.0,0.0,0.0,0.0,0.0,0.0,0.0,0.0,0.0,0.0,0.0,0.0,0.0,0.0,0.0,0.0,0.0,0.0,0.0,0.0,0.0,0.0,0.0,0.0,0.0,0.0,0.0,0.0,0.0,0.0,0.0,0.0,0.0,0.0,0.0,0.0,0.0,0.0,0.0,0.0,0.0,0.0,0.0,0.0,0.0,0.0,0.0,0.0,0.0,0.0,0.0,-3.6088,-3.622,-3.622,-3.6601,-3.6933,0.0,0.0,0.0,0.0,0.0,0.0,-3.7229,-3.7636,-3.8004,-3.8178,-3.819,-3.8467,-3.902,-3.9152,-3.9417,-3.9801,-3.9405,-3.9152,-3.9008,-3.8443,-3.8419,-3.8827,-3.896,-3.9549,-4.0294,-3.8948,-3.8479,-3.8623,-3.8912,-3.9345,-3.9789,-3.9657,-4.003,-4.0535,0.0,0.0,0.0,0.0,0.0,0.0,0.0,0.0,0.0,0.0,0.0,0.0,0.0,0.0,0.0,0.0,0.0,0.0,0.0,0.0,0.0,0.0,0.0,0.0,0.0,0.0,0.0,0.0,0.0,0.0,0.0,0.0,0.0,0.0,0.0,0.0,0.0,0.0,0.0,0.0,0.0,0.0,0.0,0.0,0.0,0.0,0.0,0.0,0.0,0.0,0.0,0.0,0.0,0.0,0.0,0.0,0.0,0.0,0.0,0.0,0.0,0.0,0.0,0.0,0.0,0.0,0.0,0.0,0.0,0.0,0.0,0.0,0.0,0.0,0.0,0.0,0.0,0.0,0.0,-3.6779,-3.6354,0.0,0.0,0.0,0.0,-3.7919,-3.8212,-3.8336,-3.8336,-3.8603,-3.8755,-3.8779,-3.8779,-3.9032,-3.9561,-4.0066,-4.0331,-4.0355,-4.0331,-4.0054,-3.9549,-3.902,-3.8791,-3.8852,-3.9345,-3.9886,-4.0343,-3.9765,-3.9826,-4.0222,-3.9753,-3.9886,-4.0294,-3.9789,-4.0258,-4.1136,0.0,0.0,0.0,0.0,0.0,0.0,0.0,0.0,0.0,0.0,0.0,0.0,0.0,0.0,0.0,0.0,0.0,0.0,0.0,0.0,0.0,0.0,0.0,0.0,0.0,0.0,0.0,0.0,0.0,0.0,0.0,0.0,0.0,0.0,0.0,0.0,0.0,0.0,0.0,0.0,0.0,0.0,0.0,0.0,0.0,0.0,0.0,0.0,0.0,0.0,0.0,0.0,0.0,0.0,0.0,0.0,0.0,0.0,0.0,0.0,0.0,0.0,0.0,0.0,0.0,0.0,0.0,0.0,0.0,0.0,0.0,0.0,0.0,0.0,0.0,0.0,0.0,0.0,0.0,-3.6563,-3.6545,0.0,-3.7493,-3.7615,-3.7926,-3.8521,-3.8645,-3.8688,-3.8688,-3.8761,-3.9128,-3.9813,-3.9838,-4.009,-4.0619,-4.0812,-4.0896,-4.0896,-4.0559,-4.0475,-4.0595,-4.0066,-4.0018,-4.0355,-4.0535,-4.092,-4.1389,-4.1208,-4.104,-4.092,-4.1076,-4.1244,-4.1425,-4.1581,-4.1882,-4.2253,0.0,0.0,0.0,0.0,0.0,0.0,0.0,0.0,0.0,0.0,0.0,0.0,0.0,0.0,0.0,0.0,0.0,0.0,0.0,0.0,0.0,0.0,0.0,0.0,0.0,0.0,0.0,0.0,0.0,0.0,0.0,0.0,0.0,0.0,0.0,0.0,0.0,0.0,0.0,0.0,0.0,0.0,-3.0688,0.0,0.0,0.0,0.0,0.0,0.0,0.0,0.0,0.0,0.0,0.0,0.0,0.0,0.0,0.0,0.0,0.0,0.0,0.0,0.0,0.0,0.0,0.0,0.0,0.0,0.0,0.0,0.0,0.0,0.0,0.0,0.0,0.0,0.0,-3.6967,-3.6775,-3.6804,-3.688,-3.723,-3.7954,-3.8145,-3.8427,-3.8767,-3.8984,-3.9164,-3.9345,-3.9525,-3.9934,-4.0643,-4.0667,-4.0824,-4.1184,-4.1184,-4.1268,-4.1437,-4.092,-4.0944,-4.1425,-4.0896,-4.0944,-4.1461,-4.1641,-4.2014,-4.2507,-4.2687,-4.2567,-4.2254,-4.2242,-4.2301,-4.2338,-4.2699,-4.2928,-4.2976,0.0,0.0,0.0,0.0,0.0,0.0,0.0,0.0,0.0,0.0,0.0,0.0,0.0,0.0,0.0,0.0,0.0,0.0,0.0,0.0,0.0,0.0,0.0,0.0,0.0,0.0,0.0,0.0,0.0,0.0,0.0,0.0,0.0,0.0,0.0,0.0,0.0,0.0,0.0,0.0,0.0,0.0,-3.0729,0.0,0.0,0.0,0.0,0.0,0.0,0.0,0.0,0.0,0.0,0.0,0.0,0.0,0.0,0.0,0.0,0.0,0.0,0.0,0.0,0.0,0.0,0.0,0.0,0.0,0.0,0.0,0.0,0.0,0.0,0.0,0.0,0.0,-3.7228,-3.6991,-3.6984,-3.753,-3.736,-3.7409,-3.7974,-3.8034,-3.8274,-3.8852,-3.9369,-3.9886,-4.0391,-4.0908,-4.1184,-4.1184,-4.1184,-4.1184,-4.1184,-4.1196,-4.1473,-4.1966,-4.1473,-4.1509,-4.2002,-4.1485,-4.1545,-4.2074,-4.2651,-4.3084,-4.3577,-4.413,-4.4347,-4.4251,-4.3204,-4.2867,-4.2867,-4.2867,-4.312,-4.343,0.0,0.0,0.0,0.0,0.0,0.0,0.0,0.0,0.0,0.0,0.0,0.0,0.0,0.0,0.0,0.0,0.0,0.0,0.0,0.0,0.0,0.0,0.0,0.0,0.0,0.0,0.0,0.0,0.0,0.0,0.0,0.0,0.0,0.0,0.0,0.0,0.0,0.0,0.0,0.0,0.0,0.0,-3.1616,0.0,0.0,0.0,0.0,0.0,0.0,0.0,0.0,0.0,0.0,0.0,0.0,0.0,0.0,0.0,0.0,0.0,0.0,0.0,0.0,0.0,0.0,0.0,0.0,0.0,0.0,0.0,0.0,0.0,0.0,0.0,-3.7868,-3.757,-3.7526,-3.7245,-3.7272,-3.7814,-3.7473,-3.7709,-3.9032,-3.9164,-3.9537,-4.0463,-4.0667,-4.0812,-4.0956,-4.11,-4.1184,-4.1184,-4.1184,-4.1184,-4.1184,-4.1569,-4.1834,-4.1978,-4.2218,-4.2591,-4.3084,-4.294,-4.3168,-4.3709,-4.3842,-4.3925,-4.413,-4.4534,-4.4656,-4.4619,-4.4084,-4.3914,-4.3914,-4.3914,-4.3998,-4.4081,0.0,0.0,0.0,0.0,0.0,0.0,0.0,0.0,0.0,0.0,0.0,0.0,0.0,0.0,0.0,0.0,0.0,0.0,0.0,0.0,0.0,0.0,0.0,0.0,0.0,0.0,0.0,0.0,0.0,0.0,0.0,0.0,0.0,0.0,0.0,0.0,0.0,0.0,0.0,0.0,0.0,0.0,-3.1988,-3.1988,-3.2277,-3.2638,-3.237,-3.2277,-3.2235,-3.2033,0.0,0.0,0.0,0.0,0.0,0.0,0.0,0.0,0.0,0.0,0.0,0.0,0.0,0.0,0.0,0.0,0.0,0.0,0.0,0.0,0.0,0.0,0.0,0.0,-3.7564,-3.7536,-3.7766,-3.7441,-3.7385,-3.7926,-3.8118,-3.8659,-3.9826,-4.0138,-4.0523,-4.1136,-4.1184,-4.1184,-4.1184,-4.1184,-4.1184,-4.1184,-4.1184,-4.1293,-4.1509,-4.1822,-4.2182,-4.2615,-4.2928,-4.3349,-4.3866,-4.3866,-4.4034,-4.4285,-4.4285,-4.4285,-4.4347,-4.4532,-4.4656,-4.4779,0.0,0.0,0.0,0.0,-4.4532,-4.4409,0.0,0.0,0.0,0.0,0.0,0.0,0.0,0.0,0.0,0.0,0.0,0.0,0.0,0.0,0.0,0.0,0.0,0.0,0.0,0.0,0.0,0.0,0.0,0.0,0.0,0.0,0.0,0.0,0.0,0.0,0.0,0.0,0.0,0.0,0.0,0.0,0.0,0.0,0.0,0.0,0.0,0.0,-3.206,-3.206,-3.2318,-3.2669,-3.2669,-3.2669,-3.2669,-3.2669,0.0,0.0,0.0,0.0,0.0,0.0,0.0,0.0,0.0,0.0,0.0,0.0,0.0,0.0,0.0,0.0,0.0,0.0,0.0,0.0,0.0,0.0,0.0,0.0,-3.7191,-3.7541,-3.801,-3.7769,-3.7733,-3.8202,-3.9104,-3.991,-4.0439,-4.0908,-4.1184,-4.1184,-4.1184,-4.1184,-4.1184,-4.1184,0.0,0.0,0.0,-4.1497,-4.2024,-4.2086,-4.2603,-4.3505,-4.3577,-4.3866,-4.4285,-4.4347,-4.4347,-4.4285,-4.4347,-4.4347,-4.4347,-4.4409,-4.4656,-4.4963,-4.5147,-4.527,-4.5208,-4.484,-4.4717,-4.452,0.0,0.0,0.0,0.0,0.0,0.0,0.0,0.0,0.0,0.0,0.0,0.0,0.0,0.0,0.0,0.0,0.0,0.0,0.0,0.0,0.0,0.0,0.0,0.0,0.0,0.0,0.0,0.0,0.0,0.0,0.0,0.0,0.0,0.0,0.0,0.0,0.0,0.0,0.0,0.0,0.0,0.0,-3.2545,-3.2545,-3.2597,-3.2669,-3.2669,-3.2669,-3.2669,-3.2669,-3.2669,-3.2669,-3.2669,0.0,0.0,0.0,0.0,0.0,0.0,0.0,0.0,0.0,0.0,0.0,0.0,0.0,0.0,0.0,0.0,0.0,0.0,0.0,0.0,-3.7782,-3.8195,-3.8539,-3.8647,-3.9308,-3.9813,-3.9922,-4.0114,-4.0451,-4.098,-4.1124,-4.1184,-4.1184,-4.1184,-4.1184,-4.1184,-4.1184,-4.1184,-4.1184,-4.1593,-4.187,-4.1978,-4.2796,-4.3313,-4.3517,-4.3974,0.0,-4.4285,-4.4594,-4.4532,-4.4347,-4.4594,-4.4717,-4.4717,-4.5025,-4.5453,-4.5939,-4.5208,-4.4902,-4.484,-4.4532,-4.4409,-4.4409,0.0,0.0,0.0,0.0,0.0,0.0,0.0,0.0,0.0,0.0,0.0,0.0,0.0,0.0,0.0,0.0,0.0,0.0,0.0,0.0,0.0,0.0,0.0,0.0,0.0,0.0,0.0,0.0,0.0,0.0,0.0,0.0,0.0,0.0,0.0,0.0,0.0,0.0,0.0,0.0,0.0,0.0,-3.2669,-3.2669,-3.2669,-3.2669,-3.2669,-3.2669,-3.2669,-3.2669,-3.2669,-3.2669,-3.2669,-3.2669,-3.2669,0.0,0.0,0.0,0.0,0.0,0.0,0.0,0.0,0.0,0.0,0.0,0.0,0.0,0.0,-3.8706,0.0,0.0,-3.8294,-3.8565,-3.8731,-3.9008,-3.9537,-4.0066,-4.0391,-4.0391,-4.0631,-4.0896,-4.116,-4.1184,-4.1184,-4.1184,-4.1184,-4.1184,-4.1184,-4.1184,-4.1305,-4.1569,-4.1834,-4.2336,-4.2974,-4.3313,-4.371,-4.4171,-4.4399,-4.4532,-4.4532,-4.4902,-4.4963,-4.484,-4.4963,-4.5025,-4.5086,-4.5392,-4.5757,-4.5999,-4.5514,-4.5392,-4.5514,-4.5147,-4.5025,-4.5025,0.0,0.0,0.0,0.0,0.0,0.0,0.0,0.0,0.0,0.0,0.0,0.0,0.0,0.0,0.0,0.0,0.0,0.0,0.0,0.0,0.0,0.0,0.0,0.0,0.0,0.0,0.0,0.0,0.0,0.0,0.0,0.0,0.0,0.0,0.0,0.0,0.0,0.0,0.0,0.0,0.0,0.0,-3.2669,-3.2669,-3.2669,-3.2669,-3.2669,-3.2669,-3.2669,-3.2669,-3.2669,-3.2669,-3.2669,-3.2669,-3.2669,-3.2669,-3.2669,0.0,0.0,0.0,0.0,0.0,0.0,0.0,0.0,0.0,-3.9258,-3.9218,-3.905,-3.8893,-3.8788,-3.8631,-3.8644,-3.9114,-3.905,-3.9308,-4.0303,-4.0531,-4.0547,-4.0648,-4.0977,-4.1184,-4.1184,-4.1184,-4.1184,-4.1184,-4.1184,-4.1184,-4.1184,-4.128,-4.1591,-4.2071,-4.2288,-4.2913,-4.3989,-4.3917,-4.4147,-4.4779,-4.484,-4.4902,-4.4902,-4.527,-4.5392,-4.5331,-4.5392,-4.5392,-4.5453,-4.5757,-4.5878,-4.5878,-4.5878,-4.6059,-4.6253,-4.5817,-4.5696,-4.5696,0.0,0.0,0.0,0.0,0.0,0.0,0.0,0.0,0.0,0.0,0.0,0.0,0.0,0.0,0.0,0.0,0.0,0.0,0.0,0.0,0.0,0.0,0.0,0.0,0.0,0.0,0.0,0.0,0.0,0.0,0.0,0.0,0.0,0.0,0.0,0.0,0.0,0.0,0.0,0.0,0.0,0.0,-3.2669,-3.2669,-3.2669,-3.2669,-3.2669,-3.2669,-3.2669,-3.2669,-3.2669,-3.2669,-3.2669,-3.2669,-3.2669,-3.2669,0.0,-3.2944,-3.3987,-3.4256,-3.4525,-3.5487,-3.5968,-3.6402,0.0,0.0,-3.9218,-3.8893,-3.905,-3.9154,-3.8841,-3.8788,-3.8855,-3.918,-3.9352,-3.9828,-4.0619,-4.0958,-4.1203,-4.1464,-4.1308,-4.1184,-4.1184,-4.1184,-4.1184,-4.1184,-4.1184,-4.1184,-4.1184,-4.1629,-4.2081,-4.2433,-4.3333,-4.388,-4.3989,-4.4731,-4.5025,-4.4779,-4.5086,-4.527,-4.527,-4.5574,-4.5574,-4.5331,-4.5635,-4.5757,-4.5757,-4.6132,-4.624,-4.624,-4.624,-4.6253,-4.6253,-4.5574,-4.5331,-4.5392,0.0,0.0,0.0,0.0,0.0,0.0,0.0,0.0,0.0,0.0,0.0,0.0,0.0,0.0,0.0,0.0,0.0,0.0,0.0,0.0,0.0,0.0,0.0,0.0,0.0,0.0,0.0,0.0,0.0,0.0,0.0,0.0,0.0,0.0,0.0,0.0,0.0,0.0,0.0,0.0,0.0,0.0,-3.2669,-3.2669,-3.2669,-3.2669,-3.2669,-3.2669,0.0,0.0,-3.2669,-3.2669,-3.2669,-3.2669,-3.2669,-3.2669,-3.2669,0.0,-3.3151,-3.3875,-3.458,0.0,-3.5597,-3.6468,-3.7512,-3.8554,-3.9258,-3.9102,-3.905,-3.8945,-3.8841,-3.8941,-3.916,0.0,-4.0025,-4.0503,-4.1193,-4.1359,-4.1561,-4.1859,-4.1618,-4.139,-4.1242,-4.1528,-4.1586,-4.1242,-4.1344,-4.1447,-4.1447,-4.1968,-4.2579,-4.3189,-4.3911,-4.451,-4.5022,-4.5208,-4.5331,-4.5392,-4.5514,-4.5574,-4.5574,-4.5939,-4.5999,-4.5878,-4.6012,-4.6072,-4.6132,-4.6253,-4.6313,-4.6313,-4.6313,-4.6313,-4.6253,-4.5999,-4.5878,-4.5878,0.0,0.0,0.0,0.0,0.0,0.0,0.0,0.0,0.0,0.0,0.0,0.0,0.0,0.0,0.0,0.0,0.0,0.0,0.0,0.0,0.0,0.0,0.0,0.0,0.0,0.0,0.0,0.0,0.0,0.0,0.0,0.0,0.0,0.0,0.0,0.0,0.0,0.0,0.0,0.0,0.0,0.0,-3.2669,-3.2669,-3.2669,-3.2669,-3.2669,-3.2669,0.0,0.0,-3.2669,-3.2669,-3.2669,-3.2669,-3.2784,-3.3115,-3.3649,-3.4089,-3.3909,0.0,0.0,-3.5542,-3.6143,-3.6954,-3.8108,-3.8881,-3.931,-3.9426,-3.9166,-3.8945,-3.905,-3.9283,-3.9597,-4.0147,-4.063,-4.1167,-4.1749,-4.1777,-4.1846,-4.2155,-4.2017,-4.172,-4.1471,-4.1757,-4.1814,-4.1471,-4.1561,-4.1724,-4.194,-4.2534,-4.3201,-4.4035,-4.4565,-4.5154,-4.5817,-4.5635,-4.5635,-4.5817,-4.5878,-4.5939,-4.5939,-4.6193,-4.6313,-4.6313,-4.6313,-4.6313,-4.6313,-4.6313,-4.6313,-4.6313,-4.6313,-4.6313,-4.6313,-4.6313,-4.6313,-4.6313,0.0,0.0,0.0,0.0,0.0,0.0,0.0,0.0,0.0,0.0,0.0,0.0,0.0,0.0,0.0,0.0,0.0,0.0,0.0,0.0,0.0,0.0,0.0,0.0,0.0,0.0,0.0,0.0,0.0,0.0,0.0,0.0,0.0,0.0,0.0,0.0,0.0,0.0,0.0,0.0,0.0,0.0,-3.2669,-3.2669,-3.2669,-3.2669,-3.2669,0.0,0.0,0.0,-3.2669,-3.2669,-3.2669,-3.2669,0.0,-3.4099,-3.5991,0.0,0.0,0.0,-3.8056,-3.9258,-3.8659,-3.8161,-3.9362,-3.9478,-3.9362,-3.9633,-3.9478,-3.9362,-3.9633,-3.9875,-4.0252,-4.0798,-4.1095,-4.1583,-4.2338,-4.2256,-4.2211,-4.2469,-4.2469,-4.2369,-4.211,-4.1789,-4.1732,-4.2041,-4.1789,-4.1952,-4.2802,-4.3401,-4.406,-4.4901,-4.5507,-4.5744,-4.5817,-4.612,-4.612,-4.5817,-4.6132,-4.6313,-4.6313,-4.6313,-4.6313,-4.6313,-4.6313,-4.6313,-4.6313,-4.6313,-4.6313,-4.6313,-4.6313,-4.6313,-4.6313,-4.6313,-4.6313,-4.6313,0.0,0.0,0.0,0.0,0.0,0.0,0.0,0.0,0.0,0.0,0.0,0.0,0.0,0.0,0.0,0.0,0.0,0.0,0.0,0.0,0.0,0.0,0.0,0.0,0.0,0.0,0.0,0.0,0.0,0.0,0.0,0.0,0.0,0.0,0.0,0.0,0.0,0.0,0.0,0.0,0.0,0.0,-3.2784,-3.3604,-3.3875,-3.3987,0.0,0.0,0.0,0.0,0.0,0.0,-3.366,0.0,0.0,-3.5278,-3.6696,-3.7725,0.0,0.0,-3.8003,-3.8384,-3.8214,-3.8214,-3.9413,-3.9633,-3.9581,-3.9685,-3.9633,-3.9642,-3.99,-4.0305,-4.0744,-4.1095,-4.1682,-4.2214,-4.2444,-4.2413,-4.2481,-4.2806,-4.2638,0.0,0.0,-4.2581,-4.2413,-4.2098,-4.2142,-4.2478,-4.3173,-4.3717,-4.4438,-4.5282,-4.5832,-4.612,-4.612,-4.6253,-4.6253,-4.612,-4.6253,-4.6313,-4.6313,-4.6313,-4.6313,-4.6313,-4.6313,-4.6313,-4.6313,-4.6313,-4.6313,-4.6313,-4.6313,-4.6313,-4.6313,-4.6313,-4.6313,-4.6313,0.0,0.0,0.0,0.0,0.0,0.0,0.0,0.0,0.0,0.0,0.0,0.0,0.0,0.0,0.0,0.0,0.0,0.0,0.0,0.0,0.0,0.0,0.0,0.0,0.0,0.0,0.0,0.0,0.0,0.0,0.0,0.0,0.0,0.0,0.0,0.0,0.0,0.0,0.0,0.0,0.0,0.0,-3.3491,-3.4636,-3.5124,0.0,0.0,0.0,0.0,0.0,0.0,0.0,0.0,-3.508,-3.5881,-3.6576,-3.7607,-3.8384,-3.7672,-3.8003,-3.8542,-3.8542,-3.8542,-3.8764,-3.953,-3.9697,-3.9697,-3.9697,-3.9697,-3.9808,-4.0202,-4.0686,-4.1193,-4.1588,-4.2233,-4.2694,-4.2694,-4.2694,-4.275,-4.2974,-4.2806,-4.275,0.0,0.0,-4.2818,-4.2437,-4.2469,-4.2917,-4.3791,-4.4166,-4.4761,-4.5761,-4.6125,-4.6313,-4.6313,-4.6313,-4.6313,-4.6313,-4.6313,-4.6313,-4.6313,-4.6313,-4.6313,-4.6313,-4.6313,-4.6313,-4.6313,-4.6313,-4.6313,-4.6313,-4.6313,-4.6313,-4.6313,-4.6313,-4.6313,-4.6313,0.0,0.0,0.0,0.0,0.0,0.0,0.0,0.0,0.0,0.0,0.0,0.0,0.0,0.0,0.0,0.0,0.0,0.0,0.0,0.0,0.0,0.0,0.0,0.0,0.0,0.0,0.0,0.0,0.0,0.0,0.0,0.0,0.0,0.0,0.0,0.0,0.0,0.0,0.0,0.0,0.0,0.0,-3.4692,-3.587,0.0,0.0,0.0,0.0,0.0,0.0,0.0,0.0,0.0,0.0,-3.8003,-3.8003,-3.8816,-3.9697,-3.9697,-3.9697,-3.9697,-3.9697,-3.9697,-3.9697,-3.9697,-3.9697,-3.9697,-3.9697,-3.9722,-3.991,0.0,0.0,-4.1555,-4.2162,-4.269,-4.2974,-4.2974,-4.2974,-4.2974,0.0,0.0,0.0,0.0,0.0,0.0,-4.2974,-4.2694,-4.3111,-4.451,-4.4618,-4.5133,-4.6276,-4.6313,-4.6313,-4.6313,-4.6313,-4.6313,-4.6313,-4.6313,-4.6313,-4.6313,-4.6313,-4.6313,-4.6313,-4.6313,-4.6313,-4.6313,-4.6313,-4.6313,-4.6313,-4.6313,-4.6313,-4.6313,-4.6313,-4.6313,-4.6313,0.0,0.0,0.0,0.0,0.0,0.0,0.0,0.0,0.0,0.0,0.0,0.0,0.0,0.0,0.0,0.0,0.0,0.0,0.0,0.0,0.0,0.0,0.0,0.0,0.0,0.0,0.0,0.0,0.0,0.0,0.0,0.0,0.0,0.0,0.0,0.0,0.0,0.0,0.0,0.0,0.0,0.0,-3.587,0.0,0.0,0.0,0.0,0.0,0.0,0.0,0.0,0.0,0.0,0.0,-3.9258,-3.9258,-3.9478,-3.9697,-3.9697,-3.9697,-3.9697,-3.9697,-3.9697,-3.9697,-3.9697,-3.9697,-3.9697,-3.9697,-4.0023,-4.0475,0.0,0.0,0.0,-4.274,-4.2886,0.0,-4.2974,-4.2974,0.0,-4.2974,0.0,-4.2974,-4.2974,-4.2974,0.0,-4.2974,-4.2918,-4.3407,-4.4568,-4.4618,-4.5133,-4.6276,-4.6313,-4.6313,-4.6313,-4.6313,-4.6313,-4.6313,-4.6313,-4.6313,-4.6313,-4.6313,-4.6313,-4.6313,-4.6313,-4.6313,-4.6313,-4.6313,-4.6313,-4.6313,-4.6313,-4.6313,-4.6313,-4.6313,-4.6313,-4.6313,0.0,0.0,0.0,0.0,0.0,0.0,0.0,0.0,0.0,0.0,0.0,0.0,0.0,0.0,0.0,0.0,0.0,0.0,0.0,0.0,0.0,0.0,0.0,0.0,0.0,0.0,0.0,0.0,0.0,0.0,0.0,0.0,0.0,0.0,0.0,0.0,0.0,0.0,0.0,0.0,0.0,0.0,0.0,0.0,0.0,0.0,0.0,0.0,0.0,0.0,0.0,-3.8003,-3.8542,-3.9141,-3.9697,-3.9697,0.0,-3.9697,-3.9697,-3.9697,-3.9697,-3.9697,-3.9697,-3.9697,-3.9697,-3.9697,-3.9697,-3.9697,-4.0136,0.0,0.0,0.0,0.0,0.0,0.0,0.0,-4.2974,-4.2974,-4.2974,0.0,-4.2974,0.0,-4.2974,-4.2974,-4.2974,-4.2974,-4.2974,-4.3463,-4.4568,-4.4618,-4.5133,-4.6276,-4.6313,-4.6313,-4.6313,-4.6313,-4.6313,-4.6313,-4.6313,-4.6313,-4.6313,-4.6313,-4.6313,-4.6313,-4.6313,-4.6313,-4.6313,-4.6313,-4.6313,-4.6313,-4.6313,-4.6313,-4.6313,-4.6313,-4.6313,-4.6313,0.0,0.0,0.0,0.0,0.0,0.0,0.0,0.0,0.0,0.0,0.0,0.0,0.0,0.0,0.0,0.0,0.0,0.0,0.0,0.0,0.0,0.0,0.0,0.0,0.0,0.0,0.0,0.0,0.0,0.0,0.0,0.0,0.0,0.0,0.0,0.0,0.0,0.0,0.0,0.0,0.0,0.0,0.0,0.0,0.0,0.0,0.0,0.0,0.0,0.0,-3.8985,-3.8332,-3.9362,-3.9697,-3.9697,-3.9697,-3.9697,-3.9697,-3.9697,-3.9697,-3.9697,-3.9697,-3.9697,-3.9697,-3.9697,-3.9697,-3.9722,-3.9785,0.0,-4.0789,-4.1288,-4.1894,-4.2476,-4.2898,0.0,-4.2974,-4.2974,-4.2974,-4.2974,-4.2974,-4.2974,-4.2974,-4.2974,-4.2974,-4.2974,-4.2974,-4.3049,-4.3539,-4.4568,-4.4694,-4.5221,-4.6276,-4.6313,-4.6313,-4.6313,-4.6313,-4.6313,-4.6313,-4.6313,-4.6313,-4.6313,-4.6313,-4.6313,-4.6313,-4.6313,-4.6313,-4.6313,-4.6313,-4.6313,-4.6313,-4.6313,-4.6313,-4.6313,-4.6313,-4.6313,-4.6313,0.0,0.0,0.0,0.0,0.0,0.0,0.0,0.0,0.0,0.0,-3.7611,-3.7353,0.0,0.0,0.0,0.0,0.0,0.0,0.0,0.0,0.0,0.0,0.0,0.0,0.0,0.0,0.0,0.0,0.0,0.0,0.0,0.0,0.0,0.0,0.0,0.0,0.0,0.0,0.0,0.0,0.0,0.0,0.0,0.0,0.0,0.0,0.0,0.0,0.0,0.0,-3.9581,-3.9413,-3.9633,-3.9697,-3.9697,-3.9697,-3.9697,-3.9697,-3.9697,-3.9697,-3.9697,-3.9697,-3.9697,-3.9697,-3.9697,-3.9697,0.0,0.0,0.0,-4.1367,-4.1907,-4.2514,0.0,-4.2961,0.0,0.0,0.0,0.0,-4.2974,0.0,0.0,0.0,0.0,-4.2974,0.0,-4.2974,-4.3401,-4.394,-4.4593,-4.5083,-4.5635,-4.6288,-4.6313,-4.6313,-4.6313,-4.6313,-4.6313,-4.6313,-4.6313,-4.6313,-4.6313,-4.6313,-4.6313,-4.6313,-4.6313,-4.6313,-4.6313,-4.6313,-4.6313,-4.6313,-4.6313,-4.6313,-4.6313,-4.6313,-4.6313,-4.6313,0.0,0.0,0.0,0.0,0.0,0.0,0.0,-3.7808,-3.7749,-3.79,-3.7808,-3.7611,-3.7353,-3.7413,-3.7353,0.0,0.0,0.0,0.0,0.0,0.0,0.0,0.0,0.0,0.0,0.0,0.0,0.0,0.0,0.0,0.0,0.0,0.0,0.0,0.0,0.0,0.0,0.0,0.0,0.0,0.0,0.0,0.0,0.0,0.0,0.0,0.0,0.0,0.0,0.0,-3.9697,-3.9697,-3.9697,-3.9697,-3.9697,-3.9697,-3.9697,-3.9697,-3.9697,-3.9697,-3.9697,-3.9697,-3.9697,-3.9697,-3.9697,0.0,0.0,0.0,-4.0953,-4.1505,-4.2112,0.0,0.0,0.0,0.0,0.0,0.0,0.0,0.0,0.0,0.0,0.0,0.0,-4.2974,-4.3099,-4.3388,-4.3915,-4.4342,-4.4606,-4.5447,-4.6037,-4.6301,-4.6313,-4.6313,-4.6313,-4.6313,-4.6313,-4.6313,-4.6313,-4.6313,-4.6313,-4.6313,-4.6313,-4.6313,-4.6313,-4.6313,-4.6313,-4.6313,-4.6313,-4.6313,-4.6313,-4.6313,-4.6313,-4.6313,-4.6313,-4.6313,0.0,0.0,0.0,0.0,0.0,0.0,0.0,-3.79,-3.79,-3.79,-3.79,-3.7808,-3.7505,-3.7551,-3.7459,0.0,0.0,0.0,0.0,0.0,0.0,0.0,0.0,0.0,0.0,0.0,0.0,-3.6405,0.0,0.0,0.0,0.0,0.0,0.0,-3.8002,0.0,0.0,0.0,0.0,0.0,0.0,0.0,0.0,0.0,0.0,0.0,0.0,0.0,0.0,0.0,-3.9697,-3.9697,-3.9697,-3.9697,-3.9697,-3.9697,-3.9697,-3.9697,-3.9697,-3.9697,-3.9697,-3.9697,-3.9697,-3.9697,-3.9697,-3.9785,0.0,0.0,-4.1128,-4.1681,-4.2288,0.0,0.0,0.0,0.0,0.0,0.0,0.0,0.0,0.0,0.0,0.0,0.0,-4.315,0.0,-4.3928,-4.4493,-4.4857,-4.4982,-4.5824,-4.6313,-4.6313,-4.6313,-4.6313,-4.6313,-4.6313,-4.6313,-4.6313,-4.6313,-4.6313,-4.6313,-4.6313,-4.6313,-4.6313,-4.6313,-4.6313,-4.6313,-4.6313,-4.6313,-4.6313,-4.6313,-4.6313,-4.6313,-4.6313,-4.6313,-4.6313,0.0,0.0,0.0,0.0,0.0,0.0,0.0,-3.79,-3.79,-3.79,-3.79,-3.7808,-3.7505,-3.7703,-3.7762,0.0,0.0,0.0,0.0,0.0,0.0,0.0,0.0,0.0,0.0,0.0,0.0,-3.6405,-3.6405,0.0,0.0,0.0,0.0,0.0,0.0,-3.863,-3.9697,0.0,0.0,0.0,0.0,0.0,0.0,0.0,0.0,0.0,0.0,0.0,0.0,0.0,0.0,-3.9697,-3.9697,-3.9697,-3.9697,-3.9697,0.0,0.0,-3.9697,-3.9697,-3.9697,-3.9697,-3.9697,-3.9697,-3.9697,0.0,0.0,-4.11,-4.1693,-4.2301,-4.2798,-4.2949,0.0,0.0,0.0,0.0,0.0,0.0,0.0,0.0,0.0,0.0,0.0,-4.3727,-4.3953,-4.4505,-4.5083,-4.5623,-4.6125,-4.625,-4.6313,-4.6313,-4.6313,-4.6313,-4.6313,-4.6313,-4.6313,-4.6313,-4.6313,-4.6313,-4.6313,-4.6313,-4.6313,-4.6313,-4.6313,-4.6313,-4.6313,-4.6313,-4.6313,-4.6313,-4.6313,-4.6313,-4.6313,-4.6313,-4.6313,-4.6313,0.0,0.0,0.0,0.0,0.0,0.0,-3.7952,-3.79,-3.79,-3.79,-3.79,-3.7854,-3.7749,-3.7703,-3.7551,-3.7261,0.0,0.0,0.0,0.0,0.0,0.0,0.0,0.0,0.0,0.0,-3.6405,-3.6405,-3.6405,0.0,0.0,0.0,0.0,0.0,0.0,-3.863,-3.9697,0.0,0.0,0.0,0.0,0.0,0.0,0.0,0.0,0.0,0.0,0.0,0.0,0.0,0.0,0.0,-3.9697,-3.9697,0.0,0.0,-3.9697,-3.9697,-3.9697,-3.9697,-3.9772,-4.0111,-4.0187,-4.0275,-4.0614,0.0,0.0,-4.1718,-4.2049,-4.2376,-4.2873,-4.2974,-4.2974,0.0,0.0,0.0,0.0,0.0,0.0,0.0,0.0,0.0,0.0,0.0,-4.4531,-4.5095,-4.566,-4.6075,-4.6301,-4.6313,-4.6313,-4.6313,-4.6313,-4.6313,-4.6313,-4.6313,-4.6313,-4.6313,-4.6313,-4.6313,-4.6313,-4.6313,-4.6313,-4.6313,-4.6313,-4.6313,-4.6313,-4.6313,-4.6313,-4.6313,-4.6313,-4.6313,-4.6313,-4.6313,-4.6313,-4.6313,0.0,0.0,0.0,0.0,0.0,-3.8789,-3.8227,-3.8148,-3.8083,-3.7926,-3.79,-3.79,-3.79,-3.7657,-3.74,-3.7108,-3.7168,0.0,0.0,0.0,0.0,0.0,0.0,0.0,0.0,0.0,-3.6405,-3.6405,-3.6405,-3.6405,0.0,0.0,-3.6948,-3.8002,0.0,0.0,0.0,0.0,0.0,0.0,0.0,0.0,0.0,0.0,0.0,0.0,0.0,0.0,0.0,0.0,0.0,0.0,0.0,0.0,0.0,0.0,-3.9697,-3.9722,-3.9885,-3.9936,-4.0074,-4.0626,-4.0764,-4.0865,0.0,0.0,0.0,-4.2125,-4.2338,-4.2577,-4.2898,-4.2974,-4.2974,0.0,0.0,0.0,0.0,0.0,0.0,0.0,0.0,0.0,0.0,-4.4794,-4.5296,-4.5698,-4.6087,-4.6313,-4.6313,-4.6313,-4.6313,-4.6313,-4.6313,-4.6313,-4.6313,-4.6313,-4.6313,-4.6313,-4.6313,-4.6313,-4.6313,-4.6313,-4.6313,-4.6313,-4.6313,-4.6313,-4.6313,-4.6313,-4.6313,-4.6313,-4.6313,-4.6313,-4.6313,-4.6313,-4.6313,-4.6313,0.0,0.0,0.0,0.0,0.0,0.0,-3.8789,-3.8697,-3.8514,-3.7978,-3.79,-3.79,-3.79,-3.7657,-3.74,-3.7108,-3.7353,0.0,0.0,0.0,0.0,0.0,0.0,0.0,0.0,0.0,-3.6405,-3.6405,-3.6405,-3.6405,-3.6405,-3.6405,-3.6948,-3.8002,0.0,0.0,0.0,0.0,0.0,0.0,0.0,0.0,0.0,0.0,0.0,0.0,0.0,0.0,0.0,0.0,0.0,0.0,0.0,0.0,0.0,0.0,-3.9697,-3.981,-4.0362,-4.0513,-4.0639,-4.1137,-4.1275,-4.1275,0.0,0.0,0.0,-4.2213,-4.264,-4.2974,-4.2974,-4.2974,-4.2974,-4.2974,0.0,0.0,0.0,0.0,0.0,0.0,0.0,0.0,-4.5359,-4.5974,-4.6288,-4.6301,-4.6313,-4.6313,-4.6313,-4.6313,-4.6313,-4.6313,-4.6313,-4.6313,-4.6313,-4.6313,-4.6313,-4.6313,-4.6313,-4.6313,-4.6313,-4.6313,-4.6313,-4.6313,-4.6313,-4.6313,-4.6313,-4.6313,-4.6313,-4.6313,-4.6313,-4.6313,-4.6313,-4.6313,-4.6313,-4.6313,0.0,0.0,0.0,0.0,0.0,0.0,0.0,-3.9324,-3.9259,-3.9089,-3.871,-3.8462,-3.8462,-3.7878,-3.74,-3.7108,-3.7168,0.0,0.0,0.0,0.0,0.0,0.0,0.0,0.0,0.0,-3.6405,-3.6405,-3.6405,-3.6405,-3.6417,-3.6795,-3.7312,-3.8027,-3.8417,-3.9007,0.0,0.0,0.0,0.0,0.0,0.0,0.0,0.0,0.0,0.0,0.0,0.0,0.0,0.0,0.0,0.0,0.0,0.0,0.0,0.0,0.0,0.0,-4.0874,-4.1025,-4.1216,-4.1756,-4.1907,-4.1995,-4.2371,0.0,0.0,-4.2778,-4.2848,-4.2974,-4.2974,-4.2974,-4.2974,-4.2974,-4.2974,0.0,0.0,0.0,0.0,0.0,0.0,0.0,0.0,0.0,-4.6313,-4.6313,-4.6313,-4.6313,-4.6313,-4.6313,-4.6313,-4.6313,-4.6313,-4.6313,-4.6313,-4.6313,-4.6313,-4.6313,-4.6313,-4.6313,-4.6313,-4.6313,-4.6313,-4.6313,-4.6313,-4.6313,-4.6313,-4.6313,-4.6313,-4.6313,-4.6313,-4.6313,-4.6313,-4.6313,-4.6313,-4.6313,0.0,0.0,0.0,0.0,0.0,0.0,0.0,-3.9913,-3.9847,-3.9638,-3.9285,-3.905,-3.905,-3.8595,-3.8109,-3.7642,-3.7582,0.0,0.0,0.0,0.0,0.0,0.0,0.0,-3.6405,-3.6405,-3.6405,-3.6405,-3.6405,-3.6518,-3.6732,-3.7023,-3.76,-3.8354,-3.8705,-3.9182,0.0,0.0,0.0,0.0,0.0,0.0,-3.9722,0.0,0.0,0.0,0.0,0.0,0.0,0.0,0.0,0.0,0.0,0.0,0.0,0.0,-4.1404,0.0,0.0,-4.1643,-4.1781,-4.2389,-4.2527,0.0,0.0,0.0,0.0,0.0,0.0,-4.2974,-4.2974,-4.2974,-4.2974,-4.2974,0.0,0.0,0.0,0.0,0.0,0.0,0.0,0.0,0.0,-4.6313,-4.6313,-4.6313,-4.6313,-4.6313,-4.6313,-4.6313,-4.6313,-4.6313,-4.6313,-4.6313,-4.6313,-4.6313,-4.6313,-4.6313,-4.6313,-4.6313,-4.6313,-4.6313,-4.6313,-4.6313,-4.6313,-4.6313,0.0,-4.6313,-4.6313,-4.6313,-4.6313,-4.6313,-4.6313,-4.6313,-4.6313,-4.6313,0.0,0.0,0.0,0.0,0.0,0.0,0.0,-4.0474,-4.0305,-3.9795,-3.969,-3.9664,-3.9664,-3.9638,-3.9294,-3.8497,0.0,0.0,0.0,0.0,0.0,0.0,0.0,0.0,-3.6405,-3.6405,-3.6405,-3.6405,-3.6455,-3.6732,-3.7186,-3.7262,-3.7864,-3.8919,-3.8957,-3.922,0.0,0.0,0.0,0.0,0.0,0.0,0.0,0.0,0.0,0.0,0.0,0.0,0.0,0.0,0.0,0.0,0.0,0.0,0.0,0.0,0.0,0.0,0.0,0.0,0.0,0.0,0.0,0.0,0.0,0.0,0.0,0.0,0.0,0.0,0.0,0.0,0.0,-4.2974,0.0,0.0,0.0,0.0,0.0,0.0,0.0,0.0,-4.6313,-4.6313,-4.6313,-4.6313,-4.6313,-4.6313,-4.6313,-4.6313,-4.6313,-4.6313,-4.6313,-4.6313,-4.6313,-4.6313,-4.6313,-4.6313,-4.6313,-4.6313,-4.6313,-4.6313,-4.6313,-4.6313,-4.6313,-4.6313,-4.6313,-4.6313,-4.6313,-4.6313,-4.6313,-4.6313,-4.6313,-4.6313,-4.6313,-4.6313,0.0,0.0,0.0,0.0,0.0,0.0,0.0,0.0,0.0,0.0,-4.0514,-4.0226,-4.0226,-3.986,-3.9451,0.0,0.0,0.0,0.0,0.0,0.0,0.0,0.0,0.0,-3.6405,-3.6405,-3.6405,-3.6405,-3.6832,-3.7061,-3.7199,-3.8065,-3.8617,-3.8944,-3.932,-3.9572,0.0,0.0,0.0,0.0,0.0,0.0,0.0,0.0,0.0,0.0,-4.1238,-4.1605,0.0,0.0,0.0,0.0,0.0,0.0,0.0,0.0,-4.2841,-4.2841,-4.2841,0.0,-4.2811,-4.2949,-4.2974,-4.2974,0.0,0.0,0.0,0.0,0.0,0.0,0.0,0.0,0.0,0.0,0.0,0.0,0.0,0.0,0.0,0.0,-4.6225,-4.6313,-4.6313,-4.6313,-4.6313,-4.6313,-4.6313,-4.6313,-4.6313,-4.6313,-4.6313,-4.6313,-4.6313,-4.6313,-4.6313,-4.6313,-4.6313,-4.6313,-4.6313,-4.6313,-4.6313,-4.6313,-4.6313,-4.6313,-4.6313,-4.6313,-4.6313,-4.6313,-4.6313,-4.6313,-4.6313,-4.6313,-4.6313,-4.6313,-4.6313,-4.6313,0.0,0.0,0.0,0.0,0.0,0.0,0.0,0.0,0.0,0.0,0.0,0.0,0.0,0.0,0.0,0.0,0.0,0.0,0.0,0.0,0.0,0.0,0.0,-3.6405,-3.6405,-3.6405,-3.6531,-3.6782,-3.7036,-3.745,-3.7965,-3.863,-3.9057,-3.9258,-3.9559,-3.9697,0.0,0.0,0.0,0.0,-4.0388,0.0,0.0,0.0,0.0,0.0,-4.1995,-4.2283,0.0,-4.259,-4.2791,-4.2974,0.0,0.0,0.0,0.0,-4.2974,-4.2974,-4.2974,-4.2974,-4.2974,-4.2974,-4.2974,-4.2974,0.0,0.0,0.0,0.0,0.0,0.0,0.0,0.0,0.0,0.0,0.0,0.0,0.0,0.0,0.0,0.0,-4.6313,-4.6313,-4.6313,-4.6313,-4.6313,-4.6313,-4.6313,-4.6313,-4.6313,-4.6313,-4.6313,-4.6313,-4.6313,-4.6313,-4.6313,-4.6313,-4.6313,-4.6313,-4.6313,-4.6313,-4.6313,-4.6313,-4.6313,-4.6313,-4.6313,-4.6313,-4.6313,-4.6313,-4.6313,-4.6313,-4.6313,-4.6313,-4.6313,-4.6313,-4.6313,-4.6313,0.0,0.0,0.0,0.0,0.0,0.0,0.0,0.0,0.0,0.0,0.0,0.0,0.0,0.0,0.0,0.0,0.0,0.0,0.0,0.0,0.0,0.0,0.0,-3.6493,-3.6405,-3.6493,-3.6757,-3.7186,-3.7362,-3.7927,-3.8919,-3.9007,-3.9245,-3.9697,-3.9697,-3.9697,0.0,0.0,-4.0086,-4.0538,-4.0701,0.0,0.0,0.0,0.0,0.0,0.0,0.0,0.0,-4.2974,-4.2974,-4.2974,-4.2974,0.0,0.0,0.0,0.0,0.0,-4.2974,-4.2974,-4.2974,-4.2974,-4.2974,-4.2974,0.0,0.0,0.0,0.0,0.0,0.0,0.0,0.0,0.0,0.0,0.0,0.0,0.0,0.0,0.0,0.0,-4.6313,-4.6313,-4.6313,-4.6313,-4.6313,-4.6313,-4.6313,-4.6313,-4.6313,-4.6313,-4.6313,-4.6313,-4.6313,-4.6313,-4.6313,-4.6313,-4.6313,-4.6313,-4.6313,-4.6313,-4.6313,-4.6313,-4.6313,-4.6313,-4.6313,-4.6313,-4.6313,-4.6313,-4.6313,-4.6313,-4.6313,-4.6313,-4.6313,-4.6313,-4.6313,-4.6313,0.0,0.0,0.0,0.0,0.0,0.0,0.0,0.0,0.0,0.0,0.0,0.0,0.0,0.0,0.0,0.0,0.0,0.0,0.0,0.0,0.0,-3.7789,-3.7312,-3.6835,-3.6417,-3.6822,-3.7098,-3.7186,-3.814,-3.8756,-3.8932,-3.9346,-3.9609,-3.9697,-3.9697,-3.9697,-3.9722,-4.0187,-4.0438,-4.0588,-4.153,0.0,0.0,0.0,0.0,0.0,0.0,0.0,0.0,-4.2974,-4.2974,-4.2974,-4.2974,0.0,0.0,0.0,0.0,0.0,-4.2974,-4.2974,-4.2974,-4.2974,-4.2974,-4.2974,0.0,0.0,0.0,0.0,0.0,0.0,0.0,0.0,0.0,0.0,0.0,0.0,0.0,0.0,-4.6313,-4.6313,0.0,-4.6313,-4.6313,-4.6313,-4.6313,-4.6313,-4.6313,-4.6313,-4.6313,-4.6313,-4.6313,-4.6313,-4.6313,-4.6313,-4.6313,-4.6313,-4.6313,-4.6313,-4.6313,-4.6313,-4.6313,-4.6313,-4.6313,-4.6313,-4.6313,-4.6313,-4.6313,-4.6313,-4.6313,-4.6313,-4.6313,-4.6313,-4.6313,-4.6313,-4.6313,-4.6313,0.0,0.0,0.0,0.0,0.0,0.0,0.0,0.0,0.0,0.0,0.0,0.0,0.0,0.0,0.0,0.0,0.0,0.0,0.0,0.0,0.0,-3.8492,-3.8228,-3.7826,-3.7262,-3.75,-3.7776,-3.809,-3.8617,-3.9032,-3.932,-3.9572,-3.9697,-3.9697,-3.9697,-3.986,-4.0162,-4.0413,-4.0865,-4.1442,0.0,0.0,0.0,0.0,0.0,0.0,0.0,0.0,0.0,0.0,-4.2974,-4.2974,-4.2974,0.0,0.0,0.0,0.0,0.0,-4.2974,-4.2974,-4.2974,-4.2974,-4.2974,-4.2974,0.0,0.0,0.0,0.0,0.0,0.0,0.0,0.0,0.0,0.0,0.0,0.0,-4.5886,-4.615,-4.6313,-4.6313,-4.6313,-4.6313,-4.6313,-4.6313,-4.6313,-4.6313,-4.6313,-4.6313,-4.6313,-4.6313,-4.6313,-4.6313,-4.6313,-4.6313,-4.6313,-4.6313,-4.6313,-4.6313,-4.6313,-4.6313,-4.6313,-4.6313,-4.6313,-4.6313,-4.6313,-4.6313,-4.6313,-4.6313,-4.6313,-4.6313,-4.6313,-4.6313,-4.6313,-4.6313,-4.6313,-4.6313,0.0,0.0,0.0,0.0,0.0,0.0,0.0,0.0,0.0,0.0,0.0,0.0,0.0,0.0,0.0,0.0,0.0,0.0,0.0,0.0,-3.9893,-3.9222,-3.9108,-3.873,-3.8027,-3.814,-3.8429,-3.8919,-3.9057,-3.9283,-3.9697,-3.9697,-3.9697,-3.9697,-3.9823,-4.0124,-4.0538,-4.0789,-4.1392,-4.2213,0.0,0.0,0.0,0.0,0.0,0.0,0.0,0.0,0.0,0.0,0.0,0.0,0.0,0.0,0.0,-4.2974,-4.2974,-4.2974,-4.2974,-4.2974,-4.2974,-4.2974,0.0,0.0,0.0,0.0,0.0,0.0,0.0,0.0,0.0,0.0,0.0,0.0,0.0,-4.5824,-4.625,-4.6313,-4.6313,-4.6313,-4.6313,-4.6313,-4.6313,-4.6313,-4.6313,-4.6313,-4.6313,-4.6313,-4.6313,-4.6313,-4.6313,-4.6313,-4.6313,-4.6313,-4.6313,-4.6313,-4.6313,-4.6313,-4.6313,-4.6313,-4.6313,-4.6313,-4.6313,-4.6313,-4.6313,-4.6313,-4.6313,-4.6313,-4.6313,-4.6313,-4.6313,-4.6313,-4.6313,-4.6313,-4.6313,-4.6313,0.0,0.0,0.0,0.0,0.0,0.0,0.0,0.0,0.0,0.0,0.0,0.0,0.0,0.0,0.0,0.0,0.0,0.0,0.0,0.0,-4.0326,-4.002,-3.9789,-3.912,-3.8027,-3.853,-3.8881,-3.8919,-3.9383,-3.9647,-3.9697,-3.9697,-3.9697,-3.9722,-4.0224,-4.0475,-4.0588,-4.1605,-4.2137,-4.225,-4.271,0.0,0.0,0.0,0.0,0.0,0.0,0.0,0.0,0.0,0.0,0.0,0.0,0.0,-4.2974,-4.2974,-4.2974,-4.2974,-4.2974,-4.2974,-4.2974,-4.2974,0.0,0.0,0.0,0.0,0.0,0.0,0.0,0.0,0.0,0.0,0.0,0.0,0.0,-4.6263,-4.6301,-4.6313,-4.6313,-4.6313,-4.6313,-4.6313,-4.6313,-4.6313,-4.6313,-4.6313,-4.6313,-4.6313,-4.6313,-4.6313,-4.6313,-4.6313,-4.6313,-4.6313,-4.6313,-4.6313,-4.6313,-4.6313,-4.6313,-4.6313,-4.6313,-4.6313,-4.6313,-4.6313,-4.6313,-4.6313,-4.6313,-4.6313,-4.6313,-4.6313,-4.6313,-4.6313,-4.6313,-4.6313,-4.6313,-4.6313,0.0,0.0,0.0,0.0,0.0,0.0,0.0,0.0,0.0,0.0,0.0,0.0,0.0,0.0,0.0,0.0,0.0,0.0,0.0,-4.0198,-3.9942,-3.9839,-3.9736,-3.9496,-3.9069,-3.927,-3.9383,-3.9383,-3.9597,-3.9697,-3.9697,-4.0049,-4.0212,-4.0224,-4.0777,-4.1216,-4.1622,-4.2037,-4.2401,-4.274,-4.2898,-4.2974,0.0,0.0,0.0,0.0,0.0,0.0,0.0,0.0,-4.2974,0.0,0.0,0.0,-4.2974,-4.2974,-4.2974,-4.2974,-4.2974,-4.2974,-4.3062,-4.3401,0.0,0.0,0.0,0.0,0.0,0.0,0.0,0.0,0.0,0.0,0.0,0.0,-4.6175,-4.6313,-4.6313,-4.6313,-4.6313,-4.6313,-4.6313,-4.6313,-4.6313,-4.6313,-4.6313,-4.6313,-4.6313,-4.6313,-4.6313,-4.6313,-4.6313,-4.6313,-4.6313,-4.6313,-4.6313,-4.6313,-4.6313,-4.6313,-4.6313,-4.6313,-4.6313,-4.6313,-4.6313,-4.6313,-4.6313,-4.6313,-4.6313,-4.6313,-4.6313,-4.6313,-4.6313,-4.6313,-4.6313,-4.6313,-4.6313,-4.6313,0.0,0.0,0.0,0.0,0.0,0.0,0.0,0.0,0.0,0.0,0.0,0.0,0.0,0.0,0.0,0.0,0.0,0.0,-4.0402,-4.0044,-3.9839,-3.9839,-3.9736,-3.9697,-3.9697,-3.9697,-3.9697,-3.9697,-3.9697,-3.9785,-3.9961,-4.0337,-4.0614,-4.0802,-4.1354,-4.1806,-4.2213,-4.2401,-4.269,-4.2974,-4.2974,-4.2974,0.0,0.0,0.0,0.0,0.0,0.0,0.0,0.0,0.0,0.0,0.0,0.0,0.0,0.0,-4.2974,-4.3024,-4.3187,-4.3237,-4.3376,0.0,0.0,0.0,0.0,0.0,0.0,0.0,0.0,0.0,0.0,0.0,0.0,0.0,-4.6313,-4.6313,-4.6313,-4.6313,-4.6313,-4.6313,-4.6313,-4.6313,-4.6313,-4.6313,-4.6313,-4.6313,-4.6313,-4.6313,-4.6313,-4.6313,-4.6313,-4.6313,-4.6313,-4.6313,-4.6313,-4.6313,-4.6313,-4.6313,-4.6313,-4.6313,-4.6313,-4.6313,-4.6313,-4.6313,-4.6313,-4.6313,-4.6313,-4.6313,-4.6313,-4.6313,-4.6313,-4.6313,-4.6313,-4.6313,-4.6313,-4.6313,0.0,0.0,0.0,0.0,0.0,0.0,0.0,0.0,0.0,0.0,0.0,0.0,0.0,0.0,0.0,0.0,0.0,0.0,-4.0134,-4.007,-4.007,-4.007,-3.9839,-3.9697,-3.9697,-3.9697,-3.9697,-3.9697,-3.9697,-3.9986,-4.0513,-4.0526,-4.0827,-4.1313,-4.1919,-4.2213,-4.225,-4.2748,-4.2974,-4.2974,-4.2974,-4.2974,-4.2974,0.0,0.0,0.0,0.0,0.0,0.0,0.0,0.0,0.0,0.0,0.0,0.0,0.0,-4.2986,-4.3112,-4.3664,-4.3815,0.0,0.0,0.0,0.0,0.0,0.0,0.0,0.0,0.0,0.0,0.0,0.0,0.0,-4.6313,-4.6313,-4.6313,-4.6313,-4.6313,-4.6313,-4.6313,-4.6313,-4.6313,-4.6313,-4.6313,-4.6313,-4.6313,-4.6313,-4.6313,-4.6313,-4.6313,-4.6313,-4.6313,-4.6313,-4.6313,-4.6313,-4.6313,-4.6313,-4.6313,-4.6313,-4.6313,-4.6313,-4.6313,-4.6313,-4.6313,-4.6313,-4.6313,-4.6313,-4.6313,-4.6313,-4.6313,-4.6313,-4.6313,-4.6313,-4.6313,-4.6313,-4.6313,0.0,0.0,0.0,0.0,0.0,0.0,0.0,0.0,0.0,0.0,0.0,0.0,0.0,0.0,0.0,0.0,0.0,0.0,-4.0389,-4.0044,-3.9839,-3.9839,-3.9736,-3.9697,-3.9697,-4.0074,-4.0086,-3.9697,-4.0086,-4.0362,-4.0538,-4.1304,-4.1756,-4.1932,-4.2484,-4.2791,-4.2748,-4.2911,-4.2974,-4.2974,-4.2974,-4.2974,-4.2974,0.0,0.0,0.0,0.0,0.0,0.0,0.0,0.0,0.0,0.0,0.0,0.0,0.0,-4.3827,-4.4166,-4.433,0.0,0.0,0.0,0.0,0.0,0.0,0.0,0.0,0.0,0.0,0.0,-4.6313,-4.6313,-4.6313,-4.6313,-4.6313,-4.6313,-4.6313,-4.6313,-4.6313,-4.6313,-4.6313,-4.6313,-4.6313,-4.6313,-4.6313,-4.6313,-4.6313,-4.6313,-4.6313,-4.6313,-4.6313,-4.6313,-4.6313,-4.6313,-4.6313,-4.6313,-4.6313,-4.6313,-4.6313,-4.6313,-4.6313,-4.6313,-4.6313,-4.6313,-4.6313,-4.6313,-4.6313,-4.6313,-4.6313,-4.6313,-4.6313,-4.6313,-4.6313,-4.6313,-4.6313,-4.6313,0.0,0.0,0.0,0.0,0.0,0.0,0.0,0.0,0.0,0.0,0.0,0.0,0.0,0.0,0.0,0.0,0.0,0.0,0.0,-4.0032,-3.9788,-3.9697,-3.9697,-3.9798,-4.0011,-4.0337,-4.0463,-4.035,-4.0676,-4.0953,-4.1178,-4.1898,-4.2326,-4.2552,-4.2891,-4.2974,-4.2974,-4.2974,-4.2974,-4.2974,-4.2974,-4.2974,0.0,0.0,0.0,0.0,0.0,0.0,0.0,0.0,0.0,0.0,0.0,0.0,0.0,-4.4129,-4.4367,-4.4669,0.0,0.0,0.0,0.0,0.0,0.0,0.0,0.0,0.0,0.0,0.0,0.0,-4.6313,-4.6313,-4.6313,-4.6313,-4.6313,-4.6313,-4.6313,-4.6313,-4.6313,-4.6313,-4.6313,-4.6313,-4.6313,-4.6313,-4.6313,-4.6313,-4.6313,-4.6313,-4.6313,-4.6313,-4.6313,-4.6313,-4.6313,-4.6313,-4.6313,-4.6313,-4.6313,-4.6313,-4.6313,-4.6313,-4.6313,-4.6313,-4.6313,-4.6313,-4.6313,-4.6313,-4.6313,-4.6313,-4.6313,-4.6313,-4.6313,-4.6313,-4.6313,-4.6313,-4.6313,-4.6313,0.0,0.0,0.0,0.0,0.0,0.0,0.0,0.0,0.0,0.0,0.0,0.0,0.0,0.0,0.0,0.0,0.0,0.0,0.0,0.0,-4.0006,-3.9812,-3.9823,-4.0074,-4.0576,-4.0639,-4.0915,-4.1363,-4.1363,-4.1668,-4.2213,-4.2263,-4.2552,-4.2974,-4.2974,-4.2974,-4.2974,-4.2974,-4.2974,-4.2974,-4.2974,-4.2974,-4.2974,0.0,0.0,0.0,0.0,0.0,0.0,0.0,0.0,0.0,0.0,0.0,0.0,-4.4706,-4.4731,0.0,0.0,0.0,0.0,0.0,0.0,0.0,0.0,0.0,0.0,0.0,0.0,-4.6313,-4.6313,-4.6313,-4.6313,-4.6313,-4.6313,-4.6313,-4.6313,-4.6313,-4.6313,-4.6313,-4.6313,-4.6313,-4.6313,-4.6313,-4.6313,-4.6313,-4.6313,-4.6313,-4.6313,-4.6313,-4.6313,-4.6313,-4.6313,-4.6313,-4.6313,-4.6313,-4.6313,-4.6313,-4.6313,-4.6313,-4.6313,-4.6313,-4.6313,-4.6313,-4.6313,-4.6313,-4.6313,-4.6313,-4.6313,-4.6313,-4.6313,-4.6313,-4.6313,-4.6313,-4.6313,-4.6313,0.0,0.0,0.0,0.0,0.0,0.0,0.0,0.0,0.0,0.0,0.0,0.0,0.0,0.0,0.0,0.0,0.0,0.0,0.0,0.0,-4.0273,-4.0613,-4.0857,-4.0987,-4.1112,-4.158,-4.1911,-4.2037,-4.2037,-4.2087,-4.2213,-4.2652,-4.2861,-4.2974,-4.2974,-4.2974,-4.2974,-4.2974,-4.2974,-4.2974,-4.2974,-4.2974,-4.2974,-4.2974,-4.2974,0.0,0.0,0.0,0.0,0.0,0.0,0.0,0.0,-4.4844,-4.5296,-4.5296,-4.561,0.0,0.0,0.0,0.0,0.0,0.0,0.0,0.0,0.0,0.0,0.0,0.0,-4.6313,-4.6313,-4.6313,-4.6313,-4.6313,-4.6313,-4.6313,-4.6313,-4.6313,-4.6313,-4.6313,-4.6313,-4.6313,-4.6313,-4.6313,-4.6313,-4.6313,-4.6313,-4.6313,-4.6313,-4.6313,-4.6313,-4.6313,-4.6313,-4.6313,-4.6313,-4.6313,-4.6313,-4.6313,-4.6313,-4.6313,-4.6313,-4.6313,-4.6313,-4.6313,-4.6313,-4.6313,-4.6313,-4.6313,-4.6313,-4.6313,-4.6313,-4.6313,-4.6313,-4.6313,-4.6313,-4.6313,0.0,0.0,0.0,0.0,0.0,0.0,0.0,0.0,0.0,0.0,0.0,0.0,0.0,0.0,0.0,0.0,0.0,0.0,0.0,0.0,-4.1542,-4.1866,-4.203,-4.2206,-4.2475,-4.2823,-4.2847,-4.2602,-4.2602,-4.2602,-4.2615,-4.2848,-4.2974,-4.2974,-4.2974,-4.2974,-4.2974,-4.2974,-4.2974,-4.2974,-4.2974,-4.2974,-4.3011,-4.3275,-4.3376,-4.3413,-4.3664,0.0,0.0,0.0,0.0,0.0,0.0,0.0,-4.5886,-4.5886,-4.6087,0.0,0.0,0.0,0.0,0.0,0.0,0.0,0.0,0.0,0.0,0.0,-4.6313,-4.6313,-4.6313,-4.6313,-4.6313,-4.6313,-4.6313,-4.6313,-4.6313,-4.6313,-4.6313,-4.6313,-4.6313,-4.6313,-4.6313,-4.6313,-4.6313,-4.6313,-4.6313,-4.6313,-4.6313,-4.6313,-4.6313,-4.6313,-4.6313,-4.6313,-4.6313,-4.6313,-4.6313,-4.6313,-4.6313,-4.6313,-4.6313,-4.6313,-4.6313,-4.6313,-4.6313,-4.6313,-4.6313,-4.6313,-4.6313,-4.6313,-4.6313,-4.6313,-4.6313,-4.6313,-4.6313,-4.6313,0.0,0.0,0.0,0.0,0.0,0.0,0.0,0.0,0.0,0.0,0.0,0.0,0.0,0.0,0.0,0.0,0.0,0.0,0.0,0.0,0.0,-4.3205,-4.3414,-4.3704,-4.3925,-4.4137,-4.3905,-4.3295,-4.3295,-4.3197,0.0,-4.3184,-4.3197,-4.303,-4.3197,-4.3197,-4.2974,-4.2974,-4.3037,-4.3124,-4.3124,-4.3175,-4.3313,-4.3765,-4.394,-4.4003,-4.4455,-4.4681,-4.4769,-4.4769,0.0,0.0,0.0,0.0,-4.6313,-4.6313,-4.6313,-4.6313,0.0,0.0,0.0,0.0,0.0,0.0,0.0,0.0,0.0,0.0,-4.6313,-4.6313,-4.6313,-4.6313,-4.6313,-4.6313,-4.6313,-4.6313,-4.6313,-4.6313,-4.6313,-4.6313,-4.6313,-4.6313,-4.6313,-4.6313,-4.6313,-4.6313,-4.6313,-4.6313,-4.6313,-4.6313,-4.6313,-4.6313,-4.6313,-4.6313,-4.6313,-4.6313,-4.6313,-4.6313,-4.6313,-4.6313,-4.6313,-4.6313,-4.6313,-4.6313,-4.6313,-4.6313,-4.6313,-4.6313,-4.6313,-4.6313,-4.6313,-4.6313,-4.6313,-4.6313,-4.6313,-4.6313,0.0,0.0,0.0,0.0,0.0,0.0,0.0,0.0,0.0,0.0,0.0,0.0,0.0,0.0,0.0,0.0,0.0,0.0,0.0,0.0,0.0,-4.4072,-4.5179,-4.5461,-4.4606,-4.5488,-4.5475,-4.4466,-4.4466,0.0,0.0,0.0,0.0,-4.303,-4.4042,-4.3932,-4.2974,-4.2974,-4.3263,-4.3689,-4.3689,-4.3978,-4.4405,-4.448,-4.4518,-4.4518,-4.4593,-4.4945,-4.5372,-4.5372,-4.5736,0.0,0.0,0.0,-4.6313,-4.6313,-4.6313,0.0,0.0,0.0,0.0,0.0,0.0,0.0,0.0,0.0,0.0,0.0,-4.6313,-4.6313,-4.6313,-4.6313,-4.6313,-4.6313,-4.6313,-4.6313,-4.6313,-4.6313,-4.6313,-4.6313,-4.6313,-4.6313,-4.6313,-4.6313,-4.6313,-4.6313,-4.6313,-4.6313,-4.6313,-4.6313,-4.6313,-4.6313,-4.6313,-4.6313,-4.6313,-4.6313,-4.6313,-4.6313,-4.6313,-4.6313,-4.6313,-4.6313,-4.6313,-4.6313,-4.6313,-4.6313,-4.6313,-4.6313,-4.6313,-4.6313,-4.6313,-4.6313,-4.6313,-4.6313,-4.6313,-4.6313,0.0,0.0,0.0,0.0,0.0,0.0,0.0,0.0,0.0,0.0,0.0,0.0,0.0,0.0,0.0,0.0,0.0,0.0,0.0,0.0,0.0,-4.6582,-4.7151,-4.7215,-4.6556,-4.7023,-4.6712,-4.5608,0.0,0.0,0.0,-4.57,-4.4983,0.0,0.0,-4.421,-4.3438,-4.3438,-4.3765,-4.4267,-4.4267,-4.4405,-4.4656,-4.4982,-4.5108,-4.5146,-4.546,-4.5736,-4.5949,-4.5949,-4.6112,-4.6313,-4.6313,0.0,0.0,0.0,-4.6313,0.0,0.0,0.0,0.0,0.0,0.0,0.0,0.0,0.0,0.0,-4.6313,-4.6313,-4.6313,-4.6313,-4.6313,-4.6313,-4.6313,-4.6313,-4.6313,-4.6313,-4.6313,-4.6313,-4.6313,-4.6313,-4.6313,-4.6313,-4.6313,-4.6313,-4.6313,-4.6313,-4.6313,-4.6313,-4.6313,-4.6313,-4.6313,-4.6313,-4.6313,-4.6313,-4.6313,-4.6313,-4.6313,-4.6313,-4.6313,-4.6313,-4.6313,-4.6313,-4.6313,-4.6313,-4.6313,-4.6313,-4.6313,-4.6313,-4.6313,-4.6313,-4.6313,-4.6313,-4.6313,-4.6313,-4.6313,0.0,0.0,0.0,0.0,0.0,0.0,0.0,0.0,0.0,0.0,0.0,0.0,0.0,0.0,0.0,0.0,0.0,0.0,0.0,0.0,0.0,-4.8482,-4.8696,-4.856,-4.8021,-4.8288,-4.7855,-4.675,0.0,0.0,-4.6577,-4.6813,-4.6013,0.0,-4.4895,-4.4865,-4.4446,-4.4118,-4.433,-4.4844,-4.4844,-4.4932,-4.5095,-4.5535,-4.5698,-4.5748,-4.6163,-4.6313,-4.6313,-4.6313,-4.6313,-4.6313,-4.6313,-4.6313,0.0,0.0,0.0,0.0,0.0,0.0,0.0,0.0,0.0,0.0,0.0,0.0,0.0,0.0,-4.6313,-4.6313,-4.6313,-4.6313,-4.6313,-4.6313,-4.6313,-4.6313,-4.6313,-4.6313,-4.6313,-4.6313,-4.6313,-4.6313,-4.6313,-4.6313,-4.6313,-4.6313,-4.6313,-4.6313,-4.6313,-4.6313,-4.6313,-4.6313,-4.6313,-4.6313,-4.6313,-4.6313,-4.6313,-4.6313,-4.6313,-4.6313,-4.6313,-4.6313,-4.6313,-4.6313,-4.6313,-4.6313,-4.6313,-4.6313,-4.6313,-4.6313,-4.6313,-4.6313,-4.6313,-4.6313,-4.6313,-4.6313,0.0,0.0,0.0,0.0,0.0,0.0,0.0,0.0,0.0,0.0,0.0,0.0,-4.7724,-4.7724,-4.836,-4.9938,-5.009,0.0,0.0,0.0,0.0,-4.8859,-4.9556,0.0,-4.8021,-4.905,-4.905,0.0,0.0,0.0,-4.7215,-4.6623,-4.693,-4.7988,-4.6737,-4.626,-4.6174,-4.5017,-4.4907,-4.5447,-4.5447,-4.5761,-4.6225,-4.625,-4.6276,-4.6276,-4.6301,-4.6313,-4.6313,-4.6313,-4.6313,-4.6313,-4.6313,-4.6313,-4.6313,0.0,0.0,0.0,0.0,0.0,0.0,0.0,0.0,0.0,0.0,0.0,0.0,-4.6313,-4.6313,-4.6313,-4.6313,-4.6313,-4.6313,-4.6313,-4.6313,-4.6313,-4.6313,-4.6313,-4.6313,-4.6313,-4.6313,-4.6313,-4.6313,-4.6313,-4.6313,-4.6313,-4.6313,-4.6313,-4.6313,-4.6313,-4.6313,-4.6313,-4.6313,-4.6313,-4.6313,-4.6313,-4.6313,-4.6313,-4.6313,-4.6313,-4.6313,-4.6313,-4.6313,-4.6313,-4.6313,-4.6313,-4.6313,-4.6313,-4.6313,-4.6313,-4.6313,-4.6313,-4.6313,-4.6313,-4.6313,-4.6313,0.0,0.0,0.0,0.0,0.0,0.0,0.0,0.0,0.0,0.0,0.0,0.0,0.0,-4.9969,-5.0213,-5.0794,-5.0823,0.0,0.0,0.0,0.0,-4.9912,-5.0023,-4.9781,-4.91,-4.9892,0.0,0.0,0.0,-4.9657,-4.8908,-4.9088,-4.905,-4.8694,-4.7044,-4.6534,-4.6874,-4.5672,-4.5497,-4.6012,-4.6012,-4.6137,-4.6313,-4.6313,-4.6313,-4.6313,-4.6313,-4.6313,-4.6313,-4.6313,-4.6313,-4.6313,-4.6313,-4.6313,-4.6313,-4.6313,-4.6313,0.0,0.0,0.0,0.0,0.0,0.0,0.0,0.0,0.0,-4.6313,-4.6313,-4.6313,-4.6313,-4.6313,-4.6313,-4.6313,-4.6313,-4.6313,-4.6313,-4.6313,-4.6313,-4.6313,-4.6313,-4.6313,-4.6313,-4.6313,-4.6313,-4.6313,-4.6313,-4.6313,-4.6313,-4.6313,-4.6313,-4.6313,-4.6313,-4.6313,-4.6313,-4.6313,-4.6313,-4.6313,-4.6313,-4.6313,-4.6313,-4.6313,-4.6313,-4.6313,-4.6313,-4.6313,-4.6313,-4.6313,-4.6313,-4.6313,-4.6313,-4.6313,-4.6313,-4.6313,-4.6313,-4.6313,-4.6313,0.0,0.0,0.0,0.0,0.0,0.0,0.0,0.0,-5.1073,-5.0713,0.0,0.0,0.0,0.0,-5.1214,-5.1214,-5.1214,-5.1214,-5.1214,-5.122,-5.1101,-5.081,-5.0871,-5.0681,-5.0336,-5.0757,0.0,0.0,0.0,0.0,0.0,-5.0549,-5.0284,-4.9858,-4.8244,-4.7791,0.0,0.0,-4.62,-4.6862,-4.6481,-4.6313,-4.6313,-4.6313,-4.6313,-4.6313,-4.6313,-4.6313,-4.6313,-4.6313,-4.6313,-4.6313,-4.6313,-4.6313,-4.6313,-4.6313,-4.6313,-4.6313,0.0,0.0,0.0,0.0,0.0,0.0,0.0,0.0,-4.6313,-4.6313,-4.6313,-4.6313,-4.6313,-4.6313,-4.6313,-4.6313,-4.6313,-4.6313,-4.6313,-4.6313,-4.6313,-4.6313,-4.6313,-4.6313,-4.6313,-4.6313,-4.6313,-4.6313,-4.6313,-4.6313,-4.6313,-4.6313,-4.6313,-4.6313,-4.6313,-4.6313,-4.6313,-4.6313,-4.6313,-4.6313,-4.6313,-4.6313,-4.6313,-4.6313,-4.6313,-4.6313,-4.6313,-4.6313,-4.6313,-4.6313,-4.6313,-4.6313,-4.6313,-4.6313,-4.6313,-4.6313,-4.6313,-4.6313,0.0,0.0,0.0,0.0,0.0,0.0,0.0,0.0,-5.0822,-4.9771,0.0,0.0,0.0,0.0,0.0,-5.1244,-5.1244,-5.1259,-5.1274,-5.1872,-5.1977,-5.1444,-5.2028,-5.2117,-5.1614,0.0,0.0,0.0,0.0,0.0,0.0,0.0,-5.0573,-5.1579,-5.0406,-4.9858,-4.9745,0.0,-4.704,-4.7919,-4.6755,-4.6313,-4.6313,-4.6313,-4.6313,-4.6313,-4.6313,-4.6313,-4.6313,-4.6313,-4.6313,-4.6313,-4.6313,-4.6313,-4.6313,-4.6313,-4.6313,-4.6313,0.0,0.0,0.0,0.0,0.0,0.0,0.0,0.0,-4.6313,-4.6313,-4.6313,-4.6313,-4.6313,-4.6313,-4.6313,-4.6313,-4.6313,-4.6313,-4.6313,-4.6313,-4.6313,-4.6313,-4.6313,-4.6313,-4.6313,-4.6313,-4.6313,-4.6313,-4.6313,-4.6313,-4.6313,-4.6313,-4.6313,-4.6313,-4.6313,-4.6313,-4.6313,-4.6313,-4.6313,-4.6313,-4.6313,-4.6313,-4.6313,-4.6313,-4.6313,-4.6313,-4.6313,-4.6313,-4.6313,-4.6313,-4.6313,-4.6313,-4.6313,-4.6313,-4.6313,-4.6313,-4.6313,-4.6313,0.0,0.0,0.0,0.0,0.0,-5.0665,-5.0364,-5.0807,-5.1073,0.0,0.0,0.0,-5.1214,-5.1214,-5.1409,-5.1887,-5.1932,-5.2127,-5.2606,-5.2475,-5.23,-5.2137,-5.1929,-5.1765,-5.1614,-5.2078,0.0,0.0,0.0,0.0,0.0,0.0,0.0,0.0,-4.9106,-4.9062,-4.9802,-4.8268,-4.7311,-4.6755,-4.6421,-4.6313,-4.6313,-4.6313,-4.6313,-4.6313,-4.6313,-4.6313,-4.6313,-4.6313,-4.6313,-4.6313,-4.6313,-4.6313,-4.6313,-4.6313,-4.6313,-4.6313,-4.6313,0.0,0.0,0.0,0.0,0.0,-4.6313,0.0,-4.6313,-4.6313,-4.6313,-4.6313,-4.6313,-4.6313,-4.6313,-4.6313,-4.6313,-4.6313,-4.6313,-4.6313,-4.6313,-4.6313,-4.6313,-4.6313,-4.6313,-4.6313,-4.6313,-4.6313,-4.6313,-4.6313,-4.6313,-4.6313,-4.6313,-4.6313,-4.6313,-4.6313,-4.6313,-4.6313,-4.6313,-4.6313,-4.6313,-4.6313,-4.6313,-4.6313,-4.6313,-4.6313,-4.6313,-4.6313,-4.6313,-4.6313,-4.6313,-4.6313,-4.6313,-4.6313,-4.6313,-4.6313,-4.6313,-4.6313,0.0,0.0,0.0,0.0,0.0,-5.1214,-5.1214,-5.1214,-5.1214,0.0,0.0,0.0,-5.1603,-5.1872,-5.2187,-5.2576,-5.2606,-5.277,-5.3159,-5.3164,-5.3079,-5.2965,-5.2813,-5.2654,-5.2552,-5.2812,-5.2963,-5.2963,0.0,0.0,-5.2434,-5.1415,-5.0851,0.0,0.0,0.0,0.0,0.0,-4.889,-4.7723,-4.6708,-4.6588,-4.6981,-4.6481,-4.6313,-4.6313,-4.6313,-4.6313,-4.6313,-4.6313,-4.6313,-4.6313,-4.6313,-4.6313,-4.6313,-4.6313,-4.6313,-4.6313,-4.6313,-4.6313,-4.6313,-4.6313,0.0,0.0,-4.6313,-4.6313,-4.6313,0.0,-4.6313,-4.6313,-4.6313,-4.6313,-4.6313,-4.6313,-4.6313,-4.6313,-4.6313,-4.6313,-4.6313,-4.6313,-4.6313,-4.6313,-4.6313,-4.6313,-4.6313,-4.6313,-4.6313,-4.6313,-4.6313,-4.6313,-4.6313,-4.6313,-4.6313,-4.6313,-4.6313,-4.6313,-4.6313,-4.6313,-4.6313,-4.6313,-4.6313,-4.6313,-4.6313,-4.6313,-4.6313,-4.6313,-4.6313,-4.6313,-4.6313,-4.6313,-4.6313,-4.6313,-4.6313,-4.6313,-4.6313,-4.6313,0.0,0.0,-5.1214,-5.1214,-5.1214,-5.1214,-5.1214,-5.1214,-5.1244,0.0,-5.1394,-5.1663,-5.2247,-5.283,-5.3219,-5.3279,-5.3294,-5.3324,-5.335,-5.3933,-5.4147,-5.3882,-5.4162,-5.4149,-5.3904,-5.3658,-5.3515,-5.3515,-5.2434,-5.2366,-5.3223,-5.1086,-5.0573,-5.147,0.0,0.0,0.0,0.0,-5.0629,-4.9689,-4.7442,-4.7027,-4.7756,-4.6695,-4.6313,-4.6313,-4.6313,-4.6313,-4.6313,-4.6313,-4.6313,-4.6313,-4.6313,-4.6313,-4.6313,-4.6313,-4.6313,-4.6313,-4.6313,-4.6313,-4.6313,-4.6313,-4.6313,0.0,-4.6313,-4.6313,-4.6313,-4.6313,-4.6313,-4.6313,-4.6313,-4.6313,-4.6313,-4.6313,-4.6313,-4.6313,-4.6313,-4.6313,-4.6313,-4.6313,-4.6313,-4.6313,-4.6313,-4.6313,-4.6313,-4.6313,-4.6313,-4.6313,-4.6313,-4.6313,-4.6313,-4.6313,-4.6313,-4.6313,-4.6313,-4.6313,-4.6313,-4.6313,-4.6313,-4.6313,-4.6313,-4.6313,-4.6313,-4.6313,-4.6313,-4.6313,-4.6313,-4.6313,-4.6313,-4.6313,-4.6313,-4.6313,-4.6313,-4.6313,-4.6313,-4.6313,0.0,-5.1214,-5.1214,-5.1214,-5.1214,-5.1214,-5.1214,-5.1214,-5.1409,-5.1932,-5.2471,-5.2845,-5.298,-5.3099,-5.3414,-5.3967,-5.3997,-5.4137,-5.4473,-5.4637,-5.4529,-5.4229,-5.4281,-5.4149,-5.3904,-5.3852,-5.371,-5.3515,-5.3275,-5.2769,-5.2028,-5.1579,-5.0962,-5.0196,0.0,0.0,0.0,0.0,-4.8339,-4.9802,-4.8326,-4.7311,-4.6648,-4.6361,-4.6313,-4.6313,-4.6313,-4.6313,-4.6313,-4.6313,-4.6313,-4.6313,-4.6313,-4.6313,-4.6313,-4.6313,-4.6313,-4.6313,-4.6313,-4.6313,-4.6313,-4.6313,-4.6313,0.0,-4.6313,-4.6313,-4.6313,0.0,-4.6313,-4.6313,-4.6313,-4.6313,-4.6313,-4.6313,-4.6313,-4.6313,-4.6313,-4.6313,-4.6313,-4.6313,-4.6313,-4.6313,-4.6313,-4.6313,-4.6313,-4.6313,-4.6313,-4.6313,-4.6313,-4.6313,-4.6313,-4.6313,-4.6313,-4.6313,-4.6313,-4.6313,-4.6313,-4.6313,-4.6313,-4.6313,-4.6313,-4.6313,-4.6313,-4.6313,-4.6313,-4.6313,-4.6313,-4.6313,-4.6313,-4.6313,-4.6313,-4.6313,-4.6313,-4.6313,-4.6313,-4.6313,-5.1214,-5.1214,-5.1214,-5.1214,-5.1214,-5.1334,-5.1663,-5.1708,-5.1947,-5.2606,-5.3279,-5.3698,-5.3698,-5.3982,-5.4326,-5.467,-5.47,-5.4785,-5.4976,-5.4991,-5.4875,-5.4553,-5.437,-5.4252,-5.4097,-5.3867,-5.371,-5.371,-5.2929,-5.2312,-5.1688,-5.1072,-5.0462,-4.9858,0.0,0.0,0.0,0.0,-4.812,-4.8061,-4.7429,-4.7205,-4.7146,-4.6528,-4.6313,-4.6313,-4.6313,-4.6313,-4.6313,-4.6313,-4.6313,-4.6313,-4.6313,-4.6313,-4.6313,-4.6313,-4.6313,-4.6313,-4.6313,-4.6313,-4.6313,-4.6313,-4.6313,0.0,0.0,-4.6313,-4.6313,-4.6313,-4.6313,-4.6313,-4.6313,-4.6313,-4.6313,-4.6313,-4.6313,-4.6313,-4.6313,-4.6313,-4.6313,-4.6313,-4.6313,-4.6313,-4.6313,-4.6313,-4.6313,-4.6313,-4.6313,-4.6313,-4.6313,-4.6313,-4.6373,-4.6554,-4.6373,-4.6373,-4.6554,-4.6373,-4.6313,-4.6313,-4.6313,-4.6313,-4.6313,-4.6313,-4.6313,-4.6313,-4.6313,-4.6313,-4.6313,-4.6313,-4.6313,-4.6313,-4.6313,-4.6313,-4.6313,-4.6313,-4.6313,-4.6313,-5.1244,-5.1319,-5.1409,-5.1409,-5.1513,-5.1768,-5.2306,-5.2381,-5.2621,-5.3294,-5.3918,-5.4301,-5.4301,-5.4764,-5.4911,-5.4692,-5.4692,-5.4692,-5.4692,-5.4743,-5.4758,-5.4737,-5.4487,-5.437,-5.4252,-5.3815,-5.3658,-5.38,-5.2405,-5.1634,-5.1415,-5.0629,-4.9915,-4.9304,0.0,0.0,0.0,0.0,-4.8223,-4.6648,-4.6361,-4.704,-4.7977,-4.6755,-4.6421,-4.6648,-4.6361,-4.6313,-4.6313,-4.6313,-4.6313,-4.6313,-4.6313,-4.6313,-4.6313,-4.6313,-4.6313,-4.6313,-4.6313,-4.6313,-4.6313,-4.6313,-4.6313,-4.6313,0.0,0.0,0.0,-4.6313,-4.6313,-4.6313,-4.6313,-4.6313,-4.6313,-4.6313,-4.6313,-4.6313,-4.6313,-4.6313,-4.6313,-4.6313,-4.6313,-4.6313,-4.6313,-4.6313,-4.6313,-4.6313,-4.6313,-4.6313,-4.6313,-4.6373,-4.6494,-4.6806,-4.6614,-4.6601,-4.6806,-4.6554,-4.6373,-4.6313,-4.6313,-4.6313,-4.6313,-4.6313,-4.6313,-4.6313,-4.6313,-4.6313,-4.6313,-4.6313,-4.6313,-4.6313,-4.6313,-4.6313,-4.6313,-4.6313,-4.6313,-4.6313,-5.1334,-5.1693,-5.2097,-5.2097,-5.2576,-5.298,-5.3054,-5.3069,-5.3309,-5.3997,-5.447,-5.4735,-5.4735,-5.4545,-5.3964,-5.291,-5.2804,-5.2804,-5.2804,-5.3083,-5.3571,-5.4304,-5.4605,-5.4517,-5.3956,-5.3904,-5.3762,-5.3568,-5.2312,-5.132,-5.0573,-5.121,-4.9915,-4.7244,-4.9076,0.0,0.0,0.0,-4.7146,-4.7815,-4.6755,-4.704,-4.7977,-4.6755,-4.6981,-4.7756,-4.6695,-4.6313,-4.6313,-4.6313,-4.6313,-4.6313,-4.6313,-4.6313,-4.6313,-4.6313,-4.6313,-4.6313,-4.6313,-4.6313,-4.6313,-4.6313,-4.6313,-4.6313,-4.6313,0.0,-4.6313,-4.6313,0.0,-4.6313,-4.6313,0.0,0.0,-4.6313,-4.6313,-4.6313,-4.6313,-4.6313,-4.6313,-4.6313,-4.6313,-4.6313,-4.6313,-4.6313,-4.6313,-4.6313,-4.6313,-4.6313,-4.6313,-4.6554,-4.6746,-4.6806,-4.6993,-4.6993,-4.6806,-4.6746,-4.6614,-4.6313,-4.6313,-4.6313,-4.6313,-4.6313,-4.6313,-4.6313,-4.6313,-4.6313,-4.6313,-4.6313,-4.6313,-4.6313,-4.6313,-4.6313,-4.6313,-4.6313,-4.6313,-4.6313,-5.2411,-5.2576,-5.277,-5.277,-5.2995,-5.3309,-5.3713,-5.4102,-5.4446,-5.4745,-5.4929,-5.5042,-5.5042,-5.4773,-5.4385,-5.389,-5.3652,-5.3518,-5.3518,-5.3875,-5.4045,-5.406,-5.4517,-5.4568,-5.4149,-5.4149,-5.4164,-5.4259,-5.2876,-5.1662,-5.0657,-5.1072,-4.9673,-4.6853,-4.8411,0.0,-4.704,0.0,-4.6588,-4.704,-4.6481,-4.704,-4.7977,-4.6755,-4.6588,-4.6981,-4.6481,-4.6313,-4.6313,-4.6313,-4.6313,-4.6313,-4.6313,-4.6313,-4.6313,-4.6313,-4.6313,-4.6313,-4.6313,-4.6313,-4.6313,-4.6313,-4.6313,-4.6313,-4.6313,-4.6313,-4.6313,-4.6313,0.0,0.0,0.0,0.0,0.0,0.0,-4.6313,-4.6313,-4.6313,-4.6313,-4.6313,-4.6313,-4.6313,-4.6313,-4.6313,-4.6313,-4.6313,-4.6313,-4.6313,-4.6373,-4.6554,-4.6733,-4.6972,-4.7303,-4.7066,-4.7006,-4.7053,-4.6661,-4.6434,-4.6313,-4.6313,-4.6313,-4.6313,-4.6313,-4.6313,-4.6313,-4.6313,-4.6313,-4.6313,-4.6313,-4.6313,-4.6313,-4.6313,-4.6313,-4.6313,-4.6313,-4.6313,-4.6313,-5.3698,-5.3593,-5.3458,-5.3458,-5.3608,-5.3892,-5.4401,-5.488,-5.5194,-5.5194,-5.5143,-5.5093,-5.5093,-5.4451,-5.3904,-5.3614,-5.2977,-5.263,-5.2683,-5.3308,-5.3442,-5.2953,-5.3785,-5.3956,-5.327,-5.3218,-5.3404,-5.371,-5.2218,-5.1169,-5.042,-5.0419,-4.9186,-4.7078,0.0,-4.7795,-4.6434,0.0,-4.6313,-4.6313,-4.6313,-4.6815,-4.7534,-4.6981,-4.6588,-4.6313,-4.6313,-4.6313,-4.6313,-4.6313,-4.6313,-4.6313,-4.6313,-4.6313,-4.6313,-4.6313,-4.6313,-4.6313,-4.6313,-4.6313,-4.6313,-4.6313,-4.6313,-4.6313,-4.6313,-4.6313,-4.6313,-4.6313,-4.6313,0.0,0.0,0.0,-4.6313,-4.6313,0.0,-4.6313,-4.6313,-4.6313,-4.6313,-4.6313,-4.6313,-4.6313,-4.6313,-4.6313,-4.6313,-4.6313,-4.6313,-4.6434,-4.6673,-4.684,-4.7066,-4.7409,-4.7257,-4.7125,-4.71,-4.6708,-4.6481,-4.6313,-4.6313,-4.6313,-4.6313,-4.6313,-4.6313,-4.6313,-4.6313,-4.6313,-4.6313,-4.6313,-4.6313,-4.6313,-4.6313,-4.6313,-4.6313,-4.6313,-4.6313,-4.6313,-5.4999,-5.461,-5.4177,-5.4177,-5.47,-5.5134,-5.5149,-5.5179,-5.5194,-5.5194,-5.4991,-5.4788,-5.4788,-5.3246,-5.1729,-5.0532,-4.915,-4.8429,-4.8647,-5.0058,-5.0727,-5.0421,-5.2108,-5.2258,-5.0573,-5.0517,-5.0698,-5.1017,-4.9502,-4.8988,-4.9516,-4.9301,-4.8611,-4.769,-4.8308,-4.7912,-4.6746,-4.6434,-4.6313,-4.6313,-4.6313,-4.6313,-4.6481,-4.7593,-4.7311,-4.6313,-4.6313,-4.6313,-4.6313,-4.6313,-4.6313,-4.6313,-4.6313,-4.6313,-4.6313,-4.6313,-4.6313,-4.6313,-4.6313,-4.6313,-4.6313,-4.6313,-4.6313,-4.6313,-4.6313,-4.6313,-4.6313,-4.6313,-4.6313,-4.6313,-4.6313,-4.6313,-4.6313,-4.6313,-4.6313,0.0,0.0,-4.6313,-4.6313,-4.6313,-4.6313,-4.6313,-4.6313,-4.6313,-4.6313,-4.6313,-4.6313,-4.6313,-4.6313,-4.6862,-4.7053,-4.6853,-4.767,-4.7716,-4.6806,-4.7053,-4.6862,-4.6313,-4.6313,-4.6313,-4.6313,-4.6313,-4.6313,-4.6313,-4.6313,-4.6313,-4.6313,-4.6313,-4.6313,-4.6313,-4.6313,-4.6313,-4.6313,-4.6313,-4.6313,-4.6313,-5.5149,-5.5014,-5.4865,-5.4865,-5.5044,-5.5194,-5.5194,-5.5194,-5.5143,-5.4941,-5.4854,-5.4737,-5.4487,-5.3785,-5.3126,-5.2726,-5.2068,-5.1361,-5.0671,-5.2133,-5.2187,-5.0113,-5.2871,-5.36,-5.1837,-5.2176,-5.2459,-5.2566,-5.0462,-4.9589,-4.9773,-4.8899,-4.823,-4.769,-4.7912,-4.7586,0.0,0.0,0.0,-4.6313,-4.6313,-4.6755,-4.7416,-4.7027,-4.6648,-4.6313,-4.6313,-4.6313,-4.6313,-4.6313,-4.6313,-4.6313,-4.6313,-4.6313,-4.6313,-4.6313,-4.6313,-4.6313,-4.6313,-4.6313,-4.6313,-4.6313,-4.6313,-4.6313,-4.6313,-4.6313,-4.6313,-4.6313,-4.6313,-4.6313,-4.6313,-4.6313,-4.6313,-4.6313,-4.6313,-4.6313,0.0,-4.6313,-4.6313,-4.6313,-4.6494,-4.6554,-4.6313,-4.6648,-4.6755,-4.6313,-4.6494,-4.6626,-4.6626,-4.684,-4.7006,-4.7053,-4.7197,-4.7151,-4.6806,-4.6661,-4.6481,-4.6313,-4.6313,-4.6313,-4.6313,-4.6313,-4.6313,-4.6313,-4.6313,-4.6313,-4.6313,-4.6313,-4.6313,-4.6313,-4.6313,-4.6313,-4.6313,-4.6313,-4.6313,-4.6313,-5.5194,-5.5194,-5.5194,-5.5194,-5.5194,-5.5194,-5.5194,-5.5194,-5.4976,-5.4385,-5.4671,-5.4707,-5.4068,-5.3652,-5.339,-5.339,-5.2298,-5.147,-5.1223,-5.1863,-5.1373,-4.9505,-5.1701,-5.2201,-5.049,-5.0975,-5.125,-5.1373,-4.9845,-4.9204,-4.9261,-4.8566,-4.8055,-4.788,-4.7749,-4.7409,-4.6959,-4.6853,-4.6614,-4.6313,-4.6313,-4.6755,-4.7429,-4.7087,-4.6921,-4.6862,-4.6481,-4.6313,-4.6313,-4.6313,-4.6313,-4.6313,-4.6313,-4.6313,-4.6313,-4.6313,-4.6313,-4.6313,-4.6313,-4.6313,-4.6313,-4.6313,-4.6313,-4.6313,-4.6313,-4.6313,-4.6313,-4.6313,-4.6313,-4.6313,-4.6313,-4.6313,-4.6313,-4.6313,-4.6313,-4.6313,0.0,-4.6313,-4.6313,-4.6313,-4.6494,-4.6554,-4.6494,-4.6708,-4.6755,-4.6494,-4.6554,-4.6614,-4.6614,-4.6746,-4.684,-4.6862,-4.6947,-4.684,-4.6614,-4.6554,-4.6434,-4.6313,-4.6313,-4.6313,-4.6313,-4.6313,-4.6313,-4.6313,-4.6313,-4.6313,-4.6313,-4.6313,-4.6313,-4.6313,-4.6313,-4.6313,-4.6313,-4.6313,-4.6313,-4.6313,-5.5194,-5.5194,-5.5194,-5.5194,-5.5194,-5.5194,-5.5194,-5.5194,-5.4794,-5.3637,-5.4473,-5.4692,-5.3466,-5.2857,-5.247,-5.2416,-4.9818,-4.8749,-5.0141,-4.9194,-4.8532,-4.8429,-4.8864,-4.8442,-4.6972,-4.7159,-4.7442,-4.7808,-4.7749,-4.788,-4.8185,-4.8185,-4.8185,-4.8185,-4.788,0.0,-4.7205,-4.6959,-4.6614,-4.6313,-4.6313,-4.6361,-4.6588,-4.771,-4.8139,-4.8152,-4.6921,-4.6421,-4.6361,-4.6361,-4.6361,-4.6313,-4.6313,-4.6313,-4.6313,-4.6313,-4.6313,-4.6313,-4.6313,-4.6313,-4.6313,-4.6313,-4.6313,-4.6313,-4.6313,-4.6313,-4.6313,-4.6313,-4.6313,-4.6313,-4.6313,-4.6313,-4.6313,-4.6313,-4.6313,-4.6313,-4.6313,-4.6313,-4.6313,-4.6313,-4.6313,-4.6434,-4.6746,-4.6554,-4.6494,-4.6806,-4.6494,-4.6373,-4.6313,-4.6626,-4.6673,-4.6313,-4.6862,-4.6934,-4.6313,-4.6626,-4.6626,-4.6313,-4.6313,-4.6313,-4.6313,-4.6313,-4.6313,-4.6313,-4.6313,-4.6313,-4.6313,-4.6313,-4.6313,-4.6313,-4.6313,-4.6313,-4.6313,-4.6313,-4.6313,-4.6313,-5.5194,-5.5194,-5.5194,-5.5194,-5.5194,-5.5194,-5.5194,-5.5194,-5.5027,-5.4502,-5.4722,-5.4348,-5.2982,-5.2662,-5.2218,-5.1348,-5.0391,-4.9589,-4.9076,-4.9788,-4.9348,-4.7349,-4.9435,-4.9917,-4.85,-4.8731,-4.8961,-4.9032,-4.8379,-4.8127,-4.8185,0.0,-4.8185,-4.8185,0.0,-4.7749,-4.7205,-4.7159,-4.6768,-4.6313,-4.6313,-4.7383,-4.8904,-4.8326,-4.9221,-5.0629,-4.9405,-4.8384,-4.7652,-4.7652,-4.7027,-4.6313,-4.6313,-4.6313,-4.6313,-4.6313,-4.6313,-4.6313,-4.6313,-4.6313,-4.6313,-4.6313,-4.6313,-4.6313,-4.6313,-4.6313,-4.6313,-4.6313,-4.6313,-4.6313,-4.6313,-4.6313,-4.6313,-4.6313,-4.6313,-4.6313,-4.6313,-4.6494,-4.6554,-4.6313,-4.6695,-4.6815,-4.6494,-4.7006,-4.7185,-4.6866,-4.6874,-4.6874,-4.6673,-4.6746,-4.6673,-4.6313,-4.6661,-4.6721,-4.6313,-4.6373,-4.6373,-4.6313,-4.6313,-4.6313,-4.6313,-4.6313,-4.6313,-4.6313,-4.6313,-4.6313,-4.6313,-4.6313,-4.6313,-4.6313,-4.6313,-4.6313,-4.6313,-4.6313,-4.6313,-4.6313,-5.5194,-5.5194,-5.5194,-5.5194,-5.5194,-5.5194,-5.5194,-5.5194,-5.4976,-5.4267,-5.4671,-5.4451,-5.3073,-5.3314,-5.3275,-5.2691,-5.1825,-5.1306,-5.1292,-5.0337,-4.9448,-4.8718,-4.9062,-4.8935,-4.8255,-4.8558,-4.8687,-4.8687,-4.8392,-4.8185,-4.8185,0.0,0.0,0.0,0.0,-4.7938,-4.7383,-4.7112,-4.6827,-4.6554,-4.6921,-4.7873,0.0,-4.9562,-5.0504,-5.1688,-5.1539,-5.035,-4.8833,-4.8255,-4.7652,-4.6981,-4.6481,-4.6313,-4.6313,-4.6313,-4.6313,-4.6313,-4.6313,-4.6313,-4.6313,-4.6313,-4.6313,-4.6313,-4.6313,-4.6313,-4.6313,-4.6313,-4.6313,-4.6313,-4.6313,-4.6313,-4.6313,-4.6313,-4.6313,-4.6313,-4.6313,-4.6434,-4.6494,-4.6313,-4.6588,-4.6648,-4.6313,-4.6993,-4.7337,-4.7006,-4.7006,-4.6887,-4.6614,-4.6733,-4.6673,-4.6313,-4.6626,-4.6614,-4.6313,-4.6313,-4.6313,-4.6313,-4.6313,-4.6313,-4.6313,-4.6313,-4.6313,-4.6313,-4.6313,-4.6313,-4.6313,-4.6313,-4.6313,-4.6313,-4.6313,-4.6313,-4.6313,-4.6313,-4.6313,-4.6313,-5.5194,-5.5194,-5.5194,-5.5194,-5.5194,-5.5194,-5.5194,-5.5194,-5.4794,-5.3742,-5.4575,-5.4743,-5.3518,-5.4112,-5.4568,-5.4414,-5.315,-5.2924,-5.423,-5.0768,-4.9321,-5.092,-4.8339,-4.7019,-4.7265,-4.7573,-4.769,-4.769,-4.8055,-4.8185,-4.8185,0.0,0.0,0.0,0.0,0.0,0.0,-4.7019,-4.6806,-4.6853,-4.7769,-4.821,-4.866,-5.0851,-5.1797,-5.2082,-5.3117,-5.2056,-4.9958,-4.8718,-4.821,-4.7873,-4.6695,-4.6313,-4.6313,-4.6313,-4.6313,-4.6313,-4.6313,-4.6313,-4.6313,-4.6313,-4.6313,-4.6313,-4.6313,-4.6313,-4.6313,-4.6313,-4.6313,-4.6313,-4.6313,-4.6313,-4.6313,-4.6313,-4.6313,-4.6313,-4.6313,-4.6361,-4.6421,-4.6373,-4.6434,0.0,-4.6421,-4.6862,-4.7205,-4.7146,-4.7006,-4.6793,-4.6421,-4.6661,-4.6733,-4.6373,-4.6673,-4.6614,-4.6313,-4.6313,-4.6313,-4.6313,-4.6313,-4.6313,-4.6313,-4.6313,-4.6313,-4.6313,-4.6313,-4.6313,-4.6313,-4.6313,-4.6313,-4.6313,-4.6313,-4.6313,-4.6313,-4.6313,-4.6313,-4.6313,-5.5194,-5.5194,-5.5194,-5.5194,-5.5194,-5.5194,-5.5194,-5.5194,-5.5128,-5.4911,-5.5078,-5.4743,-5.3518,-5.3533,-5.327,-5.2352,-5.1769,-5.1523,-5.1809,-5.0281,-4.9462,-4.9788,-4.8353,-4.7573,-4.7632,-4.769,-4.769,-4.769,-4.8055,-4.8185,-4.8185,-4.8185,0.0,0.0,0.0,0.0,-4.7265,-4.6959,-4.6806,-4.6853,-4.7769,-4.8833,-5.0111,-5.1251,-5.2312,-5.3223,-5.3395,-5.2609,-5.1182,-5.0014,-4.8948,-4.7873,-4.6695,-4.6313,-4.6313,-4.6313,-4.6313,-4.6313,-4.6313,-4.6313,-4.6313,-4.6313,-4.6313,-4.6313,-4.6313,-4.6313,-4.6313,-4.6313,-4.6313,-4.6313,-4.6313,-4.6313,-4.6313,-4.6313,-4.6313,-4.6313,-4.6313,-4.6755,-4.6934,-4.6733,-4.7125,-4.7337,-4.71,-4.7146,-4.71,-4.69,-4.7303,-4.7396,-4.7027,-4.71,-4.6993,-4.6733,-4.6793,-4.6614,-4.6313,-4.6313,-4.6313,-4.6313,-4.6313,-4.6313,-4.6313,-4.6313,-4.6313,-4.6313,-4.6313,-4.6313,-4.6313,-4.6313,-4.6313,-4.6313,-4.6313,-4.6313,-4.6313,-4.6313,-4.6313,-4.6313,-5.5194,-5.5194,-5.5194,-5.5194,-5.5194,-5.5194,-5.5194,-5.5478,-5.5583,-5.5239,-5.5194,-5.5096,-5.4879,-5.4857,-5.4766,-5.4531,-5.4371,-5.3982,-5.3345,-5.1808,-5.0971,-5.1041,-4.8903,-4.8088,-4.8802,-4.8262,-4.7938,-4.7938,-4.8114,-4.8185,-4.8185,-4.8185,-4.8185,0.0,0.0,-4.7997,0.0,-4.7421,-4.7632,-4.8249,-4.9032,-5.0196,-5.1579,-5.2512,-5.3299,-5.3948,-5.4156,-5.3926,-5.317,-5.0739,-4.912,-4.7925,-4.6977,-4.674,-4.679,-4.7054,-4.7142,-4.7142,-4.7142,-4.7142,-4.7142,-4.7142,-4.6941,-4.674,-4.674,-4.6514,-4.6313,-4.6313,-4.6313,-4.6313,-4.6313,-4.6313,-4.6313,-4.6313,-4.6434,-4.6494,-4.6313,-4.6721,-4.6947,-4.6806,-4.69,-4.7006,-4.7006,-4.71,-4.7159,-4.7006,-4.7468,-4.7573,-4.7205,-4.7383,-4.7337,-4.7006,-4.7006,-4.6827,-4.6554,-4.6373,-4.6313,-4.6313,-4.6313,-4.6313,-4.6313,-4.6313,-4.6313,-4.6313,-4.6313,-4.6313,-4.6313,-4.6313,-4.6313,-4.6313,-4.6313,-4.6313,-4.6313,-4.6313,-4.6313,-4.6313,-5.5194,-5.5194,-5.5239,-5.5374,-5.5403,-5.5448,-5.5568,-5.6032,-5.6137,-5.5478,-5.5508,-5.5792,-5.6301,-5.6361,-5.6555,-5.7049,-5.7094,-5.6712,-5.5737,-5.3662,-5.2659,-5.3076,-4.9934,-4.8901,-5.0443,-4.936,-4.8698,-4.8566,-4.8566,-4.8463,-4.8185,-4.8185,-4.8185,-4.8185,-4.8185,-4.8185,-4.8114,-4.8101,-4.8642,-4.9576,-5.0489,-5.1663,-5.2898,-5.3833,-5.4405,-5.479,-5.5072,-5.5142,-5.4638,-5.1502,-4.9768,-4.876,-4.7618,-4.7292,-4.738,-4.7795,-4.7908,-4.7908,-4.7908,-4.7908,-4.7908,-4.7908,-4.7594,-4.7292,-4.7292,-4.6878,-4.6489,-4.6489,-4.6389,-4.6313,-4.6313,-4.6373,-4.6373,-4.6313,-4.6554,-4.6733,-4.6434,-4.6614,-4.6793,-4.69,-4.6614,-4.6494,-4.6793,-4.7006,-4.7159,-4.7205,-4.7573,-4.7632,-4.7324,-4.7514,-4.7442,-4.7205,-4.7087,-4.6934,-4.6673,-4.6434,-4.6313,-4.6313,-4.6313,-4.6313,-4.6313,-4.6313,-4.6313,-4.6313,-4.6313,-4.6313,-4.6313,-4.6313,-4.6313,-4.6313,-4.6313,-4.6313,-4.6313,-4.6313,-4.6313,-4.6313,-5.5194,-5.5194,-5.5374,-5.5972,-5.6092,-5.6271,-5.684,-5.6974,-5.678,-5.6166,-5.657,-5.6944,-5.7004,-5.7019,-5.7034,-5.7094,-5.7094,-5.7042,-5.6937,-5.4682,-5.3879,-5.5094,-5.1628,-5.0554,-5.2421,-5.1199,-5.027,-4.9745,-4.9745,-4.9217,-4.8185,-4.8185,-4.8185,-4.8185,-4.8185,-4.7997,-4.7808,-4.886,-4.9418,-4.9689,-5.1551,-5.2934,-5.3978,-5.482,-5.5586,-5.6102,-5.6176,-5.5488,-5.4364,-5.2838,-5.2067,-5.1242,-4.8633,-4.7845,-4.7845,-4.7895,-4.7908,-4.7908,-4.7908,-4.7908,-4.7908,-4.7908,-4.787,-4.7845,-4.7845,-4.7431,-4.7067,-4.7067,-4.6652,-4.6313,-4.6313,-4.6554,-4.6673,-4.6373,-4.6554,-4.6806,-4.6746,-4.6806,-4.69,-4.7146,-4.6887,-4.6746,-4.6806,-4.6793,-4.6959,-4.7205,-4.7821,-4.7997,-4.769,-4.7383,-4.7265,-4.7205,-4.6648,-4.6361,-4.6373,-4.6313,-4.6313,-4.6313,-4.6313,-4.6313,-4.6313,-4.6313,-4.6313,-4.6313,-4.6313,-4.6313,-4.6313,-4.6313,-4.6313,-4.6313,-4.6313,-4.6313,-4.6313,-4.6313,-4.6313,-4.6313,-5.5703,-5.5777,-5.5987,-5.6615,-5.672,-5.681,-5.7049,-5.7453,-5.7618,-5.7378,-5.7199,-5.7244,-5.7663,-5.7708,-5.7872,-5.8261,-5.8306,-5.8009,-5.7191,-5.5947,-5.5454,-5.5924,-5.3527,-5.2865,-5.43,-5.3122,-5.239,-5.2197,-5.1076,-5.0286,-4.9783,-4.8724,-4.8185,-4.8243,-4.8944,-4.9146,-4.9019,-4.9519,-5.078,-5.2428,-5.2401,-5.3766,-5.589,-5.6077,-5.6413,-5.6786,-5.7043,-5.6947,-5.6351,-5.4369,-5.2646,-5.106,-4.9515,-4.9036,-4.91,-4.9443,-4.9532,-4.9482,-4.9305,-4.9242,-4.9179,-4.8988,-4.8673,-4.8422,-4.8422,-4.7996,-4.7568,-4.7424,-4.7088,-4.6815,-4.6614,-4.6733,-4.6793,-4.6815,-4.6934,-4.7053,-4.7053,-4.7231,-4.729,-4.7205,-4.71,-4.7053,-4.7053,-4.7053,-4.71,-4.7205,-4.7632,-4.7821,-4.769,-4.7749,-4.7632,-4.7205,-4.6981,-4.6768,-4.6614,-4.6373,-4.6313,-4.6313,-4.6313,-4.6313,-4.6313,-4.6313,-4.6313,-4.6313,-4.6313,-4.6313,-4.6313,-4.6313,-4.6313,-4.6313,-4.6313,-4.6313,-4.6313,-4.6313,-4.6313,-4.6313,-5.6346,-5.6436,-5.6645,-5.7289,-5.7393,-5.7468,-5.7663,-5.8097,-5.8411,-5.8411,-5.7977,-5.7872,-5.8351,-5.8411,-5.859,-5.9069,-5.9099,-5.8743,-5.7789,-5.7032,-5.6799,-5.7104,-5.5251,-5.4811,-5.6138,-5.5084,-5.4373,-5.4188,-5.2531,-5.1685,-5.1685,-5.0041,-4.908,-4.8741,-4.9565,-5.0115,-5.0501,-5.0828,-5.2406,-5.4662,-5.3998,-5.5201,-5.7393,-5.7198,-5.737,-5.7752,-5.8032,-5.825,-5.8079,-5.5951,-5.4099,-5.2353,-5.0565,-5.0061,-5.0088,-5.0473,-5.0601,-5.0537,-5.0295,-5.0232,-5.0168,-4.986,-4.9557,-4.933,-4.9203,-4.8825,-4.8331,-4.7732,-4.7503,-4.7304,-4.6878,-4.6972,-4.7066,-4.7205,-4.7265,-4.7324,-4.7324,-4.7455,-4.7514,-4.7383,-4.7218,-4.71,-4.7205,-4.7159,-4.7159,-4.7324,-4.7573,-4.7632,-4.7573,-4.7703,-4.7599,-4.7112,-4.6981,-4.6815,-4.6673,-4.6434,-4.6313,-4.6313,-4.6313,-4.6313,-4.6313,-4.6313,-4.6313,-4.6313,-4.6313,-4.6313,-4.6313,-4.6313,-4.6313,-4.6313,-4.6313,-4.6313,-4.6313,-4.6313,-4.6313,-4.6313,-5.7079,-5.7079,-5.7304,-5.7992,-5.8112,-5.8336,-5.8979,-5.9084,-5.9099,-5.9099,-5.9084,-5.9084,-5.9099,-5.9099,-5.9099,-5.9099,-5.9099,-5.9099,-5.9099,-5.79,-5.7719,-5.903,-5.6708,-5.6236,-5.802,-5.6866,-5.5982,-5.5358,-5.409,-5.3529,-5.3613,-5.2345,-5.1073,-4.9871,-4.9871,-5.0625,-5.1881,-5.2991,-5.4187,-5.5507,-5.6591,-5.7445,-5.8112,-5.8058,-5.8515,-5.9084,-5.9084,-5.9099,-5.8907,-5.7608,-5.7131,-5.6351,-5.194,-5.0588,-5.0588,-5.0601,-5.0601,-5.0601,-5.0601,-5.0601,-5.0537,-5.018,-5.0359,-5.0461,-5.0168,-4.9913,-4.936,-4.7869,-4.7883,-4.785,-4.6954,-4.7303,-4.7573,-4.7265,-4.7514,-4.769,-4.769,-4.7383,-4.7324,-4.7632,-4.7197,-4.69,-4.7146,-4.6947,-4.7019,-4.7632,-4.769,-4.7573,-4.7205,-4.6959,-4.6806,-4.6806,-4.6494,-4.6313,-4.6313,-4.6313,-4.6313,-4.6313,-4.6313,-4.6313,-4.6313,-4.6313,-4.6313,-4.6313,-4.6313,-4.6313,-4.6313,-4.6313,-4.6313,-4.6313,-4.6313,-4.6313,-4.6313,-4.6313,-4.6313,-4.6313,-5.7708,-5.7797,-5.8007,-5.868,-5.88,-5.886,-5.9069,-5.9099,-5.9099,-5.9099,-5.9099,-5.9099,-5.9099,-5.9099,-5.9099,-5.9099,-5.9099,-5.9099,-5.9099,-5.8743,-5.8689,-5.9099,-5.8346,-5.8187,-5.8746,-5.8392,-5.811,-5.7902,-5.627,-5.4866,-5.3684,-5.3288,-5.2416,-5.1277,-5.2919,-5.3416,-5.3019,-5.4271,-5.5769,-5.7182,-5.679,-5.7513,-5.88,-5.88,-5.8919,-5.9099,-5.9099,-5.9099,-5.8921,-5.7623,-5.7202,-5.6679,-5.353,-5.2596,-5.2412,-5.1521,-5.1283,-5.122,-5.0981,-5.0931,-5.0867,-5.0537,-5.0537,-5.0601,-5.0474,-5.0304,-4.9811,-4.8684,-4.8661,-4.8475,-4.7584,-4.7586,-4.7749,-4.788,-4.7762,-4.7762,-4.7997,-4.7938,-4.7821,-4.769,-4.7716,-4.7716,-4.7573,-4.7455,-4.7409,-4.7383,-4.7172,-4.7244,-4.7501,-4.7468,-4.7244,-4.6806,-4.6673,-4.6554,-4.6313,-4.6313,-4.6313,-4.6313,-4.6313,-4.6313,-4.6313,-4.6313,-4.6313,-4.6313,-4.6313,-4.6313,-4.6313,-4.6313,-4.6313,-4.6313,-4.6313,-4.6313,-4.6313,-4.6313,-4.6313,-4.6313,-5.8411,-5.8501,-5.862,-5.9039,-5.9099,-5.9099,-5.9099,-5.9099,-5.9099,-5.9099,-5.9099,-5.9099,-5.9099,-5.9099,-5.9099,-5.9099,-5.9099,-5.9099,-5.9099,-5.9099,-5.9099,-5.9099,-5.9099,-5.9099,-5.9099,-5.9099,-5.9099,-5.9099,-5.7946,-5.635,-5.4374,-5.4814,-5.4345,-5.3206,-5.4757,-5.5193,-5.494,-5.5764,-5.7015,-5.8432,-5.7685,-5.81,-5.9099,-5.9099,-5.9099,-5.9099,-5.9099,-5.9099,-5.8991,-5.8151,-5.7915,-5.7567,-5.553,-5.4887,-5.4473,-5.224,-5.1596,-5.1534,-5.1359,-5.1296,-5.1233,-5.0855,-5.0855,-5.0968,-5.0968,-5.0898,-5.0545,-4.9605,-4.9417,-4.9145,-4.8203,-4.7964,-4.7938,-4.8185,-4.7997,-4.7938,-4.8185,-4.8185,-4.8114,-4.7938,-4.7938,-4.7997,-4.788,-4.7749,-4.7632,-4.7383,-4.7231,-4.7244,-4.7514,-4.7409,-4.7138,-4.6626,-4.6733,-4.6614,-4.6313,-4.6313,-4.6313,-4.6313,-4.6313,-4.6313,-4.6313,-4.6313,-4.6313,-4.6313,-4.6313,-4.6313,-4.6313,-4.6313,-4.6313,-4.6313,-4.6313,-4.6313,-4.6313,-4.6313,-4.6313,-4.6313,-5.9099,-5.9099,-5.9099,-5.9099,-5.9099,-5.9099,-5.9099,-5.9099,-5.9099,-5.9099,-5.9099,-5.9099,-5.9099,-5.9099,-5.9099,-5.9099,-5.9099,-5.9099,-5.9099,-5.9099,-5.9099,-5.9099,-5.9099,-5.9099,-5.9099,-5.9099,-5.9099,-5.9099,-5.9099,-5.7944,-5.5688,-5.6807,-5.6693,-5.5514,-5.563,-5.6251,-5.7202,-5.7314,-5.8026,-5.9099,-5.9099,-5.9099,-5.9099,-5.9099,-5.9099,-5.9099,-5.9099,-5.9099,-5.9099,-5.9099,-5.9099,-5.8867,-5.7608,-5.7202,-5.6494,-5.2828,-5.1721,-5.1721,-5.1596,-5.1596,-5.1534,-5.1246,-5.1359,-5.1596,-5.1596,-5.1596,-5.1377,-5.0519,-5.0119,-4.9654,-4.8807,-4.84,-4.8185,-4.8185,-4.8185,-4.8185,-4.8185,-4.8185,-4.8185,-4.8185,-4.7938,-4.788,-4.8185,-4.7938,-4.7749,-4.769,-4.769,-4.7573,-4.7205,-4.6947,-4.6673,-4.6373,-4.6614,-4.6626,-4.6313,-4.6313,-4.6313,-4.6313,-4.6313,-4.6313,-4.6313,-4.6313,-4.6313,-4.6313,-4.6313,-4.6313,-4.6313,-4.6313,-4.6313,-4.6313,-4.6313,-4.6313,-4.6313,-4.6313,-4.6313,-4.6313,-5.9099,-5.9099,-5.9099,-5.9099,-5.9099,-5.9099,-5.9099,-5.9099,-5.9099,-5.9099,-5.9099,-5.9099,-5.9099,-5.9099,-5.9099,-5.9099,-5.9099,-5.9099,-5.9099,-5.9099,-5.9099,-5.9099,-5.9099,-5.9099,-5.9099,-5.9099,-5.9099,-5.9099,-5.9099,-5.8813,-5.8235,-5.8525,-5.7985,-5.6807,-5.7763,-5.786,-5.7258,-5.8261,-5.8813,-5.9099,-5.9099,-5.9099,-5.9099,-5.9099,-5.9099,-5.9099,-5.9099,-5.9099,-5.9099,-5.9099,-5.9099,-5.8867,-5.7608,-5.7202,-5.6679,-5.3891,-5.3025,-5.2842,-5.1833,-5.1596,-5.1596,-5.1471,-5.1534,-5.1596,-5.1596,-5.1596,-5.1439,-5.0842,-5.0241,-4.9727,-4.9119,-4.8531,-4.8185,-4.8185,-4.8185,-4.8185,-4.8185,-4.8185,-4.8185,-4.8185,-4.8127,-4.8127,-4.8185,-4.8127,-4.7997,-4.769,-4.769,-4.7468,-4.69,-4.7053,-4.6993,-4.6673,-4.6494,-4.6373,-4.6313,-4.6313,-4.6313,-4.6313,-4.6313,-4.6313,-4.6313,-4.6313,-4.6313,-4.6313,-4.6313,-4.6313,-4.6313,-4.6313,-4.6313,-4.6313,-4.6313,-4.6313,-4.6313,-4.6313,-4.6313,-4.6313,-5.9099,-5.9099,-5.9099,-5.9099,-5.9099,-5.9099,-5.9099,-5.9099,-5.9099,-5.9099,-5.9099,-5.9099,-5.9099,-5.9099,-5.9099,-5.9099,-5.9099,-5.9099,-5.9099,-5.9099,-5.9099,-5.9099,-5.9099,-5.9099,-5.9099,-5.9099,-5.9099,-5.9099,-5.9099,-5.9099,-5.9099,-5.9099,-5.8743,-5.8096,-5.8798,-5.8743,-5.8096,-5.8813,-5.9099,-5.9099,-5.9099,-5.9099,-5.9099,-5.9099,-5.9099,-5.9099,-5.9099,-5.9099,-5.9099,-5.9099,-5.9099,-5.8991,-5.8276,-5.8096,-5.7678,-5.5762,-5.4368,-5.3315,-5.2671,-5.2006,-5.1596,-5.1596,-5.1596,-5.1596,-5.1596,-5.1596,-5.1518,-5.1217,-5.0485,-4.9806,-4.9505,-4.876,-4.8185,-4.8185,-4.8185,-4.8185,-4.8185,-4.8185,-4.8185,-4.8185,-4.8185,-4.8185,-4.8185,-4.8185,-4.8055,-4.7749,-4.769,-4.7468,-4.7006,-4.6993,-4.6887,-4.6554,-4.6554,-4.6434,-4.6313,-4.6313,-4.6313,-4.6313,-4.6313,-4.6313,-4.6313,-4.6313,-4.6313,-4.6313,-4.6313,-4.6313,-4.6313,-4.6313,-4.6313,-4.6313,-4.6313,-4.6313,-4.6313,-4.6313,-4.6313,-4.6313,-5.9099,-5.9099,-5.9099,-5.9099,-5.9099,-5.9099,-5.9099,-5.9099,-5.9099,-5.9099,-5.9099,-5.9099,-5.9099,-5.9099,-5.9099,-5.9099,-5.9099,-5.9099,-5.9099,-5.9099,-5.9099,-5.9099,-5.9099,-5.9099,-5.9099,-5.9099,-5.9099,-5.9099,-5.9099,-5.9099,-5.9099,-5.9099,-5.9099,-5.9099,-5.9099,-5.9099,-5.9099,-5.9099,-5.9099,-5.9099,-5.9099,-5.9099,-5.9099,-5.9099,-5.9099,-5.9099,-5.9099,-5.9099,-5.9099,-5.9099,-5.9099,-5.9099,-5.9099,-5.9099,-5.8867,-5.7789,-5.5877,-5.4024,-5.3858,-5.2842,-5.1833,-5.1659,-5.1596,-5.1596,-5.1596,-5.1596,-5.1596,-5.1596,-5.0681,-4.9884,-4.9884,-4.8956,-4.8185,-4.8185,-4.8185,-4.8185,-4.8185,-4.8185,-4.8185,-4.8185,-4.8185,-4.8185,-4.8185,-4.8185,-4.8055,-4.7808,-4.7762,-4.7632,-4.7265,-4.7066,-4.6793,-4.6421,-4.6614,-4.6614,-4.6313,-4.6313,-4.6313,-4.6313,-4.6313,-4.6313,-4.6313,-4.6313,-4.6313,-4.6313,-4.6313,-4.6313,-4.6313,-4.6313,-4.6313,-4.6313,-4.6313,-4.6313,-4.6313,-4.6313,-4.6313,-4.6313,-5.9099,-5.9099,-5.9099,-5.9099,-5.9099,-5.9099,-5.9099,-5.9099,-5.9099,-5.9099,-5.9099,-5.9099,-5.9099,-5.9099,-5.9099,-5.9099,-5.9099,-5.9099,-5.9099,-5.9099,-5.9099,-5.9099,-5.9099,-5.9099,-5.9099,-5.9099,-5.9099,-5.9099,-5.9099,-5.9099,-5.9099,-5.9099,-5.9099,-5.9099,-5.9099,-5.9099,-5.9099,-5.9099,-5.9099,-5.9099,-5.9099,-5.9099,-5.9099,-5.9099,-5.9099,-5.9099,-5.9099,-5.9099,-5.9099,-5.9099,-5.9099,-5.9099,-5.9099,-5.9099,-5.9045,-5.8867,-5.7789,-5.6394,-5.5383,-5.4158,-5.2964,-5.1895,-5.1596,-5.1596,-5.1596,-5.1596,-5.1596,-5.1596,-5.0681,-4.9884,-4.9884,-4.8956,-4.8185,-4.8185,-4.8185,-4.8185,-4.8185,-4.8185,-4.8185,-4.8185,-4.8185,-4.8185,-4.8185,-4.8185,-4.8185,-4.8127,-4.8114,-4.7997,-4.7632,-4.7573,-4.7396,-4.7087,-4.6588,-4.6373,-4.6313,-4.6313,-4.6313,-4.6313,-4.6313,-4.6313,-4.6313,-4.6313,-4.6313,-4.6313,-4.6313,-4.6313,-4.6313,-4.6313,-4.6313,-4.6313,-4.6313,-4.6313,-4.6313,-4.6313,-4.6313,-4.6313,-5.9099,-5.9099,-5.9099,-5.9099,-5.9099,-5.9099,-5.9099,-5.9099,-5.9099,-5.9099,-5.9099,-5.9099,-5.9099,-5.9099,-5.9099,-5.9099,-5.9099,-5.9099,-5.9099,-5.9099,-5.9099,-5.9099,-5.9099,-5.9099,-5.9099,-5.9099,-5.9099,-5.9099,-5.9099,-5.9099,-5.9099,-5.9099,-5.9099,-5.9099,-5.9099,-5.9099,-5.9099,-5.9099,-5.9099,-5.9099,-5.9099,-5.9099,-5.9099,-5.9099,-5.9099,-5.9099,-5.9099,-5.9099,-5.9099,-5.9099,-5.9099,-5.9099,-5.9099,-5.9099,-5.9099,-5.9099,-5.8206,-5.692,-5.5746,-5.4455,-5.3376,-5.278,-5.213,-5.1596,-5.1596,-5.1596,-5.1518,-5.1217,-5.0485,-4.9806,-4.9505,-4.876,-4.8185,-4.8185,-4.8185,-4.8185,-4.8185,-4.8185,-4.8185,-4.8185,-4.8185,-4.8185,-4.8185,-4.8185,-4.8185,-4.8185,-4.8185,-4.8114,-4.7997,-4.7808,-4.7632,-4.7442,-4.6887,-4.6494,-4.6313,-4.6313,-4.6313,-4.6313,-4.6313,-4.6313,-4.6313,-4.6313,-4.6313,-4.6313,-4.6313,-4.6313,-4.6313,-4.6313,-4.6313,-4.6313,-4.6313,-4.6313,-4.6313,-4.6313,-4.6313,-4.6313,-5.9099,-5.9099,-5.9099,-5.9099,-5.9099,-5.9099,-5.9099,-5.9099,-5.9099,-5.9099,-5.9099,-5.9099,-5.9099,-5.9099,-5.9099,-5.9099,-5.9099,-5.9099,-5.9099,-5.9099,-5.9099,-5.9099,-5.9099,-5.9099,-5.9099,-5.9099,-5.9099,-5.9099,-5.9099,-5.9099,-5.9099,-5.9099,-5.9099,-5.9099,-5.9099,-5.9099,-5.9099,-5.9099,-5.9099,-5.9099,-5.9099,-5.9099,-5.9099,-5.9099,-5.9099,-5.9099,-5.9099,-5.9099,-5.9099,-5.9099,-5.9099,-5.9099,-5.9099,-5.9099,-5.9099,-5.9099,-5.8386,-5.7384,-5.6136,-5.5077,-5.4309,-5.4024,-5.2964,-5.2006,-5.2006,-5.1741,-5.1296,-5.0877,-5.0211,-4.9584,-4.9165,-4.859,-4.8185,-4.8185,-4.8185,-4.8185,-4.8185,-4.8185,-4.8185,-4.8185,-4.8185,-4.8185,-4.8185,-4.8185,-4.8185,-4.8185,-4.8185,-4.8185,-4.8185,-4.7938,-4.7749,-4.7573,-4.7078,-4.6614,-4.6313,-4.6313,-4.6313,-4.6313,-4.6313,-4.6313,-4.6313,-4.6313,-4.6313,-4.6313,-4.6313,-4.6313,-4.6313,-4.6313,-4.6313,-4.6313,-4.6313,-4.6313,-4.6313,-4.6313,-4.6313,-4.6313,-5.9099,-5.9099,-5.9099,-5.9099,-5.9099,-5.9099,-5.9099,-5.9099,-5.9099,-5.9099,-5.9099,-5.9099,-5.9099,-5.9099,-5.9099,-5.9099,-5.9099,-5.9099,-5.9099,-5.9099,-5.9099,-5.9099,-5.9099,-5.9099,-5.9099,-5.9099,-5.9099,-5.9099,-5.9099,-5.9099,-5.9099,-5.9099,-5.9099,-5.9099,-5.9099,-5.9099,-5.9099,-5.9099,-5.9099,-5.9099,-5.9099,-5.9099,-5.9099,-5.9099,-5.9099,-5.9099,-5.9099,-5.9099,-5.9099,-5.9099,-5.9099,-5.9099,-5.9099,-5.9099,-5.9099,-5.9099,-5.9045,-5.8689,-5.7384,-5.6976,-5.6693,-5.5558,-5.4277,-5.3376,-5.3376,-5.204,-5.0838,-5.0799,-4.991,-4.9126,-4.91,-4.859,-4.8185,-4.8185,-4.8185,-4.8185,-4.8185,-4.8185,-4.8185,-4.8185,-4.8185,-4.8185,-4.8185,-4.8185,-4.8185,-4.8185,-4.8185,-4.8185,-4.8185,-4.8185,-4.788,-4.7265,-4.6947,-4.6614,-4.6313,-4.6313,-4.6313,-4.6313,-4.6313,-4.6313,-4.6313,-4.6313,-4.6313,-4.6313,-4.6313,-4.6313,-4.6313,-4.6313,-4.6313,-4.6313,-4.6313,-4.6313,-4.6313,-4.6313,-4.6313,-4.6313,-5.9099,-5.9099,-5.9099,-5.9099,-5.9099,-5.9099,-5.9099,-5.9099,-5.9099,-5.9099,-5.9099,-5.9099,-5.9099,-5.9099,-5.9099,-5.9099,-5.9099,-5.9099,-5.9099,-5.9099,-5.9099,-5.9099,-5.9099,-5.9099,-5.9099,-5.9099,-5.9099,-5.9099,-5.9099,-5.9099,-5.9099,-5.9099,-5.9099,-5.9099,-5.9099,-5.9099,-5.9099,-5.9099,-5.9099,-5.9099,-5.9099,-5.9099,-5.9099,-5.9099,-5.9099,-5.9099,-5.9099,-5.9099,-5.9039,-5.8635,-5.8501,-5.8426,-5.7992,-5.7857,-5.7857,-5.7857,-5.7857,-5.7736,-5.728,-5.7174,-5.7002,-5.6177,-5.498,-5.3941,-5.3508,-5.2339,-5.1235,-5.0861,-4.9884,-4.8969,-4.859,-4.8342,-4.8185,-4.8185,-4.8185,-4.8185,-4.8185,-4.8185,-4.8185,-4.8185,-4.8185,-4.8185,-4.8185,-4.8185,-4.8185,-4.8185,-4.8185,-4.8185,-4.8185,-4.7997,-4.7586,-4.6947,-4.6853,-4.6614,-4.6313,-4.6313,-4.6313,-4.6313,-4.6313,-4.6313,-4.6313,-4.6313,-4.6313,-4.6313,-4.6313,-4.6313,-4.6313,-4.6313,-4.6313,-4.6313,-4.6313,-4.6313,-4.6313,-4.6313,-4.6313,-4.6313,-5.9099,-5.9099,-5.9099,-5.9099,-5.9099,-5.9099,-5.9099,-5.9099,-5.9099,-5.9099,-5.9099,-5.9099,-5.9099,-5.9099,-5.9099,-5.9099,-5.9099,-5.9099,-5.9099,-5.9099,-5.9099,-5.9099,-5.9099,-5.9099,-5.9099,-5.9099,-5.9099,-5.9099,-5.9099,-5.9099,-5.9099,-5.9099,-5.9099,-5.9099,-5.9099,-5.9099,-5.9099,-5.9099,-5.9099,-5.9099,-5.9099,-5.8979,-5.88,-5.88,-5.8665,-5.8471,-5.8471,-5.8471,-5.8396,-5.7947,-5.7797,-5.7723,-5.7244,-5.7094,-5.7094,-5.7094,-5.7094,-5.7094,-5.7094,-5.7122,-5.7071,-5.6661,-5.5637,-5.4559,-5.4077,-5.2652,-5.1281,-5.0875,-4.9759,-4.8682,-4.8264,-4.8185,-4.8185,-4.8185,-4.8185,-4.8185,-4.8185,-4.8185,-4.8185,-4.8185,-4.8185,-4.8185,-4.8185,-4.8185,-4.8185,-4.8185,-4.8185,-4.8185,-4.8185,-4.7749,-4.7349,-4.6959,-4.6733,-4.6554,-4.6313,-4.6313,-4.6313,-4.6313,-4.6313,-4.6313,-4.6313,-4.6313,-4.6313,-4.6313,-4.6313,-4.6313,-4.6313,-4.6313,-4.6313,-4.6313,-4.6313,-4.6313,-4.6313,-4.6313,-4.6313,-4.6313,-5.9099,-5.9099,-5.9099,-5.9099,-5.9099,-5.9099,-5.9099,-5.9099,-5.9099,-5.9099,-5.9099,-5.9099,-5.9099,-5.9099,-5.9099,-5.9099,-5.9099,-5.9099,-5.9099,-5.9099,-5.9099,-5.9099,-5.9099,-5.9099,-5.9099,-5.9099,-5.9099,-5.9099,-5.9099,-5.9099,-5.9099,-5.9099,-5.9099,-5.9099,-5.9099,-5.9099,-5.9099,-5.9099,-5.9099,-5.9099,-5.9099,-5.8695,-5.8112,-5.8112,-5.7693,-5.7094,-5.7094,-5.7094,-5.7094,-5.7094,-5.7079,-5.7079,-5.7079,-5.7079,-5.7079,-5.7079,-5.7079,-5.7079,-5.7079,-5.7079,-5.7079,-5.7079,-5.6205,-5.5289,-5.5289,-5.2953,-5.078,-5.078,-4.9427,-4.8185,-4.8185,-4.8185,-4.8185,-4.8185,-4.8185,-4.8185,-4.8185,-4.8185,-4.8185,-4.8185,-4.8185,-4.8185,-4.8185,-4.8185,-4.8185,-4.8185,-4.8185,-4.8185,-4.8185,-4.7573,-4.7205,-4.7205,-4.6648,-4.6313,-4.6313,-4.6313,-4.6313,-4.6313,-4.6313,-4.6313,-4.6313,-4.6313,-4.6313,-4.6313,-4.6313,-4.6313,-4.6313,-4.6313,-4.6313,-4.6313,-4.6313,-4.6313,-4.6313,-4.6313,-4.6313,-4.6313,-5.9099,-5.9099,-5.9099,-5.9099,-5.9099,-5.9099,-5.9099,-5.9099,-5.9099,-5.9099,-5.9099,-5.9099,-5.9099,-5.9099,-5.9099,-5.9099,-5.9099,-5.9099,-5.9099,-5.9099,-5.9099,-5.9099,-5.9099,-5.9099,-5.9099,-5.9099,-5.9099,-5.9099,-5.9099,-5.9099,-5.9099,-5.9099,-5.9099,-5.9099,-5.9099,-5.9099,-5.9099,-5.9099,-5.8845,-5.8411,-5.8411,-5.8007,-5.7408,-5.7408,-5.7274,-5.7094,-5.7094,-5.7094,-5.7034,-5.66,-5.6451,-5.6361,-5.5912,-5.5763,-5.5763,-5.5763,-5.5763,-5.5763,-5.5763,-5.5763,-5.5867,-5.6331,-5.6177,-5.5797,-5.5338,-5.3263,-5.1419,-5.1419,-4.9737,-4.8185,-4.8185,-4.8185,-4.8185,-4.8185,-4.8185,-4.8185,-4.8185,-4.8185,-4.8185,-4.8185,-4.8185,-4.8185,-4.8185,-4.8185,-4.8185,-4.8185,-4.8185,-4.8127,-4.788,-4.7632,-4.7349,-4.6959,-4.6733,-4.6554,-4.6313,-4.6313,-4.6313,-4.6313,-4.6313,-4.6313,-4.6313,-4.6313,-4.6313,-4.6313,-4.6313,-4.6313,-4.6313,-4.6313,-4.6313,-4.6313,-4.6313,-4.6313,-4.6313,-4.6313,-4.6313,-4.6313,-5.9099,-5.9099,-5.9099,-5.9099,-5.9099,-5.9099,-5.9099,-5.9099,-5.9099,-5.9099,-5.9099,-5.9099,-5.9099,-5.9099,-5.9099,-5.9099,-5.9099,-5.9099,-5.9099,-5.9099,-5.9099,-5.9099,-5.9099,-5.9099,-5.9099,-5.9099,-5.9099,-5.9099,-5.9099,-5.9099,-5.9099,-5.9099,-5.9099,-5.9099,-5.9099,-5.8964,-5.871,-5.871,-5.8336,-5.7708,-5.7708,-5.7319,-5.672,-5.672,-5.657,-5.6346,-5.6346,-5.6346,-5.6286,-5.5912,-5.5777,-5.5718,-5.5314,-5.5194,-5.5194,-5.5194,-5.5194,-5.5194,-5.5194,-5.5194,-5.5284,-5.5688,-5.5777,-5.5688,-5.5284,-5.3704,-5.2391,-5.2391,-5.0865,-4.9559,-4.9559,-4.9559,-4.9559,-4.9559,-4.9559,-4.9445,-4.8944,-4.8886,-4.8726,-4.823,-4.8185,-4.8185,-4.8185,-4.8185,-4.8185,-4.8185,-4.8185,-4.8127,-4.7938,-4.7749,-4.7527,-4.7197,-4.7019,-4.6887,-4.6648,-4.6648,-4.6528,-4.6313,-4.6313,-4.6313,-4.6313,-4.6313,-4.6313,-4.6313,-4.6313,-4.6313,-4.6313,-4.6313,-4.6313,-4.6313,-4.6313,-4.6313,-4.6313,-4.6313,-4.6313,-4.6313,-5.9099,-5.9099,-5.9099,-5.9099,-5.9099,-5.9099,-5.9099,-5.9099,-5.9099,-5.9099,-5.9099,-5.9099,-5.9099,-5.9099,-5.9099,-5.9099,-5.9099,-5.9099,-5.9099,-5.9099,-5.9099,-5.9099,-5.9099,-5.9099,-5.9099,-5.9099,-5.9099,-5.9099,-5.9099,-5.9099,-5.9099,-5.9099,-5.9099,-5.9099,-5.9039,-5.868,-5.8126,-5.8052,-5.7633,-5.7019,-5.7019,-5.663,-5.6092,-5.6092,-5.5718,-5.5194,-5.5194,-5.5194,-5.5194,-5.5194,-5.5194,-5.5194,-5.5194,-5.5194,-5.5194,-5.5194,-5.5194,-5.5194,-5.5194,-5.5194,-5.5194,-5.5194,-5.5194,-5.5194,-5.5194,-5.4252,-5.3413,-5.3413,-5.2498,-5.1688,-5.1688,-5.1688,-5.1688,-5.1688,-5.1688,-5.1292,-5.0084,-4.9915,-4.9489,-4.8347,-4.8185,-4.8185,-4.8185,-4.8185,-4.8185,-4.8185,-4.8185,-4.8185,-4.8185,-4.7938,-4.7749,-4.769,-4.7383,-4.7205,-4.7205,-4.7205,-4.6921,-4.6361,-4.6373,-4.6373,-4.6313,-4.6313,-4.6313,-4.6313,-4.6313,-4.6313,-4.6313,-4.6313,-4.6313,-4.6313,-4.6313,-4.6313,-4.6313,-4.6313,-4.6313,-4.6313,-5.9099,-5.9099,-5.9099,-5.9099,-5.9099,-5.9099,-5.9099,-5.9099,-5.9099,-5.9099,-5.9099,-5.9099,-5.9099,-5.9099,-5.9099,-5.9099,-5.9099,-5.9099,-5.9099,-5.9099,-5.9099,-5.9099,-5.9099,-5.9099,-5.9099,-5.9099,-5.9099,-5.9099,-5.9099,-5.9099,-5.9099,-5.9099,-5.9099,-5.9084,-5.856,-5.8261,-5.8097,-5.7543,-5.6959,-5.6428,-5.6428,-5.5987,-5.5403,-5.5403,-5.5314,-5.5194,-5.5194,-5.5194,-5.5194,-5.5194,-5.5194,-5.5194,-5.5194,-5.5194,-5.5194,-5.5194,-5.5194,-5.5194,-5.5194,-5.5194,-5.5194,-5.5194,-5.5194,-5.5194,-5.5194,-5.4252,-5.3413,-5.3413,-5.2498,-5.1688,-5.1688,-5.1688,-5.1688,-5.1688,-5.1688,-5.1292,-5.0084,-4.9915,-4.9489,-4.8347,-4.8185,-4.8185,-4.8185,-4.8185,-4.8185,-4.8185,-4.8185,-4.8185,-4.8185,-4.8127,-4.7997,-4.769,-4.7632,-4.7455,-4.7205,-4.7205,-4.7146,-4.6981,-4.678,-4.6686,-4.6673,-4.6434,-4.6313,-4.6313,-4.6313,-4.6313,-4.6313,-4.6313,-4.6313,-4.6313,-4.6313,-4.6313,-4.6313,-4.6313,-4.6313,-4.6313,-5.9099,-5.9099,-5.9099,-5.9099,-5.9099,-5.9099,-5.9099,-5.9099,-5.9099,-5.9099,-5.9099,-5.9099,-5.9099,-5.9099,-5.9099,-5.9099,-5.9099,-5.9099,-5.9099,-5.9099,-5.9099,-5.9099,-5.9099,-5.9099,-5.9099,-5.9099,-5.9099,-5.9099,-5.9099,-5.9099,-5.9099,-5.8785,-5.8635,-5.8605,-5.7932,-5.7468,-5.7169,-5.681,-5.6286,-5.5703,-5.5703,-5.5493,-5.5194,-5.5194,-5.5194,-5.5194,-5.5194,-5.5194,-5.5194,-5.5194,-5.5194,-5.5194,-5.5194,-5.5194,-5.5194,-5.5194,-5.5194,-5.5194,-5.5194,-5.5194,-5.5194,-5.5194,-5.5194,-5.5194,-5.5194,-5.4692,-5.4237,-5.4237,-5.3756,-5.3375,-5.3375,-5.3375,-5.3375,-5.3375,-5.3375,-5.2779,-5.1017,-5.074,-5.014,-4.8405,-4.8185,-4.8185,-4.8185,-4.8669,-4.8784,-4.8243,-4.8185,-4.8185,-4.8185,-4.8185,-4.8114,-4.7938,-4.7938,-4.788,-4.769,-4.769,-4.769,-4.769,-4.7231,-4.69,-4.6793,-4.6626,-4.6434,-4.6313,-4.6313,-4.6313,-4.6313,-4.6313,-4.6313,-4.6313,-4.6313,-4.6313,-4.6313,-4.6313,-4.6313,-4.6313,-5.8755,-5.886,-5.8934,-5.8934,-5.9024,-5.9099,-5.9099,-5.9099,-5.9099,-5.9099,-5.9099,-5.9099,-5.9099,-5.9099,-5.9099,-5.9099,-5.9099,-5.9099,-5.9099,-5.9099,-5.9099,-5.9099,-5.9099,-5.9054,-5.8934,-5.8934,-5.8994,-5.9099,-5.8994,-5.8934,-5.8919,-5.8261,-5.7947,-5.7917,-5.7244,-5.666,-5.6218,-5.6098,-5.5688,-5.5194,-5.5194,-5.5194,-5.5194,-5.5194,-5.5194,-5.5194,-5.5194,-5.5194,-5.5194,-5.5194,-5.5194,-5.5194,-5.5194,-5.5194,-5.5194,-5.5194,-5.5194,-5.5194,-5.5194,-5.5194,-5.5194,-5.5194,-5.5194,-5.5194,-5.5194,-5.5194,-5.5194,-5.5194,-5.5194,-5.5194,-5.5194,-5.5194,-5.5194,-5.5194,-5.5194,-5.4473,-5.2284,-5.2014,-5.1196,-4.9058,-4.8784,-4.8784,-4.8784,-4.9646,-4.9759,-4.8566,-4.8508,-4.8405,-4.8185,-4.8185,-4.8185,-4.8185,-4.8185,-4.8185,-4.8185,-4.8185,-4.8185,-4.8185,-4.7632,-4.7231,-4.6972,-4.69,-4.6673,-4.6373,-4.6373,-4.6373,-4.6313,-4.6313,-4.6313,-4.6313,-4.6313,-4.6313,-4.6313,-4.6313,-4.6313,-4.6313,-5.7363,-5.7842,-5.8261,-5.8261,-5.8725,-5.9099,-5.9099,-5.9099,-5.9099,-5.9099,-5.9099,-5.9099,-5.9099,-5.9099,-5.9099,-5.9099,-5.9099,-5.9099,-5.9099,-5.9099,-5.9099,-5.9099,-5.9099,-5.8845,-5.8276,-5.8261,-5.853,-5.9099,-5.853,-5.8261,-5.8246,-5.7558,-5.7229,-5.7214,-5.6585,-5.6308,-5.6188,-5.5568,-5.5269,-5.5194,-5.5194,-5.5194,-5.5194,-5.5194,-5.5194,-5.5194,-5.5194,-5.5194,-5.5194,-5.5194,-5.5194,-5.5194,-5.5194,-5.5194,-5.5194,-5.5194,-5.5194,-5.5194,-5.5194,-5.5194,-5.5194,-5.5194,-5.5194,-5.5194,-5.5194,-5.5194,-5.5194,-5.5194,-5.5194,-5.5194,-5.5194,-5.5194,-5.5194,-5.5194,-5.5194,-5.4743,-5.3361,-5.3189,-5.2712,-5.1361,-5.1251,-5.1251,-5.1251,-5.1361,-5.0962,-4.9745,-4.9702,-4.9274,-4.823,-4.8185,-4.8185,-4.8185,-4.8185,-4.8185,-4.8185,-4.8185,-4.8185,-4.8185,-4.8127,-4.788,-4.7586,-4.7277,-4.6993,-4.6733,-4.6733,-4.6554,-4.6313,-4.6313,-4.6313,-4.6313,-4.6313,-4.6313,-4.6313,-4.6313,-4.6313,-4.6313,-5.7146,-5.7334,-5.7543,-5.7543,-5.7782,-5.7977,-5.7977,-5.7977,-5.7977,-5.7977,-5.7977,-5.8126,-5.8515,-5.889,-5.9099,-5.9099,-5.9099,-5.8949,-5.8575,-5.856,-5.8381,-5.8007,-5.7977,-5.7842,-5.7558,-5.7543,-5.7693,-5.7977,-5.7693,-5.7543,-5.7528,-5.6885,-5.6585,-5.6555,-5.5912,-5.5628,-5.5598,-5.5314,-5.5194,-5.5194,-5.5194,-5.5194,-5.5194,-5.5194,-5.5194,-5.5194,-5.5194,-5.5194,-5.5194,-5.5194,-5.5194,-5.5194,-5.5194,-5.5194,-5.5194,-5.5194,-5.5194,-5.5194,-5.5194,-5.5194,-5.5194,-5.5194,-5.5194,-5.5194,-5.5194,-5.5194,-5.5194,-5.5194,-5.5194,-5.5194,-5.5194,-5.5194,-5.5194,-5.5194,-5.5194,-5.4794,-5.3571,-5.3413,-5.2977,-5.1851,-5.2269,-5.2391,-5.1743,-5.2284,-5.1892,-5.0028,-4.9915,-4.9375,-4.8243,-4.8185,-4.8185,-4.8185,-4.8185,-4.8185,-4.8185,-4.8185,-4.8185,-4.8185,-4.8185,-4.7997,-4.769,-4.7573,-4.7231,-4.6806,-4.6806,-4.6614,-4.6313,-4.6313,-4.6313,-4.6313,-4.6313,-4.6313,-4.6313,-4.6313,-4.6313,-4.6313]},{"header":{"parameterUnit":"m.s-1","parameterCategory":1,"la1":30.6,"la2":28.766,"lo1":-90.7593,"lo2":-88.6598,"dy":0.0162,"dx":0.0183,"nx":116,"ny":114,"refTime":"2023-06-14T06:00:00:Z","depth":0,"parameterNumber":3,"parameterNumberName":"V-component_of_WINDS"},"data":[0.0,0.0,0.0,0.0,0.0,0.0,0.0,0.0,0.0,0.0,0.0,0.0,0.0,0.0,0.0,0.0,0.0,0.0,0.0,0.0,0.0,0.0,0.0,0.0,0.0,0.0,0.0,0.0,0.0,0.0,0.0,0.0,0.0,0.0,0.0,0.0,0.0,0.0,0.0,0.0,0.0,0.0,0.0,0.0,0.0,0.0,0.0,0.0,0.0,0.0,0.0,0.0,0.0,0.0,0.0,0.0,0.0,0.0,0.0,0.0,0.0,0.0,0.0,0.0,0.0,0.0,0.0,0.0,0.0,0.0,0.0,0.0,0.0,0.0,0.0,0.0,0.0,0.0,0.0,0.0,0.0,0.0,0.0,0.0,0.0,0.0,0.0,0.0,0.0,0.0,0.0,0.0,0.0,0.0,0.0,0.0,0.0,0.0,0.0,0.0,0.0,0.0,0.0,0.0,0.0,0.0,0.0,0.0,0.0,0.0,0.0,0.0,0.0,0.0,0.0,0.0,0.0,0.0,0.0,0.0,0.0,0.0,0.0,0.0,0.0,0.0,0.0,0.0,0.0,0.0,0.0,0.0,0.0,0.0,0.0,0.0,0.0,0.0,0.0,0.0,0.0,0.0,0.0,0.0,0.0,0.0,0.0,0.0,0.0,0.0,0.0,0.0,0.0,0.0,0.0,0.0,0.0,0.0,0.0,0.0,0.0,0.0,0.0,0.0,0.0,0.0,0.0,0.0,0.0,0.0,0.0,0.0,0.0,0.0,0.0,0.0,0.0,0.0,0.0,0.0,0.0,0.0,0.0,0.0,0.0,0.0,0.0,0.0,0.0,0.0,0.0,0.0,0.0,0.0,0.0,0.0,0.0,0.0,0.0,0.0,0.0,0.0,0.0,0.0,0.0,0.0,0.0,0.0,0.0,0.0,0.0,0.0,0.0,0.0,0.0,0.0,0.0,0.0,0.0,0.0,0.0,0.0,0.0,0.0,0.0,0.0,0.0,0.0,0.0,0.0,0.0,0.0,0.0,0.0,0.0,0.0,0.0,0.0,0.0,0.0,0.0,0.0,0.0,0.0,0.0,0.0,0.0,0.0,0.0,0.0,0.0,0.0,0.0,0.0,0.0,0.0,0.0,0.0,0.0,0.0,0.0,0.0,0.0,0.0,0.0,0.0,0.0,0.0,0.0,0.0,0.0,0.0,0.0,0.0,0.0,0.0,0.0,0.0,0.0,0.0,0.0,0.0,0.0,0.0,0.0,0.0,0.0,0.0,0.0,0.0,0.0,0.0,0.0,0.0,0.0,0.0,0.0,0.0,0.0,0.0,0.0,0.0,0.0,0.0,0.0,0.0,0.0,0.0,0.0,0.0,0.0,0.0,0.0,0.0,0.0,0.0,0.0,0.0,0.0,0.0,0.0,0.0,0.0,0.0,0.0,0.0,0.0,0.0,0.0,0.0,0.0,0.0,0.0,0.0,0.0,0.0,0.0,0.0,0.0,0.0,0.0,0.0,0.0,0.0,0.0,0.0,0.0,0.0,0.0,0.0,0.0,0.0,0.0,0.0,0.0,0.0,0.0,0.0,0.0,0.0,0.0,0.0,0.0,0.0,0.0,0.0,0.0,0.0,0.0,0.0,0.0,0.0,0.0,0.0,0.0,0.0,0.0,0.0,0.0,0.0,0.0,0.0,0.0,0.0,0.0,0.0,0.0,0.0,0.0,0.0,0.0,0.0,0.0,0.0,0.0,0.0,0.0,0.0,0.0,0.0,0.0,0.0,0.0,0.0,0.0,0.0,0.0,0.0,0.0,0.0,0.0,0.0,0.0,0.0,0.0,0.0,0.0,0.0,0.0,0.0,0.0,0.0,0.0,0.0,0.0,0.0,0.0,0.0,0.0,0.0,0.0,0.0,0.0,0.0,0.0,0.0,0.0,0.0,0.0,0.0,0.0,0.0,0.0,0.0,0.0,0.0,0.0,0.0,0.0,0.0,0.0,0.0,0.0,0.0,0.0,0.0,0.0,0.0,0.0,0.0,0.0,0.0,0.0,0.0,0.0,0.0,0.0,0.0,0.0,0.0,0.0,0.0,0.0,0.0,0.0,0.0,0.0,0.0,0.0,0.0,0.0,0.0,0.0,0.0,0.0,0.0,0.0,0.0,0.0,0.0,0.0,0.0,0.0,0.0,0.0,0.0,0.0,0.0,0.0,0.0,0.0,0.0,0.0,0.0,0.0,0.0,0.0,0.0,0.0,0.0,0.0,0.0,0.0,0.0,0.0,0.0,0.0,0.0,0.0,0.0,0.0,0.0,0.0,0.0,0.0,0.0,0.0,0.0,0.0,0.0,0.0,0.0,0.0,0.0,0.0,0.0,0.0,0.0,0.0,0.0,0.0,0.0,0.0,0.0,0.0,0.0,0.0,0.0,0.0,0.0,0.0,0.0,0.0,0.0,0.0,0.0,0.0,0.0,0.0,0.0,0.0,0.0,0.0,0.0,0.0,0.0,0.0,0.0,0.0,0.0,0.0,0.0,0.0,0.0,0.0,0.0,0.0,0.0,0.0,0.0,0.0,0.0,0.0,0.0,0.0,0.0,0.0,0.0,0.0,0.0,0.0,0.0,0.0,0.0,0.0,0.0,0.0,0.0,0.0,0.0,0.0,0.0,0.0,0.0,0.0,0.0,0.0,0.0,0.0,0.0,0.0,0.0,0.0,0.0,0.0,0.0,0.0,0.0,0.0,0.0,0.0,0.0,0.0,0.0,0.0,0.0,0.0,0.0,0.0,0.0,0.0,0.0,0.0,0.0,0.0,0.0,0.0,0.0,0.0,0.0,0.0,0.0,0.0,0.0,0.0,0.0,0.0,0.0,0.0,0.0,0.0,0.0,0.0,0.0,0.0,0.0,0.0,0.0,0.0,0.0,0.0,0.0,0.0,0.0,0.0,0.0,0.0,0.0,0.0,0.0,0.0,0.0,0.0,0.0,0.0,0.0,0.0,0.0,0.0,0.0,0.0,0.0,0.0,0.0,0.0,0.0,0.0,0.0,0.0,0.0,0.0,0.0,0.0,0.0,0.0,0.0,0.0,0.0,0.0,0.0,0.0,0.0,0.0,0.0,0.0,0.0,0.0,0.0,0.0,0.0,0.0,0.0,0.0,0.0,0.0,0.0,0.0,0.0,0.0,0.0,0.0,0.0,0.0,0.0,0.0,0.0,0.0,0.0,0.0,0.0,0.0,0.0,0.0,0.0,0.0,0.0,0.0,0.0,0.0,0.0,0.0,0.0,0.0,0.0,0.0,0.0,0.0,0.0,0.0,0.0,0.0,0.0,0.0,0.0,0.0,0.0,0.0,0.0,0.0,0.0,0.0,0.0,0.0,0.0,0.0,0.0,0.0,0.0,0.0,0.0,0.0,0.0,0.0,0.0,0.0,0.0,0.0,0.0,0.0,0.0,0.0,0.0,0.0,0.0,0.0,0.0,0.0,0.0,0.0,0.0,0.0,0.0,0.0,0.0,0.0,0.0,0.0,0.0,0.0,0.0,0.0,0.0,0.0,0.0,0.0,0.0,0.0,0.0,0.0,0.0,0.0,0.0,0.0,0.0,0.0,0.0,0.0,0.0,0.0,0.0,0.0,0.0,0.0,0.0,0.0,0.0,0.0,0.0,0.0,0.0,0.0,0.0,0.0,0.0,0.0,0.0,0.0,0.0,0.0,0.0,0.0,0.0,0.0,0.0,0.0,0.0,0.0,0.0,0.0,0.0,0.0,0.0,0.0,0.0,0.0,0.0,0.0,0.0,0.0,0.0,0.0,0.0,0.0,0.0,0.0,0.0,0.0,0.0,0.0,0.0,0.0,0.0,0.0,0.0,0.0,0.0,0.0,0.0,0.0,0.0,0.0,0.0,0.0,0.0,0.0,0.0,0.0,0.0,0.0,0.0,0.0,0.0,0.0,0.0,0.0,0.0,0.0,0.0,0.0,0.0,0.0,0.0,0.0,0.0,0.0,0.0,0.0,0.0,0.0,0.0,0.0,0.0,0.0,0.0,0.0,0.0,0.0,0.0,0.0,0.0,0.0,0.0,0.0,0.0,0.0,0.0,0.0,0.0,0.0,0.0,0.0,0.0,0.0,0.0,0.0,0.0,0.0,0.0,0.0,0.0,0.0,0.0,0.0,0.0,0.0,0.0,0.0,0.0,0.0,0.0,0.0,0.0,0.0,0.0,0.0,0.0,0.0,0.0,0.0,0.0,0.0,0.0,0.0,0.0,0.0,0.0,0.0,0.0,0.0,0.0,0.0,0.0,0.0,0.0,0.0,0.0,0.0,0.0,0.0,0.0,0.0,0.0,0.0,0.0,0.0,0.0,0.0,0.0,0.0,0.0,0.0,0.0,0.0,0.0,0.0,0.0,0.0,0.0,0.0,0.0,0.0,0.0,0.0,0.0,0.0,0.0,0.0,0.0,0.0,0.0,0.0,0.0,0.0,0.0,0.0,0.0,0.0,0.0,0.0,0.0,0.0,0.0,0.0,0.0,0.0,0.0,0.0,0.0,0.0,0.0,0.0,0.0,0.0,0.0,0.0,0.0,0.0,0.0,0.0,0.0,0.0,0.0,0.0,0.0,0.0,0.0,0.0,0.0,0.0,0.0,0.0,0.0,0.0,0.0,0.0,0.0,0.0,0.0,0.0,0.0,0.0,0.0,0.0,0.0,0.0,0.0,0.0,0.0,0.0,0.0,0.0,0.0,0.0,0.0,0.0,0.0,0.0,0.0,0.0,0.0,0.0,0.0,0.0,0.0,0.0,0.0,0.0,0.0,0.0,0.0,0.0,0.0,0.0,0.0,0.0,0.0,0.0,0.0,0.0,0.0,0.0,0.0,0.0,0.0,0.0,0.0,0.0,0.0,0.0,0.0,0.0,0.0,0.0,0.0,0.0,0.0,0.0,0.0,0.0,0.0,0.0,0.0,0.0,0.0,0.0,0.0,0.0,0.0,0.0,0.0,0.0,0.0,0.0,0.0,0.0,0.0,0.0,0.0,0.0,0.0,0.0,0.0,0.0,0.0,0.0,0.0,0.0,0.0,0.0,0.0,0.0,0.0,0.0,0.0,0.0,0.0,0.0,0.0,0.0,0.0,0.0,0.0,0.0,0.0,0.0,0.0,0.0,0.0,0.0,0.0,0.0,0.0,0.0,0.0,0.0,0.0,0.0,0.0,0.0,0.0,0.0,0.0,0.0,0.0,0.0,0.0,0.0,0.0,0.0,0.0,0.0,0.0,0.0,0.0,0.0,0.0,0.0,0.0,0.0,0.0,0.0,0.0,0.0,0.0,0.0,0.0,0.0,0.0,0.0,0.0,0.0,0.0,0.0,0.0,0.0,0.0,0.0,0.0,0.0,0.0,0.0,0.0,0.0,0.0,0.0,0.0,0.0,0.0,0.0,0.0,0.0,0.0,0.0,0.0,0.0,0.0,0.0,0.0,0.0,0.0,0.0,0.0,0.0,0.0,0.0,0.0,0.0,0.0,0.0,0.0,0.0,0.0,0.0,0.0,0.0,0.0,0.0,0.0,0.0,0.0,0.0,0.0,0.0,0.0,0.0,0.0,0.0,0.0,0.0,0.0,0.0,0.0,0.0,0.0,0.0,0.0,0.0,0.0,0.0,0.0,0.0,0.0,0.0,0.0,0.0,0.0,0.0,0.0,0.0,0.0,0.0,0.0,0.0,0.0,0.0,0.0,0.0,0.0,0.0,0.0,0.0,0.0,0.0,0.0,0.0,0.0,0.0,0.0,0.0,0.0,0.0,0.0,0.0,0.0,0.0,0.0,0.0,0.0,0.0,0.0,0.0,0.0,0.0,0.0,0.0,0.0,0.0,0.0,0.0,0.0,0.0,0.0,0.0,0.0,0.0,0.0,0.0,0.0,0.0,0.0,0.0,0.0,0.0,0.0,0.0,0.0,0.0,0.0,0.0,0.0,0.0,0.0,0.0,0.0,0.0,0.0,0.0,0.0,0.0,0.0,0.0,0.0,0.0,0.0,0.0,0.0,0.0,0.0,0.0,0.0,0.0,0.0,0.0,0.0,0.0,0.0,0.0,0.0,0.0,0.0,-4.6157,-4.6157,0.0,0.0,0.0,0.0,0.0,0.0,0.0,0.0,0.0,0.0,0.0,0.0,0.0,0.0,0.0,0.0,0.0,0.0,0.0,0.0,0.0,0.0,0.0,0.0,0.0,0.0,0.0,0.0,0.0,0.0,0.0,0.0,0.0,0.0,0.0,0.0,0.0,0.0,0.0,0.0,0.0,0.0,0.0,0.0,0.0,0.0,0.0,0.0,0.0,0.0,0.0,0.0,0.0,0.0,0.0,0.0,0.0,0.0,0.0,0.0,0.0,0.0,0.0,0.0,0.0,0.0,0.0,0.0,0.0,0.0,0.0,0.0,0.0,0.0,0.0,0.0,0.0,0.0,0.0,0.0,0.0,0.0,0.0,0.0,0.0,0.0,0.0,0.0,0.0,0.0,0.0,0.0,0.0,0.0,0.0,0.0,0.0,0.0,0.0,0.0,0.0,0.0,0.0,0.0,0.0,0.0,0.0,0.0,0.0,0.0,0.0,0.0,0.0,0.0,-4.688,-4.6603,0.0,0.0,0.0,0.0,0.0,0.0,0.0,0.0,0.0,0.0,0.0,0.0,0.0,0.0,0.0,0.0,0.0,0.0,0.0,0.0,0.0,0.0,0.0,0.0,0.0,0.0,0.0,0.0,0.0,0.0,0.0,0.0,0.0,0.0,0.0,0.0,0.0,0.0,0.0,0.0,0.0,0.0,0.0,0.0,0.0,0.0,0.0,0.0,0.0,0.0,0.0,0.0,0.0,0.0,0.0,0.0,0.0,0.0,0.0,0.0,0.0,0.0,0.0,0.0,0.0,0.0,0.0,0.0,0.0,0.0,0.0,0.0,0.0,0.0,0.0,0.0,0.0,0.0,0.0,0.0,0.0,0.0,0.0,0.0,0.0,0.0,0.0,0.0,0.0,0.0,0.0,0.0,0.0,0.0,0.0,0.0,0.0,0.0,0.0,0.0,0.0,0.0,0.0,0.0,0.0,0.0,0.0,0.0,-4.708,-4.7065,-4.6973,-4.765,-4.8204,-4.8558,-4.7434,-4.7096,-4.7311,-4.7188,0.0,0.0,0.0,0.0,0.0,0.0,0.0,0.0,0.0,0.0,0.0,0.0,0.0,0.0,0.0,0.0,0.0,0.0,0.0,0.0,0.0,0.0,0.0,0.0,0.0,0.0,0.0,0.0,0.0,0.0,0.0,0.0,0.0,0.0,0.0,0.0,0.0,0.0,0.0,0.0,0.0,0.0,0.0,0.0,0.0,0.0,0.0,0.0,0.0,0.0,0.0,0.0,0.0,0.0,0.0,0.0,0.0,0.0,0.0,0.0,0.0,0.0,0.0,0.0,0.0,0.0,0.0,0.0,0.0,0.0,0.0,0.0,0.0,0.0,0.0,0.0,0.0,0.0,0.0,0.0,0.0,0.0,0.0,0.0,0.0,0.0,-4.3949,-4.3949,0.0,0.0,0.0,0.0,0.0,0.0,0.0,0.0,0.0,0.0,0.0,0.0,0.0,-4.6502,-4.7302,-4.7871,-4.8209,-4.8358,-4.8989,-4.8958,-4.8373,-4.9081,-4.9112,-4.8604,-4.8419,0.0,-5.0112,-4.9528,0.0,0.0,0.0,0.0,0.0,0.0,0.0,0.0,0.0,0.0,0.0,0.0,0.0,0.0,0.0,0.0,0.0,0.0,0.0,0.0,0.0,0.0,0.0,0.0,0.0,0.0,0.0,0.0,0.0,0.0,0.0,0.0,0.0,0.0,0.0,0.0,0.0,0.0,0.0,0.0,0.0,0.0,0.0,0.0,0.0,0.0,0.0,0.0,0.0,0.0,0.0,0.0,0.0,0.0,0.0,0.0,0.0,0.0,0.0,0.0,0.0,0.0,0.0,0.0,0.0,0.0,0.0,0.0,0.0,0.0,0.0,0.0,0.0,0.0,0.0,0.0,0.0,0.0,0.0,0.0,0.0,0.0,0.0,0.0,0.0,-4.4384,-4.473,-4.473,-4.4883,-4.5097,0.0,0.0,0.0,0.0,0.0,0.0,0.0,0.0,0.0,-4.7265,-4.7492,-4.7983,-4.8773,-4.9066,-4.9404,-4.9789,-4.9712,-4.9528,-4.922,-4.9127,-4.9127,-4.922,-4.922,-5.0005,-5.1144,-4.9682,-4.9081,-4.9097,0.0,0.0,0.0,0.0,-5.022,-5.0774,0.0,0.0,0.0,0.0,0.0,0.0,0.0,0.0,0.0,0.0,0.0,0.0,0.0,0.0,0.0,0.0,0.0,0.0,0.0,0.0,0.0,0.0,0.0,0.0,0.0,0.0,0.0,0.0,0.0,0.0,0.0,0.0,0.0,0.0,0.0,0.0,0.0,0.0,0.0,0.0,0.0,0.0,0.0,0.0,0.0,0.0,0.0,0.0,0.0,0.0,0.0,0.0,0.0,0.0,0.0,0.0,0.0,0.0,0.0,0.0,0.0,0.0,0.0,0.0,0.0,0.0,0.0,0.0,0.0,0.0,0.0,0.0,0.0,0.0,0.0,0.0,0.0,-4.4965,-4.5535,-4.5535,-4.5706,-4.5915,0.0,0.0,0.0,0.0,0.0,0.0,-4.6804,-4.7528,-4.8208,-4.8866,-4.8881,-4.9235,-4.9943,-5.0112,-5.0451,-5.0944,-5.0436,-5.0112,-4.9928,-4.9204,-4.9174,-4.9697,-4.9866,-5.062,-5.1575,-4.9851,-4.9251,-4.9435,-4.9805,-5.0359,-5.0928,-5.0759,-5.1236,-5.1882,0.0,0.0,0.0,0.0,0.0,0.0,0.0,0.0,0.0,0.0,0.0,0.0,0.0,0.0,0.0,0.0,0.0,0.0,0.0,0.0,0.0,0.0,0.0,0.0,0.0,0.0,0.0,0.0,0.0,0.0,0.0,0.0,0.0,0.0,0.0,0.0,0.0,0.0,0.0,0.0,0.0,0.0,0.0,0.0,0.0,0.0,0.0,0.0,0.0,0.0,0.0,0.0,0.0,0.0,0.0,0.0,0.0,0.0,0.0,0.0,0.0,0.0,0.0,0.0,0.0,0.0,0.0,0.0,0.0,0.0,0.0,0.0,0.0,0.0,0.0,0.0,0.0,0.0,0.0,-4.6238,-4.5703,0.0,0.0,0.0,0.0,-4.6826,-4.7718,-4.8194,-4.8194,-4.9078,-4.9605,-4.9635,-4.9635,-4.9959,-5.0636,-5.1282,-5.1621,-5.1652,-5.1621,-5.1267,-5.062,-4.9943,-4.9651,-4.9728,-5.0359,-5.1051,-5.1636,-5.0897,-5.0974,-5.1482,-5.0882,-5.1051,-5.1575,-5.0928,-5.1528,-5.2652,0.0,0.0,0.0,0.0,0.0,0.0,0.0,0.0,0.0,0.0,0.0,0.0,0.0,0.0,0.0,0.0,0.0,0.0,0.0,0.0,0.0,0.0,0.0,0.0,0.0,0.0,0.0,0.0,0.0,0.0,0.0,0.0,0.0,0.0,0.0,0.0,0.0,0.0,0.0,0.0,0.0,0.0,0.0,0.0,0.0,0.0,0.0,0.0,0.0,0.0,0.0,0.0,0.0,0.0,0.0,0.0,0.0,0.0,0.0,0.0,0.0,0.0,0.0,0.0,0.0,0.0,0.0,0.0,0.0,0.0,0.0,0.0,0.0,0.0,0.0,0.0,0.0,0.0,0.0,-4.6484,-4.615,0.0,-4.7666,-4.7395,-4.7572,-4.8645,-4.9021,-4.9186,-4.9186,-4.9501,-5.0082,-5.0959,-5.099,-5.1313,-5.199,-5.2236,-5.2344,-5.2344,-5.1913,-5.1805,-5.1959,-5.1282,-5.1221,-5.1652,-5.1882,-5.2375,-5.2975,-5.2744,-5.2529,-5.2375,-5.2575,-5.279,-5.3021,-5.3221,-5.3606,-5.396,0.0,0.0,0.0,0.0,0.0,0.0,0.0,0.0,0.0,0.0,0.0,0.0,0.0,0.0,0.0,0.0,0.0,0.0,0.0,0.0,0.0,0.0,0.0,0.0,0.0,0.0,0.0,0.0,0.0,0.0,0.0,0.0,0.0,0.0,0.0,0.0,0.0,0.0,0.0,0.0,0.0,0.0,-4.911,0.0,0.0,0.0,0.0,0.0,0.0,0.0,0.0,0.0,0.0,0.0,0.0,0.0,0.0,0.0,0.0,0.0,0.0,0.0,0.0,0.0,0.0,0.0,0.0,0.0,0.0,0.0,0.0,0.0,0.0,0.0,0.0,0.0,0.0,-4.6163,-4.6441,-4.6791,-4.6781,-4.7226,-4.847,-4.8495,-4.8745,-4.962,-4.9897,-5.0128,-5.0359,-5.059,-5.1113,-5.2021,-5.2052,-5.2252,-5.2713,-5.2713,-5.2821,-5.3037,-5.2375,-5.2406,-5.3021,-5.2344,-5.2406,-5.3067,-5.3298,-5.3775,-5.4406,-5.4637,-5.4483,-5.4083,-5.4068,-5.4022,-5.4068,-5.4529,-5.4821,-5.5131,0.0,0.0,0.0,0.0,0.0,0.0,0.0,0.0,0.0,0.0,0.0,0.0,0.0,0.0,0.0,0.0,0.0,0.0,0.0,0.0,0.0,0.0,0.0,0.0,0.0,0.0,0.0,0.0,0.0,0.0,0.0,0.0,0.0,0.0,0.0,0.0,0.0,0.0,0.0,0.0,0.0,0.0,-4.9177,0.0,0.0,0.0,0.0,0.0,0.0,0.0,0.0,0.0,0.0,0.0,0.0,0.0,0.0,0.0,0.0,0.0,0.0,0.0,0.0,0.0,0.0,0.0,0.0,0.0,0.0,0.0,0.0,0.0,0.0,0.0,0.0,0.0,-4.6179,-4.6194,-4.6599,-4.7288,-4.7497,-4.7881,-4.8604,-4.8681,-4.8989,-4.9728,-5.0389,-5.1051,-5.1698,-5.2359,-5.2713,-5.2713,-5.2713,-5.2713,-5.2713,-5.2729,-5.3083,-5.3714,-5.3083,-5.3129,-5.376,-5.3098,-5.3175,-5.3852,-5.4468,-5.5145,-5.5776,-5.6484,-5.6761,-5.6638,-5.5299,-5.4745,-5.4745,-5.4745,-5.5191,-5.5965,0.0,0.0,0.0,0.0,0.0,0.0,0.0,0.0,0.0,0.0,0.0,0.0,0.0,0.0,0.0,0.0,0.0,0.0,0.0,0.0,0.0,0.0,0.0,0.0,0.0,0.0,0.0,0.0,0.0,0.0,0.0,0.0,0.0,0.0,0.0,0.0,0.0,0.0,0.0,0.0,0.0,0.0,-5.0719,0.0,0.0,0.0,0.0,0.0,0.0,0.0,0.0,0.0,0.0,0.0,0.0,0.0,0.0,0.0,0.0,0.0,0.0,0.0,0.0,0.0,0.0,0.0,0.0,0.0,0.0,0.0,0.0,0.0,0.0,0.0,-4.7394,-4.7232,-4.6966,-4.714,-4.7492,-4.8183,-4.7855,-4.8266,-4.9959,-5.0128,-5.0605,-5.179,-5.2052,-5.2236,-5.2421,-5.2606,-5.2713,-5.2713,-5.2713,-5.2713,-5.2713,-5.3206,-5.3545,-5.3729,-5.4037,-5.4514,-5.5145,-5.4961,-5.5253,-5.5946,-5.6115,-5.6347,-5.6484,-5.6491,-5.6519,-5.6473,-5.6298,-5.6207,-5.6207,-5.6207,-5.6315,-5.6548,0.0,0.0,0.0,0.0,0.0,0.0,0.0,0.0,0.0,0.0,0.0,0.0,0.0,0.0,0.0,0.0,0.0,0.0,0.0,0.0,0.0,0.0,0.0,0.0,0.0,0.0,0.0,0.0,0.0,0.0,0.0,0.0,0.0,0.0,0.0,0.0,0.0,0.0,0.0,0.0,0.0,0.0,-5.1315,-5.1315,-5.1779,-5.2359,-5.1928,-5.1779,-5.1713,-5.1264,0.0,0.0,0.0,0.0,0.0,0.0,0.0,0.0,0.0,0.0,0.0,0.0,0.0,0.0,0.0,0.0,0.0,0.0,0.0,0.0,0.0,0.0,0.0,0.0,-4.7436,-4.7507,-4.7799,-4.7707,-4.785,-4.8543,-4.8789,-4.9481,-5.0974,-5.1374,-5.1867,-5.2652,-5.2713,-5.2713,-5.2713,-5.2713,-5.2713,-5.2713,-5.2713,-5.2852,-5.3129,-5.3529,-5.3991,-5.4545,-5.4945,-5.5484,-5.6146,-5.6146,-5.6361,-5.681,-5.681,-5.681,-5.6761,-5.6616,-5.6519,-5.6421,0.0,0.0,0.0,0.0,-5.6616,-5.6713,0.0,0.0,0.0,0.0,0.0,0.0,0.0,0.0,0.0,0.0,0.0,0.0,0.0,0.0,0.0,0.0,0.0,0.0,0.0,0.0,0.0,0.0,0.0,0.0,0.0,0.0,0.0,0.0,0.0,0.0,0.0,0.0,0.0,0.0,0.0,0.0,0.0,0.0,0.0,0.0,0.0,0.0,-5.1431,-5.1431,-5.1846,-5.2409,-5.2409,-5.2409,-5.2409,-5.2409,0.0,0.0,0.0,0.0,0.0,0.0,0.0,0.0,0.0,0.0,0.0,0.0,0.0,0.0,0.0,0.0,0.0,0.0,0.0,0.0,0.0,0.0,0.0,0.0,-4.7282,-4.805,-4.865,-4.8343,-4.8296,-4.8897,-5.0051,-5.1082,-5.1759,-5.2359,-5.2713,-5.2713,-5.2713,-5.2713,-5.2713,-5.2713,0.0,0.0,0.0,-5.3114,-5.3668,-5.3868,-5.453,-5.5684,-5.5776,-5.6146,-5.681,-5.6761,-5.6761,-5.681,-5.6761,-5.6761,-5.6761,-5.6713,-5.6519,-5.6274,-5.6127,-5.6028,-5.6077,-5.6372,-5.647,-5.66,0.0,0.0,0.0,0.0,0.0,0.0,0.0,0.0,0.0,0.0,0.0,0.0,0.0,0.0,0.0,0.0,0.0,0.0,0.0,0.0,0.0,0.0,0.0,0.0,0.0,0.0,0.0,0.0,0.0,0.0,0.0,0.0,0.0,0.0,0.0,0.0,0.0,0.0,0.0,0.0,0.0,0.0,-5.221,-5.221,-5.2293,-5.2409,-5.2409,-5.2409,-5.2409,-5.2409,-5.2409,-5.2409,-5.2409,0.0,0.0,0.0,0.0,0.0,0.0,0.0,0.0,0.0,0.0,0.0,0.0,0.0,0.0,0.0,0.0,0.0,0.0,0.0,0.0,-4.8034,-4.8778,-4.9328,-4.9466,-5.0313,-5.0959,-5.1097,-5.1344,-5.1775,-5.2452,-5.2637,-5.2713,-5.2713,-5.2713,-5.2713,-5.2713,-5.2713,-5.2713,-5.2713,-5.3237,-5.3591,-5.3729,-5.4776,-5.5438,-5.5699,-5.6284,0.0,-5.681,-5.6567,-5.6616,-5.6761,-5.6567,-5.647,-5.647,-5.6225,-5.588,-5.5481,-5.6077,-5.6323,-5.6372,-5.6616,-5.6713,-5.6713,0.0,0.0,0.0,0.0,0.0,0.0,0.0,0.0,0.0,0.0,0.0,0.0,0.0,0.0,0.0,0.0,0.0,0.0,0.0,0.0,0.0,0.0,0.0,0.0,0.0,0.0,0.0,0.0,0.0,0.0,0.0,0.0,0.0,0.0,0.0,0.0,0.0,0.0,0.0,0.0,0.0,0.0,-5.2409,-5.2409,-5.2409,-5.2409,-5.2409,-5.2409,-5.2409,-5.2409,-5.2409,-5.2409,-5.2409,-5.2409,-5.2409,0.0,0.0,0.0,0.0,0.0,0.0,0.0,0.0,0.0,0.0,0.0,0.0,0.0,0.0,-4.7268,0.0,0.0,-4.7928,-4.881,-4.9351,-4.9928,-5.0605,-5.1282,-5.1698,-5.1698,-5.2006,-5.2344,-5.2683,-5.2713,-5.2713,-5.2713,-5.2713,-5.2713,-5.2713,-5.2713,-5.2867,-5.3206,-5.3545,-5.3945,-5.4512,-5.5313,-5.5821,-5.603,-5.6447,-5.6616,-5.6616,-5.6323,-5.6274,-5.6372,-5.6274,-5.6225,-5.6176,-5.5929,-5.5631,-5.5431,-5.583,-5.5929,-5.583,-5.6127,-5.6225,-5.6225,0.0,0.0,0.0,0.0,0.0,0.0,0.0,0.0,0.0,0.0,0.0,0.0,0.0,0.0,0.0,0.0,0.0,0.0,0.0,0.0,0.0,0.0,0.0,0.0,0.0,0.0,0.0,0.0,0.0,0.0,0.0,0.0,0.0,0.0,0.0,0.0,0.0,0.0,0.0,0.0,0.0,0.0,-5.2409,-5.2409,-5.2409,-5.2409,-5.2409,-5.2409,-5.2409,-5.2409,-5.2409,-5.2409,-5.2409,-5.2409,-5.2409,-5.2409,-5.2409,0.0,0.0,0.0,0.0,0.0,0.0,0.0,0.0,0.0,-4.7624,-4.7681,-4.7794,-4.7922,-4.8007,-4.8133,-4.8473,-4.9173,-4.9646,-5.0313,-5.1469,-5.1761,-5.1898,-5.1794,-5.233,-5.2713,-5.2713,-5.2713,-5.2713,-5.2713,-5.2713,-5.2713,-5.2713,-5.2837,-5.3114,-5.3607,-5.3883,-5.4435,-5.5302,-5.5584,-5.6,-5.6421,-5.6372,-5.6323,-5.6323,-5.6028,-5.5929,-5.5979,-5.5929,-5.5929,-5.588,-5.5631,-5.5531,-5.5531,-5.5531,-5.5381,-5.5244,-5.5581,-5.5681,-5.5681,0.0,0.0,0.0,0.0,0.0,0.0,0.0,0.0,0.0,0.0,0.0,0.0,0.0,0.0,0.0,0.0,0.0,0.0,0.0,0.0,0.0,0.0,0.0,0.0,0.0,0.0,0.0,0.0,0.0,0.0,0.0,0.0,0.0,0.0,0.0,0.0,0.0,0.0,0.0,0.0,0.0,0.0,-5.2409,-5.2409,-5.2409,-5.2409,-5.2409,-5.2409,-5.2409,-5.2409,-5.2409,-5.2409,-5.2409,-5.2409,-5.2409,-5.2409,0.0,-5.2214,-5.1471,-5.1268,-5.1065,-5.0329,-4.9962,-4.9647,0.0,0.0,-4.7681,-4.7922,-4.7794,-4.7709,-4.7964,-4.8007,-4.8304,-4.9145,-5.003,-5.0749,-5.1294,-5.2072,-5.2501,-5.2244,-5.2517,-5.2713,-5.2713,-5.2713,-5.2713,-5.2713,-5.2713,-5.2713,-5.2713,-5.3283,-5.35,-5.3346,-5.4477,-5.5165,-5.5302,-5.5734,-5.61,-5.6421,-5.6176,-5.6028,-5.6028,-5.578,-5.578,-5.5979,-5.5731,-5.5631,-5.5631,-5.5345,-5.5229,-5.5229,-5.5229,-5.5244,-5.5244,-5.578,-5.5979,-5.5929,0.0,0.0,0.0,0.0,0.0,0.0,0.0,0.0,0.0,0.0,0.0,0.0,0.0,0.0,0.0,0.0,0.0,0.0,0.0,0.0,0.0,0.0,0.0,0.0,0.0,0.0,0.0,0.0,0.0,0.0,0.0,0.0,0.0,0.0,0.0,0.0,0.0,0.0,0.0,0.0,0.0,0.0,-5.2409,-5.2409,-5.2409,-5.2409,-5.2409,-5.2409,0.0,0.0,-5.2409,-5.2409,-5.2409,-5.2409,-5.2409,-5.2409,-5.2409,0.0,-5.2036,-5.1545,-5.1027,0.0,-5.0252,-4.9623,-4.8887,-4.8145,-4.7624,-4.7752,-4.7794,-4.788,-4.7964,-4.8411,-4.9011,0.0,-5.0544,-5.1262,-5.1787,-5.2228,-5.2367,-5.2155,-5.2322,-5.2503,-5.2669,-5.2443,-5.2397,-5.2669,-5.2563,-5.2457,-5.2457,-5.3116,-5.3529,-5.3692,-5.459,-5.5211,-5.5474,-5.5827,-5.5979,-5.5929,-5.583,-5.578,-5.578,-5.5481,-5.5431,-5.5531,-5.5446,-5.5396,-5.5345,-5.5244,-5.5194,-5.5194,-5.5194,-5.5194,-5.5244,-5.5431,-5.5531,-5.5531,0.0,0.0,0.0,0.0,0.0,0.0,0.0,0.0,0.0,0.0,0.0,0.0,0.0,0.0,0.0,0.0,0.0,0.0,0.0,0.0,0.0,0.0,0.0,0.0,0.0,0.0,0.0,0.0,0.0,0.0,0.0,0.0,0.0,0.0,0.0,0.0,0.0,0.0,0.0,0.0,0.0,0.0,-5.2409,-5.2409,-5.2409,-5.2409,-5.2409,-5.2409,0.0,0.0,-5.2409,-5.2409,-5.2409,-5.2409,-5.2338,-5.2106,-5.1692,-5.138,-5.1475,0.0,0.0,-5.029,-4.986,-4.9262,-4.8449,-4.7907,-4.7581,-4.751,-4.7724,-4.788,-4.7794,-4.8511,-4.9337,-5.0022,-5.0737,-5.1408,-5.2018,-5.217,-5.2139,-5.1941,-5.2002,-5.2215,-5.2488,-5.2261,-5.2216,-5.2488,-5.2367,-5.2337,-5.249,-5.3115,-5.3707,-5.4137,-5.4789,-5.5266,-5.5581,-5.5731,-5.5731,-5.5581,-5.5531,-5.5481,-5.5481,-5.5295,-5.5194,-5.5194,-5.5194,-5.5194,-5.5194,-5.5194,-5.5194,-5.5194,-5.5194,-5.5194,-5.5194,-5.5194,-5.5194,-5.5194,0.0,0.0,0.0,0.0,0.0,0.0,0.0,0.0,0.0,0.0,0.0,0.0,0.0,0.0,0.0,0.0,0.0,0.0,0.0,0.0,0.0,0.0,0.0,0.0,0.0,0.0,0.0,0.0,0.0,0.0,0.0,0.0,0.0,0.0,0.0,0.0,0.0,0.0,0.0,0.0,0.0,0.0,-5.2409,-5.2409,-5.2409,-5.2409,-5.2409,0.0,0.0,0.0,-5.2409,-5.2409,-5.2409,-5.2409,0.0,-5.1397,-4.9994,0.0,0.0,0.0,-4.849,-4.7624,-4.8061,-4.8407,-4.7538,-4.7467,-4.7538,-4.7337,-4.7467,-4.7538,-4.7337,-4.8051,-4.8829,-4.9492,-5.0411,-5.1122,-5.1589,-5.1834,-5.1895,-5.1634,-5.1634,-5.1741,-5.2002,-5.2185,-5.2231,-5.2033,-5.2185,-5.2505,-5.2974,-5.3596,-5.4167,-5.459,-5.5204,-5.5616,-5.5581,-5.533,-5.533,-5.5581,-5.5345,-5.5194,-5.5194,-5.5194,-5.5194,-5.5194,-5.5194,-5.5194,-5.5194,-5.5194,-5.5194,-5.5194,-5.5194,-5.5194,-5.5194,-5.5194,-5.5194,-5.5194,0.0,0.0,0.0,0.0,0.0,0.0,0.0,0.0,0.0,0.0,0.0,0.0,0.0,0.0,0.0,0.0,0.0,0.0,0.0,0.0,0.0,0.0,0.0,0.0,0.0,0.0,0.0,0.0,0.0,0.0,0.0,0.0,0.0,0.0,0.0,0.0,0.0,0.0,0.0,0.0,0.0,0.0,-5.2338,-5.1745,-5.1545,-5.1471,0.0,0.0,0.0,0.0,0.0,0.0,-5.1709,0.0,0.0,-5.0499,-4.9479,-4.8723,0.0,0.0,-4.8532,-4.8256,-4.8366,-4.8366,-4.7495,-4.7337,-4.7381,-4.7294,-4.7337,-4.7559,-4.8081,-4.8785,-4.9537,-5.0411,-5.1016,-5.1438,-5.1603,-5.168,-5.1649,-5.1354,-5.1494,0.0,0.0,-5.1541,-5.168,-5.1987,-5.1926,-5.2106,-5.2723,-5.3388,-5.3908,-5.4325,-5.4985,-5.533,-5.533,-5.5244,-5.5244,-5.533,-5.5244,-5.5194,-5.5194,-5.5194,-5.5194,-5.5194,-5.5194,-5.5194,-5.5194,-5.5194,-5.5194,-5.5194,-5.5194,-5.5194,-5.5194,-5.5194,-5.5194,-5.5194,0.0,0.0,0.0,0.0,0.0,0.0,0.0,0.0,0.0,0.0,0.0,0.0,0.0,0.0,0.0,0.0,0.0,0.0,0.0,0.0,0.0,0.0,0.0,0.0,0.0,0.0,0.0,0.0,0.0,0.0,0.0,0.0,0.0,0.0,0.0,0.0,0.0,0.0,0.0,0.0,0.0,0.0,-5.1818,-5.0989,-5.0631,0.0,0.0,0.0,0.0,0.0,0.0,0.0,0.0,-5.0685,-5.0073,-4.9543,-4.879,-4.8256,-4.8764,-4.8532,-4.813,-4.813,-4.813,-4.7976,-4.7424,-4.7309,-4.7309,-4.7309,-4.7309,-4.7547,-4.8338,-4.9028,-4.9749,-5.0563,-5.1119,-5.1448,-5.1448,-5.1448,-5.1401,-5.1214,-5.1354,-5.1401,0.0,0.0,-5.1369,-5.171,-5.1634,-5.1947,-5.277,-5.3221,-5.3819,-5.4536,-5.497,-5.5194,-5.5194,-5.5194,-5.5194,-5.5194,-5.5194,-5.5194,-5.5194,-5.5194,-5.5194,-5.5194,-5.5194,-5.5194,-5.5194,-5.5194,-5.5194,-5.5194,-5.5194,-5.5194,-5.5194,-5.5194,-5.5194,-5.5194,0.0,0.0,0.0,0.0,0.0,0.0,0.0,0.0,0.0,0.0,0.0,0.0,0.0,0.0,0.0,0.0,0.0,0.0,0.0,0.0,0.0,0.0,0.0,0.0,0.0,0.0,0.0,0.0,0.0,0.0,0.0,0.0,0.0,0.0,0.0,0.0,0.0,0.0,0.0,0.0,0.0,0.0,-5.0951,-5.0057,0.0,0.0,0.0,0.0,0.0,0.0,0.0,0.0,0.0,0.0,-4.8532,-4.8532,-4.7934,-4.7309,-4.7309,-4.7309,-4.7309,-4.7309,-4.7309,-4.7309,-4.7309,-4.7309,-4.7309,-4.7309,-4.7339,-4.7563,0.0,0.0,-4.9523,-5.0136,-5.0764,-5.1214,-5.1214,-5.1214,-5.1214,0.0,0.0,0.0,0.0,0.0,0.0,-5.1214,-5.1448,-5.2066,-5.3163,-5.3174,-5.3788,-5.5149,-5.5194,-5.5194,-5.5194,-5.5194,-5.5194,-5.5194,-5.5194,-5.5194,-5.5194,-5.5194,-5.5194,-5.5194,-5.5194,-5.5194,-5.5194,-5.5194,-5.5194,-5.5194,-5.5194,-5.5194,-5.5194,-5.5194,-5.5194,-5.5194,0.0,0.0,0.0,0.0,0.0,0.0,0.0,0.0,0.0,0.0,0.0,0.0,0.0,0.0,0.0,0.0,0.0,0.0,0.0,0.0,0.0,0.0,0.0,0.0,0.0,0.0,0.0,0.0,0.0,0.0,0.0,0.0,0.0,0.0,0.0,0.0,0.0,0.0,0.0,0.0,0.0,0.0,-5.0057,0.0,0.0,0.0,0.0,0.0,0.0,0.0,0.0,0.0,0.0,0.0,-4.7624,-4.7624,-4.7467,-4.7309,-4.7309,-4.7309,-4.7309,-4.7309,-4.7309,-4.7309,-4.7309,-4.7309,-4.7309,-4.7309,-4.7698,-4.8237,0.0,0.0,0.0,-5.0823,-5.1109,0.0,-5.1214,-5.1214,0.0,-5.1214,0.0,-5.1214,-5.1214,-5.1214,0.0,-5.1214,-5.1261,-5.1845,-5.3114,-5.3174,-5.3788,-5.5149,-5.5194,-5.5194,-5.5194,-5.5194,-5.5194,-5.5194,-5.5194,-5.5194,-5.5194,-5.5194,-5.5194,-5.5194,-5.5194,-5.5194,-5.5194,-5.5194,-5.5194,-5.5194,-5.5194,-5.5194,-5.5194,-5.5194,-5.5194,-5.5194,0.0,0.0,0.0,0.0,0.0,0.0,0.0,0.0,0.0,0.0,0.0,0.0,0.0,0.0,0.0,0.0,0.0,0.0,0.0,0.0,0.0,0.0,0.0,0.0,0.0,0.0,0.0,0.0,0.0,0.0,0.0,0.0,0.0,0.0,0.0,0.0,0.0,0.0,0.0,0.0,0.0,0.0,0.0,0.0,0.0,0.0,0.0,0.0,0.0,0.0,0.0,-4.8532,-4.813,-4.7694,-4.7309,-4.7309,0.0,-4.7309,-4.7309,-4.7309,-4.7309,-4.7309,-4.7309,-4.7309,-4.7309,-4.7309,-4.7309,-4.7309,-4.7833,0.0,0.0,0.0,0.0,0.0,0.0,0.0,-5.1214,-5.1214,-5.1214,0.0,-5.1214,0.0,-5.1214,-5.1214,-5.1214,-5.1214,-5.1214,-5.1798,-5.3114,-5.3174,-5.3788,-5.5149,-5.5194,-5.5194,-5.5194,-5.5194,-5.5194,-5.5194,-5.5194,-5.5194,-5.5194,-5.5194,-5.5194,-5.5194,-5.5194,-5.5194,-5.5194,-5.5194,-5.5194,-5.5194,-5.5194,-5.5194,-5.5194,-5.5194,-5.5194,-5.5194,0.0,0.0,0.0,0.0,0.0,0.0,0.0,0.0,0.0,0.0,0.0,0.0,0.0,0.0,0.0,0.0,0.0,0.0,0.0,0.0,0.0,0.0,0.0,0.0,0.0,0.0,0.0,0.0,0.0,0.0,0.0,0.0,0.0,0.0,0.0,0.0,0.0,0.0,0.0,0.0,0.0,0.0,0.0,0.0,0.0,0.0,0.0,0.0,0.0,0.0,-4.7822,-4.8297,-4.7538,-4.7309,-4.7309,-4.7309,-4.7309,-4.7309,-4.7309,-4.7309,-4.7309,-4.7309,-4.7309,-4.7309,-4.7309,-4.7309,-4.7339,-4.7414,0.0,-4.8611,-4.9314,-4.9927,-5.051,-5.1124,0.0,-5.1214,-5.1214,-5.1214,-5.1214,-5.1214,-5.1214,-5.1214,-5.1214,-5.1214,-5.1214,-5.1214,-5.1304,-5.1887,-5.3114,-5.3264,-5.3892,-5.5149,-5.5194,-5.5194,-5.5194,-5.5194,-5.5194,-5.5194,-5.5194,-5.5194,-5.5194,-5.5194,-5.5194,-5.5194,-5.5194,-5.5194,-5.5194,-5.5194,-5.5194,-5.5194,-5.5194,-5.5194,-5.5194,-5.5194,-5.5194,-5.5194,0.0,0.0,0.0,0.0,0.0,0.0,0.0,0.0,0.0,0.0,-4.2325,-4.25,0.0,0.0,0.0,0.0,0.0,0.0,0.0,0.0,0.0,0.0,0.0,0.0,0.0,0.0,0.0,0.0,0.0,0.0,0.0,0.0,0.0,0.0,0.0,0.0,0.0,0.0,0.0,0.0,0.0,0.0,0.0,0.0,0.0,0.0,0.0,0.0,0.0,0.0,-4.7381,-4.7495,-4.7337,-4.7309,-4.7309,-4.7309,-4.7309,-4.7309,-4.7309,-4.7309,-4.7309,-4.7309,-4.7309,-4.7309,-4.7309,-4.7309,0.0,0.0,0.0,-4.9299,-4.9942,-5.0554,0.0,-5.1199,0.0,0.0,0.0,0.0,-5.1214,0.0,0.0,0.0,0.0,-5.1214,0.0,-5.1214,-5.1723,-5.2366,-5.3144,-5.3728,-5.4386,-5.5164,-5.5194,-5.5194,-5.5194,-5.5194,-5.5194,-5.5194,-5.5194,-5.5194,-5.5194,-5.5194,-5.5194,-5.5194,-5.5194,-5.5194,-5.5194,-5.5194,-5.5194,-5.5194,-5.5194,-5.5194,-5.5194,-5.5194,-5.5194,-5.5194,0.0,0.0,0.0,0.0,0.0,0.0,0.0,-4.2175,-4.2201,-4.2092,-4.2175,-4.2325,-4.25,-4.2474,-4.25,0.0,0.0,0.0,0.0,0.0,0.0,0.0,0.0,0.0,0.0,0.0,0.0,0.0,0.0,0.0,0.0,0.0,0.0,0.0,0.0,0.0,0.0,0.0,0.0,0.0,0.0,0.0,0.0,0.0,0.0,0.0,0.0,0.0,0.0,0.0,-4.7309,-4.7309,-4.7309,-4.7309,-4.7309,-4.7309,-4.7309,-4.7309,-4.7309,-4.7309,-4.7309,-4.7309,-4.7309,-4.7309,-4.7309,0.0,0.0,0.0,-4.8805,-4.9464,-5.0076,0.0,0.0,0.0,0.0,0.0,0.0,0.0,0.0,0.0,0.0,0.0,0.0,-5.1214,-5.1364,-5.1708,-5.2336,-5.2845,-5.3159,-5.4162,-5.4865,-5.5179,-5.5194,-5.5194,-5.5194,-5.5194,-5.5194,-5.5194,-5.5194,-5.5194,-5.5194,-5.5194,-5.5194,-5.5194,-5.5194,-5.5194,-5.5194,-5.5194,-5.5194,-5.5194,-5.5194,-5.5194,-5.5194,-5.5194,-5.5194,-5.5194,0.0,0.0,0.0,0.0,0.0,0.0,0.0,-4.2092,-4.2092,-4.2092,-4.2092,-4.2175,-4.2392,-4.2351,-4.2433,0.0,0.0,0.0,0.0,0.0,0.0,0.0,0.0,0.0,0.0,0.0,0.0,-4.329,0.0,0.0,0.0,0.0,0.0,0.0,-4.5289,0.0,0.0,0.0,0.0,0.0,0.0,0.0,0.0,0.0,0.0,0.0,0.0,0.0,0.0,0.0,-4.7309,-4.7309,-4.7309,-4.7309,-4.7309,-4.7309,-4.7309,-4.7309,-4.7309,-4.7309,-4.7309,-4.7309,-4.7309,-4.7309,-4.7309,-4.7414,0.0,0.0,-4.9015,-4.9673,-5.0285,0.0,0.0,0.0,0.0,0.0,0.0,0.0,0.0,0.0,0.0,0.0,0.0,-5.1424,0.0,-5.2351,-5.3025,-5.3458,-5.3608,-5.461,-5.5194,-5.5194,-5.5194,-5.5194,-5.5194,-5.5194,-5.5194,-5.5194,-5.5194,-5.5194,-5.5194,-5.5194,-5.5194,-5.5194,-5.5194,-5.5194,-5.5194,-5.5194,-5.5194,-5.5194,-5.5194,-5.5194,-5.5194,-5.5194,-5.5194,-5.5194,0.0,0.0,0.0,0.0,0.0,0.0,0.0,-4.2092,-4.2092,-4.2092,-4.2092,-4.2175,-4.2392,-4.2242,-4.2216,0.0,0.0,0.0,0.0,0.0,0.0,0.0,0.0,0.0,0.0,0.0,0.0,-4.329,-4.329,0.0,0.0,0.0,0.0,0.0,0.0,-4.6037,-4.7309,0.0,0.0,0.0,0.0,0.0,0.0,0.0,0.0,0.0,0.0,0.0,0.0,0.0,0.0,-4.7309,-4.7309,-4.7309,-4.7309,-4.7309,0.0,0.0,-4.7309,-4.7309,-4.7309,-4.7309,-4.7309,-4.7309,-4.7309,0.0,0.0,-4.909,-4.9688,-5.03,-5.1005,-5.1184,0.0,0.0,0.0,0.0,0.0,0.0,0.0,0.0,0.0,0.0,0.0,-5.2112,-5.2381,-5.3039,-5.3728,-5.4371,-5.497,-5.5119,-5.5194,-5.5194,-5.5194,-5.5194,-5.5194,-5.5194,-5.5194,-5.5194,-5.5194,-5.5194,-5.5194,-5.5194,-5.5194,-5.5194,-5.5194,-5.5194,-5.5194,-5.5194,-5.5194,-5.5194,-5.5194,-5.5194,-5.5194,-5.5194,-5.5194,-5.5194,0.0,0.0,0.0,0.0,0.0,0.0,-4.215,-4.2092,-4.2092,-4.2092,-4.2092,-4.2133,-4.2201,-4.2242,-4.2351,-4.2581,0.0,0.0,0.0,0.0,0.0,0.0,0.0,0.0,0.0,0.0,-4.329,-4.329,-4.329,0.0,0.0,0.0,0.0,0.0,0.0,-4.6037,-4.7309,0.0,0.0,0.0,0.0,0.0,0.0,0.0,0.0,0.0,0.0,0.0,0.0,0.0,0.0,0.0,-4.7309,-4.7309,0.0,0.0,-4.7309,-4.7309,-4.7309,-4.7309,-4.7399,-4.7803,-4.7893,-4.7997,-4.8401,0.0,0.0,-4.9718,-5.0001,-5.039,-5.1094,-5.1214,-5.1214,0.0,0.0,0.0,0.0,0.0,0.0,0.0,0.0,0.0,0.0,0.0,-5.3069,-5.3743,-5.4416,-5.491,-5.5179,-5.5194,-5.5194,-5.5194,-5.5194,-5.5194,-5.5194,-5.5194,-5.5194,-5.5194,-5.5194,-5.5194,-5.5194,-5.5194,-5.5194,-5.5194,-5.5194,-5.5194,-5.5194,-5.5194,-5.5194,-5.5194,-5.5194,-5.5194,-5.5194,-5.5194,-5.5194,-5.5194,0.0,0.0,0.0,0.0,0.0,-4.3079,-4.2455,-4.2368,-4.2295,-4.2121,-4.2092,-4.2092,-4.2092,-4.2284,-4.2459,-4.2688,-4.2662,0.0,0.0,0.0,0.0,0.0,0.0,0.0,0.0,0.0,-4.329,-4.329,-4.329,-4.329,0.0,0.0,-4.4032,-4.5289,0.0,0.0,0.0,0.0,0.0,0.0,0.0,0.0,0.0,0.0,0.0,0.0,0.0,0.0,0.0,0.0,0.0,0.0,0.0,0.0,0.0,0.0,-4.7309,-4.7339,-4.7534,-4.7593,-4.7758,-4.8416,-4.8581,-4.8701,0.0,0.0,0.0,-5.0091,-5.0345,-5.0629,-5.1124,-5.1214,-5.1214,0.0,0.0,0.0,0.0,0.0,0.0,0.0,0.0,0.0,0.0,-5.3384,-5.3982,-5.4461,-5.4925,-5.5194,-5.5194,-5.5194,-5.5194,-5.5194,-5.5194,-5.5194,-5.5194,-5.5194,-5.5194,-5.5194,-5.5194,-5.5194,-5.5194,-5.5194,-5.5194,-5.5194,-5.5194,-5.5194,-5.5194,-5.5194,-5.5194,-5.5194,-5.5194,-5.5194,-5.5194,-5.5194,-5.5194,-5.5194,0.0,0.0,0.0,0.0,0.0,0.0,-4.3079,-4.2977,-4.2774,-4.2179,-4.2092,-4.2092,-4.2092,-4.2284,-4.2459,-4.2688,-4.25,0.0,0.0,0.0,0.0,0.0,0.0,0.0,0.0,0.0,-4.329,-4.329,-4.329,-4.329,-4.329,-4.329,-4.4032,-4.5289,0.0,0.0,0.0,0.0,0.0,0.0,0.0,0.0,0.0,0.0,0.0,0.0,0.0,0.0,0.0,0.0,0.0,0.0,0.0,0.0,0.0,0.0,-4.7309,-4.7444,-4.8102,-4.8282,-4.8431,-4.9134,-4.9299,-4.9299,0.0,0.0,0.0,-5.0196,-5.0704,-5.1214,-5.1214,-5.1214,-5.1214,-5.1214,0.0,0.0,0.0,0.0,0.0,0.0,0.0,0.0,-5.4057,-5.479,-5.5164,-5.5179,-5.5194,-5.5194,-5.5194,-5.5194,-5.5194,-5.5194,-5.5194,-5.5194,-5.5194,-5.5194,-5.5194,-5.5194,-5.5194,-5.5194,-5.5194,-5.5194,-5.5194,-5.5194,-5.5194,-5.5194,-5.5194,-5.5194,-5.5194,-5.5194,-5.5194,-5.5194,-5.5194,-5.5194,-5.5194,-5.5194,0.0,0.0,0.0,0.0,0.0,0.0,0.0,-4.3674,-4.3602,-4.3413,-4.2992,-4.2716,-4.2716,-4.2532,-4.2459,-4.2688,-4.2662,0.0,0.0,0.0,0.0,0.0,0.0,0.0,0.0,0.0,-4.329,-4.329,-4.329,-4.329,-4.3305,-4.3753,-4.4466,-4.5319,-4.5783,-4.6486,0.0,0.0,0.0,0.0,0.0,0.0,0.0,0.0,0.0,0.0,0.0,0.0,0.0,0.0,0.0,0.0,0.0,0.0,0.0,0.0,0.0,0.0,-4.882,-4.9,-4.9119,-4.9763,-4.9942,-5.0047,-5.0496,0.0,0.0,-5.0868,-5.1065,-5.1214,-5.1214,-5.1214,-5.1214,-5.1214,-5.1214,0.0,0.0,0.0,0.0,0.0,0.0,0.0,0.0,0.0,-5.5194,-5.5194,-5.5194,-5.5194,-5.5194,-5.5194,-5.5194,-5.5194,-5.5194,-5.5194,-5.5194,-5.5194,-5.5194,-5.5194,-5.5194,-5.5194,-5.5194,-5.5194,-5.5194,-5.5194,-5.5194,-5.5194,-5.5194,-5.5194,-5.5194,-5.5194,-5.5194,-5.5194,-5.5194,-5.5194,-5.5194,-5.5194,0.0,0.0,0.0,0.0,0.0,0.0,0.0,-4.4327,-4.4255,-4.4023,-4.3631,-4.3369,-4.3369,-4.3148,-4.2979,-4.2922,-4.2949,0.0,0.0,0.0,0.0,0.0,0.0,0.0,-4.329,-4.329,-4.329,-4.329,-4.329,-4.3424,-4.3678,-4.4122,-4.4811,-4.5708,-4.6127,-4.6696,0.0,0.0,0.0,0.0,0.0,0.0,-4.7339,0.0,0.0,0.0,0.0,0.0,0.0,0.0,0.0,0.0,0.0,0.0,0.0,0.0,-4.9344,0.0,0.0,-4.9628,-4.9793,-5.0405,-5.0569,0.0,0.0,0.0,0.0,0.0,0.0,-5.1214,-5.1214,-5.1214,-5.1214,-5.1214,0.0,0.0,0.0,0.0,0.0,0.0,0.0,0.0,0.0,-5.5194,-5.5194,-5.5194,-5.5194,-5.5194,-5.5194,-5.5194,-5.5194,-5.5194,-5.5194,-5.5194,-5.5194,-5.5194,-5.5194,-5.5194,-5.5194,-5.5194,-5.5194,-5.5194,-5.5194,-5.5194,-5.5194,-5.5194,0.0,-5.5194,-5.5194,-5.5194,-5.5194,-5.5194,-5.5194,-5.5194,-5.5194,-5.5194,0.0,0.0,0.0,0.0,0.0,0.0,0.0,-4.4951,-4.4763,-4.4197,-4.4081,-4.4052,-4.4052,-4.4023,-4.3833,-4.3418,0.0,0.0,0.0,0.0,0.0,0.0,0.0,0.0,-4.329,-4.329,-4.329,-4.329,-4.3349,-4.3678,-4.4317,-4.4407,-4.5125,-4.6279,-4.6324,-4.6741,0.0,0.0,0.0,0.0,0.0,0.0,0.0,0.0,0.0,0.0,0.0,0.0,0.0,0.0,0.0,0.0,0.0,0.0,0.0,0.0,0.0,0.0,0.0,0.0,0.0,0.0,0.0,0.0,0.0,0.0,0.0,0.0,0.0,0.0,0.0,0.0,0.0,-5.1214,0.0,0.0,0.0,0.0,0.0,0.0,0.0,0.0,-5.5194,-5.5194,-5.5194,-5.5194,-5.5194,-5.5194,-5.5194,-5.5194,-5.5194,-5.5194,-5.5194,-5.5194,-5.5194,-5.5194,-5.5194,-5.5194,-5.5194,-5.5194,-5.5194,-5.5194,-5.5194,-5.5194,-5.5194,-5.5194,-5.5194,-5.5194,-5.5194,-5.5194,-5.5194,-5.5194,-5.5194,-5.5194,-5.5194,-5.5194,0.0,0.0,0.0,0.0,0.0,0.0,0.0,0.0,0.0,0.0,-4.4995,-4.4676,-4.4676,-4.4269,-4.4007,0.0,0.0,0.0,0.0,0.0,0.0,0.0,0.0,0.0,-4.329,-4.329,-4.329,-4.329,-4.3798,-4.4167,-4.4332,-4.5364,-4.6022,-4.6309,-4.686,-4.716,0.0,0.0,0.0,0.0,0.0,0.0,0.0,0.0,0.0,0.0,-4.9254,-4.9583,0.0,0.0,0.0,0.0,0.0,0.0,0.0,0.0,-5.0943,-5.0943,-5.0943,0.0,-5.102,-5.1184,-5.1214,-5.1214,0.0,0.0,0.0,0.0,0.0,0.0,0.0,0.0,0.0,0.0,0.0,0.0,0.0,0.0,0.0,0.0,-5.5089,-5.5194,-5.5194,-5.5194,-5.5194,-5.5194,-5.5194,-5.5194,-5.5194,-5.5194,-5.5194,-5.5194,-5.5194,-5.5194,-5.5194,-5.5194,-5.5194,-5.5194,-5.5194,-5.5194,-5.5194,-5.5194,-5.5194,-5.5194,-5.5194,-5.5194,-5.5194,-5.5194,-5.5194,-5.5194,-5.5194,-5.5194,-5.5194,-5.5194,-5.5194,-5.5194,0.0,0.0,0.0,0.0,0.0,0.0,0.0,0.0,0.0,0.0,0.0,0.0,0.0,0.0,0.0,0.0,0.0,0.0,0.0,0.0,0.0,0.0,0.0,-4.329,-4.329,-4.329,-4.3439,-4.3738,-4.4137,-4.4631,-4.5244,-4.5935,-4.6444,-4.6785,-4.7145,-4.7309,0.0,0.0,0.0,0.0,-4.8132,0.0,0.0,0.0,0.0,0.0,-5.0047,-5.0391,0.0,-5.0644,-5.0883,-5.1214,0.0,0.0,0.0,0.0,-5.1214,-5.1214,-5.1214,-5.1214,-5.1214,-5.1214,-5.1214,-5.1214,0.0,0.0,0.0,0.0,0.0,0.0,0.0,0.0,0.0,0.0,0.0,0.0,0.0,0.0,0.0,0.0,-5.5194,-5.5194,-5.5194,-5.5194,-5.5194,-5.5194,-5.5194,-5.5194,-5.5194,-5.5194,-5.5194,-5.5194,-5.5194,-5.5194,-5.5194,-5.5194,-5.5194,-5.5194,-5.5194,-5.5194,-5.5194,-5.5194,-5.5194,-5.5194,-5.5194,-5.5194,-5.5194,-5.5194,-5.5194,-5.5194,-5.5194,-5.5194,-5.5194,-5.5194,-5.5194,-5.5194,0.0,0.0,0.0,0.0,0.0,0.0,0.0,0.0,0.0,0.0,0.0,0.0,0.0,0.0,0.0,0.0,0.0,0.0,0.0,0.0,0.0,0.0,0.0,-4.3394,-4.329,-4.3394,-4.3708,-4.4317,-4.4526,-4.52,-4.6279,-4.6384,-4.677,-4.7309,-4.7309,-4.7309,0.0,0.0,-4.7773,-4.8312,-4.8506,0.0,0.0,0.0,0.0,0.0,0.0,0.0,0.0,-5.1214,-5.1214,-5.1214,-5.1214,0.0,0.0,0.0,0.0,0.0,-5.1214,-5.1214,-5.1214,-5.1214,-5.1214,-5.1214,0.0,0.0,0.0,0.0,0.0,0.0,0.0,0.0,0.0,0.0,0.0,0.0,0.0,0.0,0.0,0.0,-5.5194,-5.5194,-5.5194,-5.5194,-5.5194,-5.5194,-5.5194,-5.5194,-5.5194,-5.5194,-5.5194,-5.5194,-5.5194,-5.5194,-5.5194,-5.5194,-5.5194,-5.5194,-5.5194,-5.5194,-5.5194,-5.5194,-5.5194,-5.5194,-5.5194,-5.5194,-5.5194,-5.5194,-5.5194,-5.5194,-5.5194,-5.5194,-5.5194,-5.5194,-5.5194,-5.5194,0.0,0.0,0.0,0.0,0.0,0.0,0.0,0.0,0.0,0.0,0.0,0.0,0.0,0.0,0.0,0.0,0.0,0.0,0.0,0.0,0.0,-4.5035,-4.4466,-4.3898,-4.3305,-4.3883,-4.4212,-4.4317,-4.5454,-4.6085,-4.6294,-4.689,-4.7204,-4.7309,-4.7309,-4.7309,-4.7339,-4.7893,-4.8192,-4.8371,-4.9494,0.0,0.0,0.0,0.0,0.0,0.0,0.0,0.0,-5.1214,-5.1214,-5.1214,-5.1214,0.0,0.0,0.0,0.0,0.0,-5.1214,-5.1214,-5.1214,-5.1214,-5.1214,-5.1214,0.0,0.0,0.0,0.0,0.0,0.0,0.0,0.0,0.0,0.0,0.0,0.0,0.0,0.0,-5.5194,-5.5194,0.0,-5.5194,-5.5194,-5.5194,-5.5194,-5.5194,-5.5194,-5.5194,-5.5194,-5.5194,-5.5194,-5.5194,-5.5194,-5.5194,-5.5194,-5.5194,-5.5194,-5.5194,-5.5194,-5.5194,-5.5194,-5.5194,-5.5194,-5.5194,-5.5194,-5.5194,-5.5194,-5.5194,-5.5194,-5.5194,-5.5194,-5.5194,-5.5194,-5.5194,-5.5194,-5.5194,0.0,0.0,0.0,0.0,0.0,0.0,0.0,0.0,0.0,0.0,0.0,0.0,0.0,0.0,0.0,0.0,0.0,0.0,0.0,0.0,0.0,-4.5873,-4.5559,-4.508,-4.4407,-4.4691,-4.502,-4.5394,-4.6022,-4.6516,-4.686,-4.716,-4.7309,-4.7309,-4.7309,-4.7504,-4.7863,-4.8162,-4.8701,-4.9389,0.0,0.0,0.0,0.0,0.0,0.0,0.0,0.0,0.0,0.0,-5.1214,-5.1214,-5.1214,0.0,0.0,0.0,0.0,0.0,-5.1214,-5.1214,-5.1214,-5.1214,-5.1214,-5.1214,0.0,0.0,0.0,0.0,0.0,0.0,0.0,0.0,0.0,0.0,0.0,0.0,-5.4685,-5.4999,-5.5194,-5.5194,-5.5194,-5.5194,-5.5194,-5.5194,-5.5194,-5.5194,-5.5194,-5.5194,-5.5194,-5.5194,-5.5194,-5.5194,-5.5194,-5.5194,-5.5194,-5.5194,-5.5194,-5.5194,-5.5194,-5.5194,-5.5194,-5.5194,-5.5194,-5.5194,-5.5194,-5.5194,-5.5194,-5.5194,-5.5194,-5.5194,-5.5194,-5.5194,-5.5194,-5.5194,-5.5194,-5.5194,0.0,0.0,0.0,0.0,0.0,0.0,0.0,0.0,0.0,0.0,0.0,0.0,0.0,0.0,0.0,0.0,0.0,0.0,0.0,0.0,-4.6708,-4.6433,-4.6503,-4.6157,-4.5319,-4.5454,-4.5798,-4.6279,-4.6444,-4.6815,-4.7309,-4.7309,-4.7309,-4.7309,-4.7459,-4.7818,-4.8312,-4.8611,-4.9329,-5.0196,0.0,0.0,0.0,0.0,0.0,0.0,0.0,0.0,0.0,0.0,0.0,0.0,0.0,0.0,0.0,-5.1214,-5.1214,-5.1214,-5.1214,-5.1214,-5.1214,-5.1214,0.0,0.0,0.0,0.0,0.0,0.0,0.0,0.0,0.0,0.0,0.0,0.0,0.0,-5.461,-5.5119,-5.5194,-5.5194,-5.5194,-5.5194,-5.5194,-5.5194,-5.5194,-5.5194,-5.5194,-5.5194,-5.5194,-5.5194,-5.5194,-5.5194,-5.5194,-5.5194,-5.5194,-5.5194,-5.5194,-5.5194,-5.5194,-5.5194,-5.5194,-5.5194,-5.5194,-5.5194,-5.5194,-5.5194,-5.5194,-5.5194,-5.5194,-5.5194,-5.5194,-5.5194,-5.5194,-5.5194,-5.5194,-5.5194,-5.5194,0.0,0.0,0.0,0.0,0.0,0.0,0.0,0.0,0.0,0.0,0.0,0.0,0.0,0.0,0.0,0.0,0.0,0.0,0.0,0.0,-4.6697,-4.6857,-4.7104,-4.6621,-4.5319,-4.5918,-4.6234,-4.6279,-4.6935,-4.7249,-4.7309,-4.7309,-4.7309,-4.7339,-4.7938,-4.8237,-4.8371,-4.9583,-5.0106,-5.024,-5.09,0.0,0.0,0.0,0.0,0.0,0.0,0.0,0.0,0.0,0.0,0.0,0.0,0.0,-5.1214,-5.1214,-5.1214,-5.1214,-5.1214,-5.1214,-5.1214,-5.1214,0.0,0.0,0.0,0.0,0.0,0.0,0.0,0.0,0.0,0.0,0.0,0.0,0.0,-5.5134,-5.5179,-5.5194,-5.5194,-5.5194,-5.5194,-5.5194,-5.5194,-5.5194,-5.5194,-5.5194,-5.5194,-5.5194,-5.5194,-5.5194,-5.5194,-5.5194,-5.5194,-5.5194,-5.5194,-5.5194,-5.5194,-5.5194,-5.5194,-5.5194,-5.5194,-5.5194,-5.5194,-5.5194,-5.5194,-5.5194,-5.5194,-5.5194,-5.5194,-5.5194,-5.5194,-5.5194,-5.5194,-5.5194,-5.5194,-5.5194,0.0,0.0,0.0,0.0,0.0,0.0,0.0,0.0,0.0,0.0,0.0,0.0,0.0,0.0,0.0,0.0,0.0,0.0,0.0,-4.6858,-4.7077,-4.7164,-4.7251,-4.707,-4.6561,-4.68,-4.6935,-4.6935,-4.7189,-4.7309,-4.7309,-4.7728,-4.7923,-4.7938,-4.8596,-4.9119,-4.9493,-4.9986,-5.042,-5.0823,-5.1124,-5.1214,0.0,0.0,0.0,0.0,0.0,0.0,0.0,0.0,-5.1214,0.0,0.0,0.0,-5.1214,-5.1214,-5.1214,-5.1214,-5.1214,-5.1214,-5.1319,-5.1723,0.0,0.0,0.0,0.0,0.0,0.0,0.0,0.0,0.0,0.0,0.0,0.0,-5.5029,-5.5194,-5.5194,-5.5194,-5.5194,-5.5194,-5.5194,-5.5194,-5.5194,-5.5194,-5.5194,-5.5194,-5.5194,-5.5194,-5.5194,-5.5194,-5.5194,-5.5194,-5.5194,-5.5194,-5.5194,-5.5194,-5.5194,-5.5194,-5.5194,-5.5194,-5.5194,-5.5194,-5.5194,-5.5194,-5.5194,-5.5194,-5.5194,-5.5194,-5.5194,-5.5194,-5.5194,-5.5194,-5.5194,-5.5194,-5.5194,-5.5194,0.0,0.0,0.0,0.0,0.0,0.0,0.0,0.0,0.0,0.0,0.0,0.0,0.0,0.0,0.0,0.0,0.0,0.0,-4.6683,-4.699,-4.7164,-4.7164,-4.7251,-4.7309,-4.7309,-4.7309,-4.7309,-4.7309,-4.7309,-4.7414,-4.7623,-4.8072,-4.8401,-4.8626,-4.9284,-4.9823,-5.0196,-5.042,-5.0764,-5.1214,-5.1214,-5.1214,0.0,0.0,0.0,0.0,0.0,0.0,0.0,0.0,0.0,0.0,0.0,0.0,0.0,0.0,-5.1214,-5.1274,-5.1468,-5.1528,-5.1693,0.0,0.0,0.0,0.0,0.0,0.0,0.0,0.0,0.0,0.0,0.0,0.0,0.0,-5.5194,-5.5194,-5.5194,-5.5194,-5.5194,-5.5194,-5.5194,-5.5194,-5.5194,-5.5194,-5.5194,-5.5194,-5.5194,-5.5194,-5.5194,-5.5194,-5.5194,-5.5194,-5.5194,-5.5194,-5.5194,-5.5194,-5.5194,-5.5194,-5.5194,-5.5194,-5.5194,-5.5194,-5.5194,-5.5194,-5.5194,-5.5194,-5.5194,-5.5194,-5.5194,-5.5194,-5.5194,-5.5194,-5.5194,-5.5194,-5.5194,-5.5194,0.0,0.0,0.0,0.0,0.0,0.0,0.0,0.0,0.0,0.0,0.0,0.0,0.0,0.0,0.0,0.0,0.0,0.0,-4.6887,-4.6916,-4.6916,-4.6916,-4.7164,-4.7309,-4.7309,-4.7309,-4.7309,-4.7309,-4.7309,-4.7653,-4.8282,-4.8297,-4.8656,-4.9344,-4.9957,-5.0196,-5.024,-5.0945,-5.1214,-5.1214,-5.1214,-5.1214,-5.1214,0.0,0.0,0.0,0.0,0.0,0.0,0.0,0.0,0.0,0.0,0.0,0.0,0.0,-5.1229,-5.1379,-5.2037,-5.2217,0.0,0.0,0.0,0.0,0.0,0.0,0.0,0.0,0.0,0.0,0.0,0.0,0.0,-5.5194,-5.5194,-5.5194,-5.5194,-5.5194,-5.5194,-5.5194,-5.5194,-5.5194,-5.5194,-5.5194,-5.5194,-5.5194,-5.5194,-5.5194,-5.5194,-5.5194,-5.5194,-5.5194,-5.5194,-5.5194,-5.5194,-5.5194,-5.5194,-5.5194,-5.5194,-5.5194,-5.5194,-5.5194,-5.5194,-5.5194,-5.5194,-5.5194,-5.5194,-5.5194,-5.5194,-5.5194,-5.5194,-5.5194,-5.5194,-5.5194,-5.5194,-5.5194,0.0,0.0,0.0,0.0,0.0,0.0,0.0,0.0,0.0,0.0,0.0,0.0,0.0,0.0,0.0,0.0,0.0,0.0,-4.6668,-4.699,-4.7164,-4.7164,-4.7251,-4.7309,-4.7309,-4.7758,-4.7773,-4.7309,-4.7773,-4.8102,-4.8312,-4.9224,-4.9763,-4.9972,-5.0631,-5.0883,-5.0945,-5.1139,-5.1214,-5.1214,-5.1214,-5.1214,-5.1214,0.0,0.0,0.0,0.0,0.0,0.0,0.0,0.0,0.0,0.0,0.0,0.0,0.0,-5.2232,-5.2636,-5.283,0.0,0.0,0.0,0.0,0.0,0.0,0.0,0.0,0.0,0.0,0.0,-5.5194,-5.5194,-5.5194,-5.5194,-5.5194,-5.5194,-5.5194,-5.5194,-5.5194,-5.5194,-5.5194,-5.5194,-5.5194,-5.5194,-5.5194,-5.5194,-5.5194,-5.5194,-5.5194,-5.5194,-5.5194,-5.5194,-5.5194,-5.5194,-5.5194,-5.5194,-5.5194,-5.5194,-5.5194,-5.5194,-5.5194,-5.5194,-5.5194,-5.5194,-5.5194,-5.5194,-5.5194,-5.5194,-5.5194,-5.5194,-5.5194,-5.5194,-5.5194,-5.5194,-5.5194,-5.5194,0.0,0.0,0.0,0.0,0.0,0.0,0.0,0.0,0.0,0.0,0.0,0.0,0.0,0.0,0.0,0.0,0.0,0.0,0.0,-4.6975,-4.7207,-4.7309,-4.7309,-4.7429,-4.7683,-4.8072,-4.8222,-4.8087,-4.8476,-4.8805,-4.9075,-4.9822,-5.033,-5.0599,-5.1003,-5.1214,-5.1214,-5.1214,-5.1214,-5.1214,-5.1214,-5.1214,0.0,0.0,0.0,0.0,0.0,0.0,0.0,0.0,0.0,0.0,0.0,0.0,0.0,-5.2591,-5.2875,-5.3234,0.0,0.0,0.0,0.0,0.0,0.0,0.0,0.0,0.0,0.0,0.0,0.0,-5.5194,-5.5194,-5.5194,-5.5194,-5.5194,-5.5194,-5.5194,-5.5194,-5.5194,-5.5194,-5.5194,-5.5194,-5.5194,-5.5194,-5.5194,-5.5194,-5.5194,-5.5194,-5.5194,-5.5194,-5.5194,-5.5194,-5.5194,-5.5194,-5.5194,-5.5194,-5.5194,-5.5194,-5.5194,-5.5194,-5.5194,-5.5194,-5.5194,-5.5194,-5.5194,-5.5194,-5.5194,-5.5194,-5.5194,-5.5194,-5.5194,-5.5194,-5.5194,-5.5194,-5.5194,-5.5194,0.0,0.0,0.0,0.0,0.0,0.0,0.0,0.0,0.0,0.0,0.0,0.0,0.0,0.0,0.0,0.0,0.0,0.0,0.0,0.0,-4.7048,-4.7341,-4.7459,-4.7758,-4.8356,-4.8431,-4.876,-4.9404,-4.9404,-4.9658,-5.0196,-5.0255,-5.0599,-5.1214,-5.1214,-5.1214,-5.1214,-5.1214,-5.1214,-5.1214,-5.1214,-5.1214,-5.1214,0.0,0.0,0.0,0.0,0.0,0.0,0.0,0.0,0.0,0.0,0.0,0.0,-5.3279,-5.3309,0.0,0.0,0.0,0.0,0.0,0.0,0.0,0.0,0.0,0.0,0.0,0.0,-5.5194,-5.5194,-5.5194,-5.5194,-5.5194,-5.5194,-5.5194,-5.5194,-5.5194,-5.5194,-5.5194,-5.5194,-5.5194,-5.5194,-5.5194,-5.5194,-5.5194,-5.5194,-5.5194,-5.5194,-5.5194,-5.5194,-5.5194,-5.5194,-5.5194,-5.5194,-5.5194,-5.5194,-5.5194,-5.5194,-5.5194,-5.5194,-5.5194,-5.5194,-5.5194,-5.5194,-5.5194,-5.5194,-5.5194,-5.5194,-5.5194,-5.5194,-5.5194,-5.5194,-5.5194,-5.5194,-5.5194,0.0,0.0,0.0,0.0,0.0,0.0,0.0,0.0,0.0,0.0,0.0,0.0,0.0,0.0,0.0,0.0,0.0,0.0,0.0,0.0,-4.7154,-4.7762,-4.8477,-4.8955,-4.9105,-4.9553,-4.9837,-4.9986,-4.9986,-5.0046,-5.0196,-5.0719,-5.1079,-5.1214,-5.1214,-5.1214,-5.1214,-5.1214,-5.1214,-5.1214,-5.1214,-5.1214,-5.1214,-5.1214,-5.1214,0.0,0.0,0.0,0.0,0.0,0.0,0.0,0.0,-5.3443,-5.3982,-5.3982,-5.4356,0.0,0.0,0.0,0.0,0.0,0.0,0.0,0.0,0.0,0.0,0.0,0.0,-5.5194,-5.5194,-5.5194,-5.5194,-5.5194,-5.5194,-5.5194,-5.5194,-5.5194,-5.5194,-5.5194,-5.5194,-5.5194,-5.5194,-5.5194,-5.5194,-5.5194,-5.5194,-5.5194,-5.5194,-5.5194,-5.5194,-5.5194,-5.5194,-5.5194,-5.5194,-5.5194,-5.5194,-5.5194,-5.5194,-5.5194,-5.5194,-5.5194,-5.5194,-5.5194,-5.5194,-5.5194,-5.5194,-5.5194,-5.5194,-5.5194,-5.5194,-5.5194,-5.5194,-5.5194,-5.5194,-5.5194,0.0,0.0,0.0,0.0,0.0,0.0,0.0,0.0,0.0,0.0,0.0,0.0,0.0,0.0,0.0,0.0,0.0,0.0,0.0,0.0,-4.6852,-4.7739,-4.8244,-4.866,-4.897,-4.9262,-4.9836,-5.0659,-5.0659,-5.0659,-5.0674,-5.1065,-5.1214,-5.1214,-5.1214,-5.1214,-5.1214,-5.1214,-5.1214,-5.1214,-5.1214,-5.1214,-5.1259,-5.1573,-5.1693,-5.1738,-5.2037,0.0,0.0,0.0,0.0,0.0,0.0,0.0,-5.4685,-5.4685,-5.4925,0.0,0.0,0.0,0.0,0.0,0.0,0.0,0.0,0.0,0.0,0.0,-5.5194,-5.5194,-5.5194,-5.5194,-5.5194,-5.5194,-5.5194,-5.5194,-5.5194,-5.5194,-5.5194,-5.5194,-5.5194,-5.5194,-5.5194,-5.5194,-5.5194,-5.5194,-5.5194,-5.5194,-5.5194,-5.5194,-5.5194,-5.5194,-5.5194,-5.5194,-5.5194,-5.5194,-5.5194,-5.5194,-5.5194,-5.5194,-5.5194,-5.5194,-5.5194,-5.5194,-5.5194,-5.5194,-5.5194,-5.5194,-5.5194,-5.5194,-5.5194,-5.5194,-5.5194,-5.5194,-5.5194,-5.5194,0.0,0.0,0.0,0.0,0.0,0.0,0.0,0.0,0.0,0.0,0.0,0.0,0.0,0.0,0.0,0.0,0.0,0.0,0.0,0.0,0.0,-4.767,-4.7691,-4.8009,-4.8783,-4.8591,-4.9299,-5.0917,-5.0917,-5.1026,0.0,-5.1011,-5.1026,-5.1167,-5.1026,-5.1026,-5.1214,-5.1214,-5.1289,-5.1394,-5.1394,-5.1454,-5.1618,-5.2157,-5.2366,-5.2441,-5.298,-5.3249,-5.3354,-5.3354,0.0,0.0,0.0,0.0,-5.5194,-5.5194,-5.5194,-5.5194,0.0,0.0,0.0,0.0,0.0,0.0,0.0,0.0,0.0,0.0,-5.5194,-5.5194,-5.5194,-5.5194,-5.5194,-5.5194,-5.5194,-5.5194,-5.5194,-5.5194,-5.5194,-5.5194,-5.5194,-5.5194,-5.5194,-5.5194,-5.5194,-5.5194,-5.5194,-5.5194,-5.5194,-5.5194,-5.5194,-5.5194,-5.5194,-5.5194,-5.5194,-5.5194,-5.5194,-5.5194,-5.5194,-5.5194,-5.5194,-5.5194,-5.5194,-5.5194,-5.5194,-5.5194,-5.5194,-5.5194,-5.5194,-5.5194,-5.5194,-5.5194,-5.5194,-5.5194,-5.5194,-5.5194,0.0,0.0,0.0,0.0,0.0,0.0,0.0,0.0,0.0,0.0,0.0,0.0,0.0,0.0,0.0,0.0,0.0,0.0,0.0,0.0,0.0,-4.8096,-4.8027,-4.8432,-4.9431,-4.8567,-4.866,-4.982,-4.982,0.0,0.0,0.0,0.0,-5.1167,-5.022,-5.0316,-5.1214,-5.1214,-5.1558,-5.2067,-5.2067,-5.2411,-5.292,-5.301,-5.3054,-5.3054,-5.3144,-5.3563,-5.4072,-5.4072,-5.4506,0.0,0.0,0.0,-5.5194,-5.5194,-5.5194,0.0,0.0,0.0,0.0,0.0,0.0,0.0,0.0,0.0,0.0,0.0,-5.5194,-5.5194,-5.5194,-5.5194,-5.5194,-5.5194,-5.5194,-5.5194,-5.5194,-5.5194,-5.5194,-5.5194,-5.5194,-5.5194,-5.5194,-5.5194,-5.5194,-5.5194,-5.5194,-5.5194,-5.5194,-5.5194,-5.5194,-5.5194,-5.5194,-5.5194,-5.5194,-5.5194,-5.5194,-5.5194,-5.5194,-5.5194,-5.5194,-5.5194,-5.5194,-5.5194,-5.5194,-5.5194,-5.5194,-5.5194,-5.5194,-5.5194,-5.5194,-5.5194,-5.5194,-5.5194,-5.5194,-5.5194,0.0,0.0,0.0,0.0,0.0,0.0,0.0,0.0,0.0,0.0,0.0,0.0,0.0,0.0,0.0,0.0,0.0,0.0,0.0,0.0,0.0,-4.6888,-4.6844,-4.7112,-4.7791,-4.7331,-4.7638,-4.8696,0.0,0.0,0.0,-4.933,-4.9959,0.0,0.0,-5.0411,-5.1768,-5.1768,-5.2157,-5.2755,-5.2755,-5.292,-5.3219,-5.3608,-5.3758,-5.3803,-5.4177,-5.4506,-5.476,-5.476,-5.4955,-5.5194,-5.5194,0.0,0.0,0.0,-5.5194,0.0,0.0,0.0,0.0,0.0,0.0,0.0,0.0,0.0,0.0,-5.5194,-5.5194,-5.5194,-5.5194,-5.5194,-5.5194,-5.5194,-5.5194,-5.5194,-5.5194,-5.5194,-5.5194,-5.5194,-5.5194,-5.5194,-5.5194,-5.5194,-5.5194,-5.5194,-5.5194,-5.5194,-5.5194,-5.5194,-5.5194,-5.5194,-5.5194,-5.5194,-5.5194,-5.5194,-5.5194,-5.5194,-5.5194,-5.5194,-5.5194,-5.5194,-5.5194,-5.5194,-5.5194,-5.5194,-5.5194,-5.5194,-5.5194,-5.5194,-5.5194,-5.5194,-5.5194,-5.5194,-5.5194,-5.5194,0.0,0.0,0.0,0.0,0.0,0.0,0.0,0.0,0.0,0.0,0.0,0.0,0.0,0.0,0.0,0.0,0.0,0.0,0.0,0.0,0.0,-4.5807,-4.5608,-4.5781,-4.6374,-4.6125,-4.6517,-4.7573,0.0,0.0,-4.8232,-4.9223,-5.0105,0.0,-5.03,-5.0823,-5.204,-5.2345,-5.283,-5.3443,-5.3443,-5.3548,-5.3743,-5.4266,-5.4461,-5.4521,-5.5014,-5.5194,-5.5194,-5.5194,-5.5194,-5.5194,-5.5194,-5.5194,0.0,0.0,0.0,0.0,0.0,0.0,0.0,0.0,0.0,0.0,0.0,0.0,0.0,0.0,-5.5194,-5.5194,-5.5194,-5.5194,-5.5194,-5.5194,-5.5194,-5.5194,-5.5194,-5.5194,-5.5194,-5.5194,-5.5194,-5.5194,-5.5194,-5.5194,-5.5194,-5.5194,-5.5194,-5.5194,-5.5194,-5.5194,-5.5194,-5.5194,-5.5194,-5.5194,-5.5194,-5.5194,-5.5194,-5.5194,-5.5194,-5.5194,-5.5194,-5.5194,-5.5194,-5.5194,-5.5194,-5.5194,-5.5194,-5.5194,-5.5194,-5.5194,-5.5194,-5.5194,-5.5194,-5.5194,-5.5194,-5.5194,0.0,0.0,0.0,0.0,0.0,0.0,0.0,0.0,0.0,0.0,0.0,0.0,-4.2971,-4.2971,-4.2785,-4.2276,-4.2217,0.0,0.0,0.0,0.0,-4.5462,-4.4817,0.0,-4.6374,-4.5342,-4.5342,0.0,0.0,0.0,-4.8893,-5.0658,-5.088,-4.9802,-5.1004,-5.149,-5.162,-5.2708,-5.3518,-5.4162,-5.4162,-5.4536,-5.5089,-5.5119,-5.5149,-5.5149,-5.5179,-5.5194,-5.5194,-5.5194,-5.5194,-5.5194,-5.5194,-5.5194,-5.5194,0.0,0.0,0.0,0.0,0.0,0.0,0.0,0.0,0.0,0.0,0.0,0.0,-5.5194,-5.5194,-5.5194,-5.5194,-5.5194,-5.5194,-5.5194,-5.5194,-5.5194,-5.5194,-5.5194,-5.5194,-5.5194,-5.5194,-5.5194,-5.5194,-5.5194,-5.5194,-5.5194,-5.5194,-5.5194,-5.5194,-5.5194,-5.5194,-5.5194,-5.5194,-5.5194,-5.5194,-5.5194,-5.5194,-5.5194,-5.5194,-5.5194,-5.5194,-5.5194,-5.5194,-5.5194,-5.5194,-5.5194,-5.5194,-5.5194,-5.5194,-5.5194,-5.5194,-5.5194,-5.5194,-5.5194,-5.5194,-5.5194,0.0,0.0,0.0,0.0,0.0,0.0,0.0,0.0,0.0,0.0,0.0,0.0,0.0,-4.2961,-4.2886,-4.2715,-4.274,0.0,0.0,0.0,0.0,-4.445,-4.4354,-4.4626,-4.5288,-4.5319,0.0,0.0,0.0,-4.7744,-4.8483,-4.9519,-5.0132,-5.0424,-5.1227,-5.1795,-5.2173,-5.3357,-5.4221,-5.4835,-5.4835,-5.4985,-5.5194,-5.5194,-5.5194,-5.5194,-5.5194,-5.5194,-5.5194,-5.5194,-5.5194,-5.5194,-5.5194,-5.5194,-5.5194,-5.5194,-5.5194,0.0,0.0,0.0,0.0,0.0,0.0,0.0,0.0,0.0,-5.5194,-5.5194,-5.5194,-5.5194,-5.5194,-5.5194,-5.5194,-5.5194,-5.5194,-5.5194,-5.5194,-5.5194,-5.5194,-5.5194,-5.5194,-5.5194,-5.5194,-5.5194,-5.5194,-5.5194,-5.5194,-5.5194,-5.5194,-5.5194,-5.5194,-5.5194,-5.5194,-5.5194,-5.5194,-5.5194,-5.5194,-5.5194,-5.5194,-5.5194,-5.5194,-5.5194,-5.5194,-5.5194,-5.5194,-5.5194,-5.5194,-5.5194,-5.5194,-5.5194,-5.5194,-5.5194,-5.5194,-5.5194,-5.5194,-5.5194,0.0,0.0,0.0,0.0,0.0,0.0,0.0,0.0,-4.3141,-4.3504,0.0,0.0,0.0,0.0,-4.2974,-4.2974,-4.2974,-4.2974,-4.2974,-4.3361,-4.3741,-4.4169,-4.4515,-4.4937,-4.5323,-4.5702,0.0,0.0,0.0,0.0,0.0,-4.935,-5.0175,-5.0515,-5.1285,-5.1813,0.0,0.0,-5.4574,-5.4626,-5.5027,-5.5194,-5.5194,-5.5194,-5.5194,-5.5194,-5.5194,-5.5194,-5.5194,-5.5194,-5.5194,-5.5194,-5.5194,-5.5194,-5.5194,-5.5194,-5.5194,-5.5194,0.0,0.0,0.0,0.0,0.0,0.0,0.0,0.0,-5.5194,-5.5194,-5.5194,-5.5194,-5.5194,-5.5194,-5.5194,-5.5194,-5.5194,-5.5194,-5.5194,-5.5194,-5.5194,-5.5194,-5.5194,-5.5194,-5.5194,-5.5194,-5.5194,-5.5194,-5.5194,-5.5194,-5.5194,-5.5194,-5.5194,-5.5194,-5.5194,-5.5194,-5.5194,-5.5194,-5.5194,-5.5194,-5.5194,-5.5194,-5.5194,-5.5194,-5.5194,-5.5194,-5.5194,-5.5194,-5.5194,-5.5194,-5.5194,-5.5194,-5.5194,-5.5194,-5.5194,-5.5194,-5.5194,-5.5194,0.0,0.0,0.0,0.0,0.0,0.0,0.0,0.0,-4.3406,-4.452,0.0,0.0,0.0,0.0,0.0,-4.2999,-4.2999,-4.3011,-4.3024,-4.3526,-4.4099,-4.472,-4.5327,-4.5907,-4.6473,0.0,0.0,0.0,0.0,0.0,0.0,0.0,-5.1017,-5.0028,-5.1182,-5.1743,-5.1851,0.0,-5.4473,-5.3571,-5.4743,-5.5194,-5.5194,-5.5194,-5.5194,-5.5194,-5.5194,-5.5194,-5.5194,-5.5194,-5.5194,-5.5194,-5.5194,-5.5194,-5.5194,-5.5194,-5.5194,-5.5194,0.0,0.0,0.0,0.0,0.0,0.0,0.0,0.0,-5.5194,-5.5194,-5.5194,-5.5194,-5.5194,-5.5194,-5.5194,-5.5194,-5.5194,-5.5194,-5.5194,-5.5194,-5.5194,-5.5194,-5.5194,-5.5194,-5.5194,-5.5194,-5.5194,-5.5194,-5.5194,-5.5194,-5.5194,-5.5194,-5.5194,-5.5194,-5.5194,-5.5194,-5.5194,-5.5194,-5.5194,-5.5194,-5.5194,-5.5194,-5.5194,-5.5194,-5.5194,-5.5194,-5.5194,-5.5194,-5.5194,-5.5194,-5.5194,-5.5194,-5.5194,-5.5194,-5.5194,-5.5194,-5.5194,-5.5194,0.0,0.0,0.0,0.0,0.0,-4.356,-4.3878,-4.3394,-4.3141,0.0,0.0,0.0,-4.2974,-4.2974,-4.3137,-4.3539,-4.3576,-4.374,-4.4141,-4.4719,-4.5164,-4.5322,-4.5943,-4.6304,-4.6473,-4.6891,0.0,0.0,0.0,0.0,0.0,0.0,0.0,0.0,-5.243,-5.2498,-5.1797,-5.3256,-5.4186,-5.4743,-5.5078,-5.5194,-5.5194,-5.5194,-5.5194,-5.5194,-5.5194,-5.5194,-5.5194,-5.5194,-5.5194,-5.5194,-5.5194,-5.5194,-5.5194,-5.5194,-5.5194,-5.5194,-5.5194,0.0,0.0,0.0,0.0,0.0,-5.5194,0.0,-5.5194,-5.5194,-5.5194,-5.5194,-5.5194,-5.5194,-5.5194,-5.5194,-5.5194,-5.5194,-5.5194,-5.5194,-5.5194,-5.5194,-5.5194,-5.5194,-5.5194,-5.5194,-5.5194,-5.5194,-5.5194,-5.5194,-5.5194,-5.5194,-5.5194,-5.5194,-5.5194,-5.5194,-5.5194,-5.5194,-5.5194,-5.5194,-5.5194,-5.5194,-5.5194,-5.5194,-5.5194,-5.5194,-5.5194,-5.5194,-5.5194,-5.5194,-5.5194,-5.5194,-5.5194,-5.5194,-5.5194,-5.5194,-5.5194,-5.5194,0.0,0.0,0.0,0.0,0.0,-4.2974,-4.2974,-4.2974,-4.2974,0.0,0.0,0.0,-4.33,-4.3526,-4.379,-4.4116,-4.4141,-4.4279,-4.4606,-4.5206,-4.5635,-4.5738,-4.6418,-4.6892,-4.7007,-4.7448,-4.7689,-4.7689,0.0,0.0,-4.9217,-5.0196,-5.074,0.0,0.0,0.0,0.0,0.0,-5.2658,-5.3823,-5.4809,-5.4911,-5.4524,-5.5027,-5.5194,-5.5194,-5.5194,-5.5194,-5.5194,-5.5194,-5.5194,-5.5194,-5.5194,-5.5194,-5.5194,-5.5194,-5.5194,-5.5194,-5.5194,-5.5194,-5.5194,-5.5194,0.0,0.0,-5.5194,-5.5194,-5.5194,0.0,-5.5194,-5.5194,-5.5194,-5.5194,-5.5194,-5.5194,-5.5194,-5.5194,-5.5194,-5.5194,-5.5194,-5.5194,-5.5194,-5.5194,-5.5194,-5.5194,-5.5194,-5.5194,-5.5194,-5.5194,-5.5194,-5.5194,-5.5194,-5.5194,-5.5194,-5.5194,-5.5194,-5.5194,-5.5194,-5.5194,-5.5194,-5.5194,-5.5194,-5.5194,-5.5194,-5.5194,-5.5194,-5.5194,-5.5194,-5.5194,-5.5194,-5.5194,-5.5194,-5.5194,-5.5194,-5.5194,-5.5194,-5.5194,0.0,0.0,-4.2974,-4.2974,-4.2974,-4.2974,-4.2974,-4.2974,-4.2999,0.0,-4.3124,-4.335,-4.384,-4.433,-4.4656,-4.4706,-4.4719,-4.4744,-4.4865,-4.5355,-4.5737,-4.6019,-4.6772,-4.7383,-4.769,-4.7997,-4.8185,-4.8185,-4.9217,-4.9261,-4.845,-5.0531,-5.1017,-5.014,0.0,0.0,0.0,0.0,-5.0962,-5.1906,-5.4097,-5.4458,-5.3742,-5.4794,-5.5194,-5.5194,-5.5194,-5.5194,-5.5194,-5.5194,-5.5194,-5.5194,-5.5194,-5.5194,-5.5194,-5.5194,-5.5194,-5.5194,-5.5194,-5.5194,-5.5194,-5.5194,-5.5194,0.0,-5.5194,-5.5194,-5.5194,-5.5194,-5.5194,-5.5194,-5.5194,-5.5194,-5.5194,-5.5194,-5.5194,-5.5194,-5.5194,-5.5194,-5.5194,-5.5194,-5.5194,-5.5194,-5.5194,-5.5194,-5.5194,-5.5194,-5.5194,-5.5194,-5.5194,-5.5194,-5.5194,-5.5194,-5.5194,-5.5194,-5.5194,-5.5194,-5.5194,-5.5194,-5.5194,-5.5194,-5.5194,-5.5194,-5.5194,-5.5194,-5.5194,-5.5194,-5.5194,-5.5194,-5.5194,-5.5194,-5.5194,-5.5194,-5.5194,-5.5194,-5.5194,-5.5194,0.0,-4.2974,-4.2974,-4.2974,-4.2974,-4.2974,-4.2974,-4.2974,-4.3137,-4.3576,-4.4028,-4.4342,-4.4455,-4.4556,-4.4819,-4.5284,-4.5309,-4.5628,-4.6319,-4.6458,-4.6675,-4.6933,-4.7082,-4.7383,-4.769,-4.7749,-4.7938,-4.8185,-4.8392,-4.8886,-4.9589,-5.0028,-5.0629,-5.1415,0.0,0.0,0.0,0.0,-5.3218,-5.1797,-5.3203,-5.4186,-5.486,-5.5128,-5.5194,-5.5194,-5.5194,-5.5194,-5.5194,-5.5194,-5.5194,-5.5194,-5.5194,-5.5194,-5.5194,-5.5194,-5.5194,-5.5194,-5.5194,-5.5194,-5.5194,-5.5194,-5.5194,0.0,-5.5194,-5.5194,-5.5194,0.0,-5.5194,-5.5194,-5.5194,-5.5194,-5.5194,-5.5194,-5.5194,-5.5194,-5.5194,-5.5194,-5.5194,-5.5194,-5.5194,-5.5194,-5.5194,-5.5194,-5.5194,-5.5194,-5.5194,-5.5194,-5.5194,-5.5194,-5.5194,-5.5194,-5.5194,-5.5194,-5.5194,-5.5194,-5.5194,-5.5194,-5.5194,-5.5194,-5.5194,-5.5194,-5.5194,-5.5194,-5.5194,-5.5194,-5.5194,-5.5194,-5.5194,-5.5194,-5.5194,-5.5194,-5.5194,-5.5194,-5.5194,-5.5194,-4.2974,-4.2974,-4.2974,-4.2974,-4.2974,-4.3074,-4.335,-4.3388,-4.3589,-4.4141,-4.4706,-4.5058,-4.5058,-4.5296,-4.5585,-4.5874,-4.5899,-4.6072,-4.6541,-4.6554,-4.6661,-4.7006,-4.7159,-4.7265,-4.7442,-4.7762,-4.7938,-4.7938,-4.8713,-4.9318,-4.9915,-5.0518,-5.1127,-5.1743,0.0,0.0,0.0,0.0,-5.3442,-5.3495,-5.4082,-5.4304,-5.4355,-5.4962,-5.5194,-5.5194,-5.5194,-5.5194,-5.5194,-5.5194,-5.5194,-5.5194,-5.5194,-5.5194,-5.5194,-5.5194,-5.5194,-5.5194,-5.5194,-5.5194,-5.5194,-5.5194,-5.5194,0.0,0.0,-5.5194,-5.5194,-5.5194,-5.5194,-5.5194,-5.5194,-5.5194,-5.5194,-5.5194,-5.5194,-5.5194,-5.5194,-5.5194,-5.5194,-5.5194,-5.5194,-5.5194,-5.5194,-5.5194,-5.5194,-5.5194,-5.5194,-5.5194,-5.5194,-5.5194,-5.5143,-5.4991,-5.5143,-5.5143,-5.4991,-5.5143,-5.5194,-5.5194,-5.5194,-5.5194,-5.5194,-5.5194,-5.5194,-5.5194,-5.5194,-5.5194,-5.5194,-5.5194,-5.5194,-5.5194,-5.5194,-5.5194,-5.5194,-5.5194,-5.5194,-5.5194,-4.2999,-4.3062,-4.3137,-4.3137,-4.3225,-4.3438,-4.389,-4.3953,-4.4154,-4.4719,-4.5343,-4.5766,-4.5766,-4.6157,-4.6588,-4.6815,-4.6815,-4.6815,-4.6815,-4.6755,-4.6768,-4.6853,-4.7053,-4.7159,-4.7265,-4.7821,-4.7997,-4.7808,-4.919,-4.9971,-5.0196,-5.0962,-5.1688,-5.2298,0.0,0.0,0.0,0.0,-5.3323,-5.486,-5.5128,-5.4473,-5.3518,-5.4743,-5.5078,-5.486,-5.5128,-5.5194,-5.5194,-5.5194,-5.5194,-5.5194,-5.5194,-5.5194,-5.5194,-5.5194,-5.5194,-5.5194,-5.5194,-5.5194,-5.5194,-5.5194,-5.5194,-5.5194,0.0,0.0,0.0,-5.5194,-5.5194,-5.5194,-5.5194,-5.5194,-5.5194,-5.5194,-5.5194,-5.5194,-5.5194,-5.5194,-5.5194,-5.5194,-5.5194,-5.5194,-5.5194,-5.5194,-5.5194,-5.5194,-5.5194,-5.5194,-5.5194,-5.5143,-5.5042,-5.4803,-5.4941,-5.4926,-5.4803,-5.4991,-5.5143,-5.5194,-5.5194,-5.5194,-5.5194,-5.5194,-5.5194,-5.5194,-5.5194,-5.5194,-5.5194,-5.5194,-5.5194,-5.5194,-5.5194,-5.5194,-5.5194,-5.5194,-5.5194,-5.5194,-4.3074,-4.3376,-4.3714,-4.3714,-4.4116,-4.4455,-4.4518,-4.4531,-4.4731,-4.5309,-4.6112,-4.6645,-4.6645,-4.6896,-4.7534,-4.8589,-4.8705,-4.8705,-4.8705,-4.8429,-4.7919,-4.7205,-4.6947,-4.7078,-4.7632,-4.769,-4.788,-4.8127,-4.9318,-5.0322,-5.1127,-5.0434,-5.1688,-5.4348,-5.2512,0.0,0.0,0.0,-5.4355,-5.369,-5.4743,-5.4473,-5.3518,-5.4743,-5.4524,-5.3742,-5.4794,-5.5194,-5.5194,-5.5194,-5.5194,-5.5194,-5.5194,-5.5194,-5.5194,-5.5194,-5.5194,-5.5194,-5.5194,-5.5194,-5.5194,-5.5194,-5.5194,-5.5194,-5.5194,0.0,-5.5194,-5.5194,0.0,-5.5194,-5.5194,0.0,0.0,-5.5194,-5.5194,-5.5194,-5.5194,-5.5194,-5.5194,-5.5194,-5.5194,-5.5194,-5.5194,-5.5194,-5.5194,-5.5194,-5.5194,-5.5194,-5.5194,-5.4991,-5.4854,-5.4803,-5.4539,-5.4539,-5.4803,-5.4854,-5.4941,-5.5194,-5.5194,-5.5194,-5.5194,-5.5194,-5.5194,-5.5194,-5.5194,-5.5194,-5.5194,-5.5194,-5.5194,-5.5194,-5.5194,-5.5194,-5.5194,-5.5194,-5.5194,-5.5194,-4.3978,-4.4116,-4.4279,-4.4279,-4.4468,-4.4731,-4.507,-4.5397,-4.5686,-4.5937,-4.6295,-4.6494,-4.6494,-4.678,-4.7172,-4.7677,-4.7886,-4.7977,-4.7977,-4.7665,-4.7501,-4.7514,-4.7078,-4.7019,-4.7383,-4.7383,-4.7396,-4.7375,-4.8771,-4.9998,-5.0989,-5.0628,-5.2002,-5.4737,-5.3179,0.0,-5.4473,0.0,-5.4911,-5.4473,-5.5027,-5.4473,-5.3518,-5.4743,-5.4911,-5.4524,-5.5027,-5.5194,-5.5194,-5.5194,-5.5194,-5.5194,-5.5194,-5.5194,-5.5194,-5.5194,-5.5194,-5.5194,-5.5194,-5.5194,-5.5194,-5.5194,-5.5194,-5.5194,-5.5194,-5.5194,-5.5194,-5.5194,0.0,0.0,0.0,0.0,0.0,0.0,-5.5194,-5.5194,-5.5194,-5.5194,-5.5194,-5.5194,-5.5194,-5.5194,-5.5194,-5.5194,-5.5194,-5.5194,-5.5194,-5.5143,-5.4991,-5.4839,-5.4634,-5.4296,-5.4502,-5.4553,-5.4487,-5.4875,-5.5093,-5.5194,-5.5194,-5.5194,-5.5194,-5.5194,-5.5194,-5.5194,-5.5194,-5.5194,-5.5194,-5.5194,-5.5194,-5.5194,-5.5194,-5.5194,-5.5194,-5.5194,-5.5194,-5.5194,-4.5058,-4.497,-4.4857,-4.4857,-4.4982,-4.5221,-4.5648,-4.605,-4.6313,-4.6313,-4.6373,-4.6434,-4.6434,-4.7125,-4.769,-4.7958,-4.8545,-4.8864,-4.8806,-4.821,-4.812,-4.8629,-4.7795,-4.7632,-4.8281,-4.8339,-4.8191,-4.7938,-4.9445,-5.0503,-5.1196,-5.1307,-5.2516,-5.4517,0.0,-5.3785,-5.5093,0.0,-5.5194,-5.5194,-5.5194,-5.4692,-5.3964,-5.4524,-5.4911,-5.5194,-5.5194,-5.5194,-5.5194,-5.5194,-5.5194,-5.5194,-5.5194,-5.5194,-5.5194,-5.5194,-5.5194,-5.5194,-5.5194,-5.5194,-5.5194,-5.5194,-5.5194,-5.5194,-5.5194,-5.5194,-5.5194,-5.5194,-5.5194,0.0,0.0,0.0,-5.5194,-5.5194,0.0,-5.5194,-5.5194,-5.5194,-5.5194,-5.5194,-5.5194,-5.5194,-5.5194,-5.5194,-5.5194,-5.5194,-5.5194,-5.5093,-5.489,-5.4722,-5.4502,-5.4178,-5.4363,-5.4451,-5.4421,-5.4809,-5.5027,-5.5194,-5.5194,-5.5194,-5.5194,-5.5194,-5.5194,-5.5194,-5.5194,-5.5194,-5.5194,-5.5194,-5.5194,-5.5194,-5.5194,-5.5194,-5.5194,-5.5194,-5.5194,-5.5194,-4.615,-4.5824,-4.546,-4.546,-4.5899,-4.6263,-4.6276,-4.6301,-4.6313,-4.6313,-4.6554,-4.6793,-4.6793,-4.8366,-4.9845,-5.0975,-5.2363,-5.3083,-5.2857,-5.1386,-5.0727,-5.1085,-4.9448,-4.9375,-5.1127,-5.1183,-5.1031,-5.0795,-5.2164,-5.2648,-5.2179,-5.2408,-5.3049,-5.3904,-5.3299,-5.3681,-5.4854,-5.5093,-5.5194,-5.5194,-5.5194,-5.5194,-5.5027,-5.3912,-5.4186,-5.5194,-5.5194,-5.5194,-5.5194,-5.5194,-5.5194,-5.5194,-5.5194,-5.5194,-5.5194,-5.5194,-5.5194,-5.5194,-5.5194,-5.5194,-5.5194,-5.5194,-5.5194,-5.5194,-5.5194,-5.5194,-5.5194,-5.5194,-5.5194,-5.5194,-5.5194,-5.5194,-5.5194,-5.5194,-5.5194,0.0,0.0,-5.5194,-5.5194,-5.5194,-5.5194,-5.5194,-5.5194,-5.5194,-5.5194,-5.5194,-5.5194,-5.5194,-5.5194,-5.4626,-5.4487,-5.4737,-5.4,-5.3933,-5.4803,-5.4487,-5.4626,-5.5194,-5.5194,-5.5194,-5.5194,-5.5194,-5.5194,-5.5194,-5.5194,-5.5194,-5.5194,-5.5194,-5.5194,-5.5194,-5.5194,-5.5194,-5.5194,-5.5194,-5.5194,-5.5194,-4.6276,-4.6163,-4.6037,-4.6037,-4.6188,-4.6313,-4.6313,-4.6313,-4.6373,-4.6614,-4.6746,-4.6853,-4.7053,-4.7795,-4.8469,-4.8846,-4.9519,-5.0252,-5.0892,-4.9365,-4.9308,-5.1442,-4.866,-4.7945,-4.9732,-4.9405,-4.9133,-4.9019,-5.1127,-5.2028,-5.188,-5.2783,-5.3448,-5.3904,-5.3681,-5.4023,0.0,0.0,0.0,-5.5194,-5.5194,-5.4743,-5.4068,-5.4458,-5.486,-5.5194,-5.5194,-5.5194,-5.5194,-5.5194,-5.5194,-5.5194,-5.5194,-5.5194,-5.5194,-5.5194,-5.5194,-5.5194,-5.5194,-5.5194,-5.5194,-5.5194,-5.5194,-5.5194,-5.5194,-5.5194,-5.5194,-5.5194,-5.5194,-5.5194,-5.5194,-5.5194,-5.5194,-5.5194,-5.5194,-5.5194,0.0,-5.5194,-5.5194,-5.5194,-5.5042,-5.4991,-5.5194,-5.486,-5.4743,-5.5194,-5.5042,-5.4955,-5.4955,-5.4722,-5.4553,-5.4487,-5.4414,-5.448,-5.4803,-5.4875,-5.5027,-5.5194,-5.5194,-5.5194,-5.5194,-5.5194,-5.5194,-5.5194,-5.5194,-5.5194,-5.5194,-5.5194,-5.5194,-5.5194,-5.5194,-5.5194,-5.5194,-5.5194,-5.5194,-5.5194,-4.6313,-4.6313,-4.6313,-4.6313,-4.6313,-4.6313,-4.6313,-4.6313,-4.6541,-4.7172,-4.69,-4.6827,-4.7416,-4.7886,-4.8178,-4.8178,-4.9304,-5.014,-5.0337,-4.9648,-5.0155,-5.2054,-4.9818,-4.9321,-5.1044,-5.0532,-5.0253,-5.0155,-5.1729,-5.2419,-5.2366,-5.3117,-5.3605,-5.3762,-5.3852,-5.4178,-5.4619,-5.4737,-5.4941,-5.5194,-5.5194,-5.4743,-5.4082,-5.4406,-5.4575,-5.4626,-5.5027,-5.5194,-5.5194,-5.5194,-5.5194,-5.5194,-5.5194,-5.5194,-5.5194,-5.5194,-5.5194,-5.5194,-5.5194,-5.5194,-5.5194,-5.5194,-5.5194,-5.5194,-5.5194,-5.5194,-5.5194,-5.5194,-5.5194,-5.5194,-5.5194,-5.5194,-5.5194,-5.5194,-5.5194,-5.5194,0.0,-5.5194,-5.5194,-5.5194,-5.5042,-5.4991,-5.5042,-5.4809,-5.4743,-5.5042,-5.4991,-5.4941,-5.4941,-5.4854,-5.4722,-5.4626,-5.4605,-5.4722,-5.4941,-5.4991,-5.5093,-5.5194,-5.5194,-5.5194,-5.5194,-5.5194,-5.5194,-5.5194,-5.5194,-5.5194,-5.5194,-5.5194,-5.5194,-5.5194,-5.5194,-5.5194,-5.5194,-5.5194,-5.5194,-5.5194,-4.6313,-4.6313,-4.6313,-4.6313,-4.6313,-4.6313,-4.6313,-4.6313,-4.6695,-4.7873,-4.704,-4.6815,-4.8035,-4.8647,-4.9036,-4.9093,-5.1701,-5.2736,-5.1359,-5.2295,-5.2963,-5.3083,-5.263,-5.3097,-5.4634,-5.437,-5.4097,-5.38,-5.3852,-5.3762,-5.3515,-5.3515,-5.3515,-5.3515,-5.3762,0.0,-5.4304,-5.4619,-5.4941,-5.5194,-5.5194,-5.5128,-5.4911,-5.3808,-5.3346,-5.3361,-5.4575,-5.5078,-5.5128,-5.5128,-5.5128,-5.5194,-5.5194,-5.5194,-5.5194,-5.5194,-5.5194,-5.5194,-5.5194,-5.5194,-5.5194,-5.5194,-5.5194,-5.5194,-5.5194,-5.5194,-5.5194,-5.5194,-5.5194,-5.5194,-5.5194,-5.5194,-5.5194,-5.5194,-5.5194,-5.5194,-5.5194,-5.5194,-5.5194,-5.5194,-5.5194,-5.5093,-5.4854,-5.4991,-5.5042,-5.4803,-5.5042,-5.5143,-5.5194,-5.4955,-5.489,-5.5194,-5.4626,-5.459,-5.5194,-5.4955,-5.4955,-5.5194,-5.5194,-5.5194,-5.5194,-5.5194,-5.5194,-5.5194,-5.5194,-5.5194,-5.5194,-5.5194,-5.5194,-5.5194,-5.5194,-5.5194,-5.5194,-5.5194,-5.5194,-5.5194,-4.6313,-4.6313,-4.6313,-4.6313,-4.6313,-4.6313,-4.6313,-4.6313,-4.6481,-4.7066,-4.684,-4.7244,-4.8655,-4.9001,-4.9445,-5.0349,-5.1279,-5.2028,-5.2512,-5.1783,-5.223,-5.423,-5.2094,-5.1578,-5.3045,-5.2832,-5.2619,-5.258,-5.3261,-5.3568,-5.3515,0.0,-5.3515,-5.3515,0.0,-5.3852,-5.4304,-5.437,-5.4758,-5.5194,-5.5194,-5.4149,-5.2673,-5.3203,-5.2323,-5.0962,-5.2176,-5.315,-5.386,-5.386,-5.4458,-5.5194,-5.5194,-5.5194,-5.5194,-5.5194,-5.5194,-5.5194,-5.5194,-5.5194,-5.5194,-5.5194,-5.5194,-5.5194,-5.5194,-5.5194,-5.5194,-5.5194,-5.5194,-5.5194,-5.5194,-5.5194,-5.5194,-5.5194,-5.5194,-5.5194,-5.5194,-5.5042,-5.4991,-5.5194,-5.4794,-5.4692,-5.5042,-5.4553,-5.4399,-5.4751,-5.4641,-5.4641,-5.489,-5.4854,-5.489,-5.5194,-5.4875,-5.4824,-5.5194,-5.5143,-5.5143,-5.5194,-5.5194,-5.5194,-5.5194,-5.5194,-5.5194,-5.5194,-5.5194,-5.5194,-5.5194,-5.5194,-5.5194,-5.5194,-5.5194,-5.5194,-5.5194,-5.5194,-5.5194,-5.5194,-4.6313,-4.6313,-4.6313,-4.6313,-4.6313,-4.6313,-4.6313,-4.6313,-4.6541,-4.7277,-4.69,-4.7125,-4.8526,-4.8321,-4.8392,-4.9028,-4.9829,-5.0308,-5.0294,-5.1223,-5.2108,-5.2818,-5.2498,-5.2591,-5.3241,-5.2992,-5.29,-5.29,-5.3275,-5.3515,-5.3515,0.0,0.0,0.0,0.0,-5.371,-5.4149,-5.4436,-5.4707,-5.4991,-5.4575,-5.3637,0.0,-5.2,-5.1058,-4.9915,-5.0097,-5.1237,-5.2712,-5.3241,-5.386,-5.4524,-5.5027,-5.5194,-5.5194,-5.5194,-5.5194,-5.5194,-5.5194,-5.5194,-5.5194,-5.5194,-5.5194,-5.5194,-5.5194,-5.5194,-5.5194,-5.5194,-5.5194,-5.5194,-5.5194,-5.5194,-5.5194,-5.5194,-5.5194,-5.5194,-5.5194,-5.5093,-5.5042,-5.5194,-5.4911,-5.486,-5.5194,-5.4539,-5.4215,-5.4553,-5.4553,-5.4656,-5.4941,-5.4839,-5.489,-5.5194,-5.4955,-5.4941,-5.5194,-5.5194,-5.5194,-5.5194,-5.5194,-5.5194,-5.5194,-5.5194,-5.5194,-5.5194,-5.5194,-5.5194,-5.5194,-5.5194,-5.5194,-5.5194,-5.5194,-5.5194,-5.5194,-5.5194,-5.5194,-5.5194,-4.6313,-4.6313,-4.6313,-4.6313,-4.6313,-4.6313,-4.6313,-4.6313,-4.6695,-4.7756,-4.6921,-4.6755,-4.7977,-4.7455,-4.7019,-4.7197,-4.8384,-4.8602,-4.7349,-5.0768,-5.2201,-5.0588,-5.3218,-5.4568,-5.4252,-5.4008,-5.3904,-5.3904,-5.3605,-5.3515,-5.3515,0.0,0.0,0.0,0.0,0.0,0.0,-5.4568,-5.4803,-5.4737,-5.3756,-5.3308,-5.2871,-5.074,-4.9802,-4.9532,-4.8566,-4.9616,-5.162,-5.2818,-5.3308,-5.3637,-5.4794,-5.5194,-5.5194,-5.5194,-5.5194,-5.5194,-5.5194,-5.5194,-5.5194,-5.5194,-5.5194,-5.5194,-5.5194,-5.5194,-5.5194,-5.5194,-5.5194,-5.5194,-5.5194,-5.5194,-5.5194,-5.5194,-5.5194,-5.5194,-5.5194,-5.5128,-5.5078,-5.5143,-5.5093,0.0,-5.5078,-5.4626,-5.4304,-5.4355,-5.4553,-5.4788,-5.5078,-5.4875,-5.4839,-5.5143,-5.489,-5.4941,-5.5194,-5.5194,-5.5194,-5.5194,-5.5194,-5.5194,-5.5194,-5.5194,-5.5194,-5.5194,-5.5194,-5.5194,-5.5194,-5.5194,-5.5194,-5.5194,-5.5194,-5.5194,-5.5194,-5.5194,-5.5194,-5.5194,-4.6313,-4.6313,-4.6313,-4.6313,-4.6313,-4.6313,-4.6313,-4.6313,-4.6361,-4.6588,-4.6421,-4.6755,-4.7977,-4.799,-4.8281,-4.9247,-4.9775,-4.9973,-4.9705,-5.1278,-5.2122,-5.1783,-5.3232,-5.4008,-5.3956,-5.3904,-5.3904,-5.3904,-5.3605,-5.3515,-5.3515,-5.3515,0.0,0.0,0.0,0.0,-5.4252,-5.4619,-5.4803,-5.4737,-5.3756,-5.2712,-5.1553,-5.0364,-4.9318,-4.845,-4.8289,-4.9058,-5.0406,-5.1565,-5.2605,-5.3637,-5.4794,-5.5194,-5.5194,-5.5194,-5.5194,-5.5194,-5.5194,-5.5194,-5.5194,-5.5194,-5.5194,-5.5194,-5.5194,-5.5194,-5.5194,-5.5194,-5.5194,-5.5194,-5.5194,-5.5194,-5.5194,-5.5194,-5.5194,-5.5194,-5.5194,-5.4743,-5.459,-5.4839,-5.4451,-5.4215,-5.4421,-5.4355,-5.4421,-5.4671,-5.4296,-5.4164,-5.4458,-5.4421,-5.4539,-5.4839,-5.4788,-5.4941,-5.5194,-5.5194,-5.5194,-5.5194,-5.5194,-5.5194,-5.5194,-5.5194,-5.5194,-5.5194,-5.5194,-5.5194,-5.5194,-5.5194,-5.5194,-5.5194,-5.5194,-5.5194,-5.5194,-5.5194,-5.5194,-5.5194,-4.6313,-4.6313,-4.6313,-4.6313,-4.6313,-4.6313,-4.6313,-4.6552,-4.664,-4.6351,-4.6313,-4.6642,-4.7496,-4.7581,-4.7923,-4.8778,-4.8956,-4.9357,-5.0072,-5.1023,-5.153,-5.1488,-5.3019,-5.3524,-5.2794,-5.3366,-5.371,-5.371,-5.3553,-5.3515,-5.3515,-5.3515,-5.3515,0.0,0.0,-5.3658,0.0,-5.4193,-5.3956,-5.3352,-5.258,-5.1415,-5.0028,-4.9076,-4.8308,-4.7729,-4.823,-4.8662,-4.9258,-5.1072,-5.2445,-5.3696,-5.5247,-5.5703,-5.5763,-5.6077,-5.6181,-5.6181,-5.6181,-5.6181,-5.6181,-5.6181,-5.5942,-5.5703,-5.5703,-5.5433,-5.5194,-5.5194,-5.5194,-5.5194,-5.5194,-5.5194,-5.5194,-5.5194,-5.5093,-5.5042,-5.5194,-5.4824,-5.4605,-5.4803,-5.4671,-5.4553,-5.4553,-5.4421,-5.437,-5.4553,-5.4126,-5.4008,-5.4304,-5.4149,-5.4215,-5.4553,-5.4553,-5.4707,-5.4991,-5.5143,-5.5194,-5.5194,-5.5194,-5.5194,-5.5194,-5.5194,-5.5194,-5.5194,-5.5194,-5.5194,-5.5194,-5.5194,-5.5194,-5.5194,-5.5194,-5.5194,-5.5194,-5.5194,-5.5194,-5.5194,-4.6313,-4.6313,-4.6351,-4.6464,-4.6489,-4.6527,-4.6627,-4.7016,-4.7104,-4.6552,-4.6577,-4.6815,-4.7242,-4.7292,-4.7456,-4.787,-4.7908,-4.833,-4.9421,-5.0591,-5.1075,-5.0698,-5.2966,-5.3366,-5.1556,-5.2701,-5.3261,-5.3117,-5.3117,-5.3237,-5.3515,-5.3515,-5.3515,-5.3515,-5.3515,-5.3515,-5.3553,-5.3538,-5.2967,-5.2014,-5.1155,-5.0109,-4.9006,-4.8153,-4.7712,-4.7628,-4.8403,-4.8679,-4.8981,-5.1166,-5.2559,-5.368,-5.5753,-5.6361,-5.6466,-5.6959,-5.7094,-5.7094,-5.7094,-5.7094,-5.7094,-5.7094,-5.672,-5.6361,-5.6361,-5.5867,-5.5403,-5.5403,-5.5284,-5.5194,-5.5194,-5.5143,-5.5143,-5.5194,-5.4991,-5.4839,-5.5093,-5.4941,-5.4788,-5.4671,-5.4941,-5.5042,-5.4788,-5.4553,-5.437,-5.4304,-5.4008,-5.3956,-5.42,-5.406,-5.4097,-5.4304,-5.4406,-5.459,-5.489,-5.5093,-5.5194,-5.5194,-5.5194,-5.5194,-5.5194,-5.5194,-5.5194,-5.5194,-5.5194,-5.5194,-5.5194,-5.5194,-5.5194,-5.5194,-5.5194,-5.5194,-5.5194,-5.5194,-5.5194,-5.5194,-4.6313,-4.6313,-4.6464,-4.6966,-4.7067,-4.7217,-4.7694,-4.7807,-4.7644,-4.7129,-4.7468,-4.7782,-4.7832,-4.7845,-4.7857,-4.7908,-4.7908,-4.797,-4.8094,-5.0327,-5.1129,-4.9934,-5.3346,-5.3858,-5.0843,-5.2101,-5.2512,-5.1851,-5.1851,-5.2434,-5.3515,-5.3515,-5.3515,-5.3515,-5.3515,-5.3658,-5.38,-5.274,-5.219,-5.1906,-5.0,-4.9254,-4.9245,-4.8394,-4.832,-4.8769,-4.8833,-4.9525,-5.0584,-5.2037,-5.2753,-5.3528,-5.6193,-5.7019,-5.7019,-5.7079,-5.7094,-5.7094,-5.7094,-5.7094,-5.7094,-5.7094,-5.7049,-5.7019,-5.7019,-5.6526,-5.6092,-5.6092,-5.5598,-5.5194,-5.5194,-5.4991,-5.489,-5.5143,-5.4991,-5.4803,-5.4854,-5.4803,-5.4671,-5.4355,-5.4656,-5.4854,-5.4803,-5.4788,-5.4619,-5.4304,-5.3815,-5.3658,-5.3904,-5.4149,-5.4252,-5.4304,-5.486,-5.5128,-5.5143,-5.5194,-5.5194,-5.5194,-5.5194,-5.5194,-5.5194,-5.5194,-5.5194,-5.5194,-5.5194,-5.5194,-5.5194,-5.5194,-5.5194,-5.5194,-5.5194,-5.5194,-5.5194,-5.5194,-5.5194,-5.5194,-4.674,-4.6803,-4.6979,-4.7506,-4.7594,-4.7669,-4.787,-4.8209,-4.8347,-4.8146,-4.7996,-4.8033,-4.8385,-4.8422,-4.856,-4.8887,-4.8925,-4.9217,-5.0045,-5.0708,-5.0814,-5.0355,-5.2143,-5.2177,-5.0194,-5.1411,-5.1935,-5.163,-5.1975,-5.2415,-5.2921,-5.329,-5.3515,-5.3462,-5.2716,-5.2473,-5.2566,-5.2068,-5.1225,-5.0189,-5.0273,-4.9592,-4.8477,-4.8319,-4.8288,-4.8393,-4.8935,-4.9285,-4.9965,-5.2734,-5.369,-5.4159,-5.6461,-5.7161,-5.7235,-5.7635,-5.7739,-5.7808,-5.7985,-5.8038,-5.8092,-5.8253,-5.8007,-5.7708,-5.7708,-5.7199,-5.6563,-5.602,-5.5255,-5.4692,-5.4941,-5.4839,-5.4788,-5.4692,-5.459,-5.4487,-5.4487,-5.4333,-5.4282,-5.4304,-5.4421,-5.4487,-5.4487,-5.4487,-5.4421,-5.4304,-5.3956,-5.3815,-5.3904,-5.3852,-5.3956,-5.4304,-5.4524,-5.4758,-5.4941,-5.5143,-5.5194,-5.5194,-5.5194,-5.5194,-5.5194,-5.5194,-5.5194,-5.5194,-5.5194,-5.5194,-5.5194,-5.5194,-5.5194,-5.5194,-5.5194,-5.5194,-5.5194,-5.5194,-5.5194,-5.5194,-4.728,-4.7355,-4.7531,-4.8071,-4.8159,-4.8222,-4.8385,-4.8749,-4.9012,-4.9012,-4.8648,-4.856,-4.8962,-4.9012,-4.9163,-4.9565,-4.959,-4.995,-5.0903,-5.0903,-5.0695,-5.0411,-5.1523,-5.1336,-4.9558,-5.0697,-5.1261,-5.1086,-5.1848,-5.2252,-5.2252,-5.3079,-5.3679,-5.4013,-5.3152,-5.2579,-5.2181,-5.1836,-5.0718,-4.9218,-4.9916,-4.9377,-4.8159,-4.8421,-4.846,-4.846,-4.9128,-4.9203,-4.9495,-5.2519,-5.3512,-5.3977,-5.6654,-5.7462,-5.762,-5.8062,-5.821,-5.8265,-5.85,-5.8555,-5.8609,-5.8897,-5.8539,-5.8143,-5.825,-5.7675,-5.6839,-5.5887,-5.513,-5.4658,-5.4766,-5.4634,-5.4502,-5.4304,-5.4252,-5.42,-5.42,-5.4112,-5.406,-5.4149,-5.4318,-5.4421,-5.4304,-5.437,-5.437,-5.42,-5.4008,-5.3956,-5.4008,-5.3919,-5.4037,-5.4436,-5.4524,-5.4692,-5.489,-5.5093,-5.5194,-5.5194,-5.5194,-5.5194,-5.5194,-5.5194,-5.5194,-5.5194,-5.5194,-5.5194,-5.5194,-5.5194,-5.5194,-5.5194,-5.5194,-5.5194,-5.5194,-5.5194,-5.5194,-5.5194,-4.7895,-4.7895,-4.8083,-4.8661,-4.8761,-4.895,-4.949,-4.9577,-4.959,-4.959,-4.9577,-4.9577,-4.959,-4.959,-4.959,-4.959,-4.959,-4.959,-4.959,-5.0777,-5.0954,-4.9642,-5.2077,-5.1984,-4.8901,-5.009,-5.0407,-4.9845,-5.1105,-5.1692,-5.1661,-5.2919,-5.4174,-5.5387,-5.5387,-5.4646,-5.3373,-5.2188,-5.0974,-4.965,-4.844,-4.8309,-4.8761,-4.8825,-4.91,-4.9577,-4.9577,-4.959,-4.9758,-5.1079,-5.1554,-5.2319,-5.6807,-5.8195,-5.8195,-5.821,-5.821,-5.821,-5.821,-5.821,-5.8265,-5.8624,-5.8445,-5.8305,-5.8609,-5.7927,-5.6908,-5.5924,-5.5448,-5.5167,-5.4855,-5.4296,-5.4008,-5.4252,-5.406,-5.3904,-5.3904,-5.4149,-5.42,-5.3956,-5.4414,-5.4671,-5.4355,-5.4605,-5.4568,-5.3956,-5.3904,-5.4008,-5.4304,-5.4619,-5.4803,-5.4803,-5.5042,-5.5194,-5.5194,-5.5194,-5.5194,-5.5194,-5.5194,-5.5194,-5.5194,-5.5194,-5.5194,-5.5194,-5.5194,-5.5194,-5.5194,-5.5194,-5.5194,-5.5194,-5.5194,-5.5194,-5.5194,-5.5194,-5.5194,-5.5194,-4.8422,-4.8498,-4.8673,-4.9238,-4.9339,-4.9389,-4.9565,-4.959,-4.959,-4.959,-4.959,-4.959,-4.959,-4.959,-4.959,-4.959,-4.959,-4.959,-4.959,-4.995,-5.0014,-4.959,-5.0385,-5.0359,-4.9403,-4.9761,-4.985,-4.9672,-5.0555,-5.1163,-5.1616,-5.2024,-5.2875,-5.4035,-5.2345,-5.1809,-5.2215,-5.0941,-4.9885,-4.9162,-4.9585,-4.9556,-4.9339,-4.9339,-4.9439,-4.959,-4.959,-4.959,-4.977,-5.1092,-5.1505,-5.2051,-5.5311,-5.628,-5.6451,-5.7345,-5.7584,-5.764,-5.7877,-5.7948,-5.8003,-5.8265,-5.8265,-5.821,-5.832,-5.7614,-5.6799,-5.6252,-5.5366,-5.4671,-5.4259,-5.4023,-5.3852,-5.3762,-5.3867,-5.3867,-5.3658,-5.371,-5.3815,-5.3904,-5.3933,-5.3933,-5.4008,-5.4112,-5.4178,-5.4149,-5.4385,-5.4348,-5.4045,-5.4126,-5.4348,-5.4803,-5.489,-5.4991,-5.5194,-5.5194,-5.5194,-5.5194,-5.5194,-5.5194,-5.5194,-5.5194,-5.5194,-5.5194,-5.5194,-5.5194,-5.5194,-5.5194,-5.5194,-5.5194,-5.5194,-5.5194,-5.5194,-5.5194,-5.5194,-5.5194,-4.9012,-4.9088,-4.9188,-4.954,-4.959,-4.959,-4.959,-4.959,-4.959,-4.959,-4.959,-4.959,-4.959,-4.959,-4.959,-4.959,-4.959,-4.959,-4.959,-4.959,-4.959,-4.959,-4.959,-4.959,-4.959,-4.959,-4.959,-4.959,-5.004,-5.0961,-5.2279,-5.1789,-5.2252,-5.3439,-5.1849,-5.1356,-5.157,-5.0764,-4.9891,-4.9139,-4.9924,-4.9952,-4.959,-4.959,-4.959,-4.959,-4.959,-4.959,-4.9719,-5.055,-5.079,-5.1155,-5.3275,-5.3937,-5.4355,-5.6637,-5.7303,-5.736,-5.7542,-5.7598,-5.7654,-5.7988,-5.7988,-5.7863,-5.7863,-5.7403,-5.6881,-5.6564,-5.561,-5.4701,-5.4364,-5.3975,-5.371,-5.3515,-5.3658,-5.371,-5.3515,-5.3515,-5.3553,-5.371,-5.371,-5.3658,-5.3762,-5.3852,-5.3956,-5.4149,-5.4333,-5.4348,-5.406,-5.4178,-5.4466,-5.4955,-5.4839,-5.4941,-5.5194,-5.5194,-5.5194,-5.5194,-5.5194,-5.5194,-5.5194,-5.5194,-5.5194,-5.5194,-5.5194,-5.5194,-5.5194,-5.5194,-5.5194,-5.5194,-5.5194,-5.5194,-5.5194,-5.5194,-5.5194,-5.5194,-4.959,-4.959,-4.959,-4.959,-4.959,-4.959,-4.959,-4.959,-4.959,-4.959,-4.959,-4.959,-4.959,-4.959,-4.959,-4.959,-4.959,-4.959,-4.959,-4.959,-4.959,-4.959,-4.959,-4.959,-4.959,-4.959,-4.959,-4.959,-4.959,-5.0816,-5.3194,-5.194,-5.2064,-5.3376,-5.3254,-5.257,-5.1505,-5.138,-5.0664,-4.959,-4.959,-4.959,-4.959,-4.959,-4.959,-4.959,-4.959,-4.959,-4.959,-4.959,-4.959,-4.9835,-5.1079,-5.1505,-5.2222,-5.6035,-5.7191,-5.7191,-5.7303,-5.7303,-5.736,-5.7669,-5.7542,-5.7303,-5.7303,-5.7303,-5.7185,-5.6851,-5.6031,-5.5267,-5.4924,-5.4109,-5.3515,-5.3515,-5.3515,-5.3515,-5.3515,-5.3515,-5.3515,-5.3515,-5.371,-5.3762,-5.3515,-5.371,-5.3852,-5.3904,-5.3904,-5.4008,-5.4304,-5.4605,-5.489,-5.5143,-5.4941,-5.4955,-5.5194,-5.5194,-5.5194,-5.5194,-5.5194,-5.5194,-5.5194,-5.5194,-5.5194,-5.5194,-5.5194,-5.5194,-5.5194,-5.5194,-5.5194,-5.5194,-5.5194,-5.5194,-5.5194,-5.5194,-5.5194,-5.5194,-4.959,-4.959,-4.959,-4.959,-4.959,-4.959,-4.959,-4.959,-4.959,-4.959,-4.959,-4.959,-4.959,-4.959,-4.959,-4.959,-4.959,-4.959,-4.959,-4.959,-4.959,-4.959,-4.959,-4.959,-4.959,-4.959,-4.959,-4.959,-4.959,-4.9899,-5.0512,-5.0206,-5.074,-5.194,-5.0992,-5.0853,-5.1442,-5.0423,-4.9899,-4.959,-4.959,-4.959,-4.959,-4.959,-4.959,-4.959,-4.959,-4.959,-4.959,-4.959,-4.959,-4.9835,-5.1079,-5.1505,-5.2051,-5.4959,-5.5876,-5.605,-5.7063,-5.7303,-5.7303,-5.7416,-5.736,-5.7303,-5.7303,-5.7303,-5.7129,-5.659,-5.5921,-5.5228,-5.4672,-5.4018,-5.3515,-5.3515,-5.3515,-5.3515,-5.3515,-5.3515,-5.3515,-5.3515,-5.3568,-5.3568,-5.3515,-5.3568,-5.3658,-5.3904,-5.3904,-5.4126,-5.4671,-5.4487,-5.4539,-5.489,-5.5042,-5.5143,-5.5194,-5.5194,-5.5194,-5.5194,-5.5194,-5.5194,-5.5194,-5.5194,-5.5194,-5.5194,-5.5194,-5.5194,-5.5194,-5.5194,-5.5194,-5.5194,-5.5194,-5.5194,-5.5194,-5.5194,-5.5194,-5.5194,-4.959,-4.959,-4.959,-4.959,-4.959,-4.959,-4.959,-4.959,-4.959,-4.959,-4.959,-4.959,-4.959,-4.959,-4.959,-4.959,-4.959,-4.959,-4.959,-4.959,-4.959,-4.959,-4.959,-4.959,-4.959,-4.959,-4.959,-4.959,-4.959,-4.959,-4.959,-4.959,-4.995,-5.0613,-4.9886,-4.995,-5.0613,-4.9899,-4.959,-4.959,-4.959,-4.959,-4.959,-4.959,-4.959,-4.959,-4.959,-4.959,-4.959,-4.959,-4.959,-4.9719,-5.0436,-5.0613,-5.1029,-5.3032,-5.4487,-5.5572,-5.6236,-5.6879,-5.7303,-5.7303,-5.7303,-5.7303,-5.7303,-5.7303,-5.7216,-5.6882,-5.607,-5.5315,-5.4981,-5.4154,-5.3515,-5.3515,-5.3515,-5.3515,-5.3515,-5.3515,-5.3515,-5.3515,-5.3515,-5.3515,-5.3515,-5.3515,-5.3605,-5.3852,-5.3904,-5.4126,-5.4553,-5.4539,-5.4656,-5.4991,-5.4991,-5.5093,-5.5194,-5.5194,-5.5194,-5.5194,-5.5194,-5.5194,-5.5194,-5.5194,-5.5194,-5.5194,-5.5194,-5.5194,-5.5194,-5.5194,-5.5194,-5.5194,-5.5194,-5.5194,-5.5194,-5.5194,-5.5194,-5.5194,-4.959,-4.959,-4.959,-4.959,-4.959,-4.959,-4.959,-4.959,-4.959,-4.959,-4.959,-4.959,-4.959,-4.959,-4.959,-4.959,-4.959,-4.959,-4.959,-4.959,-4.959,-4.959,-4.959,-4.959,-4.959,-4.959,-4.959,-4.959,-4.959,-4.959,-4.959,-4.959,-4.959,-4.959,-4.959,-4.959,-4.959,-4.959,-4.959,-4.959,-4.959,-4.959,-4.959,-4.959,-4.959,-4.959,-4.959,-4.959,-4.959,-4.959,-4.959,-4.959,-4.959,-4.959,-4.9835,-5.0903,-5.291,-5.4856,-5.5046,-5.605,-5.7063,-5.7247,-5.7303,-5.7303,-5.7303,-5.7303,-5.7303,-5.7303,-5.6287,-5.5402,-5.5402,-5.4371,-5.3515,-5.3515,-5.3515,-5.3515,-5.3515,-5.3515,-5.3515,-5.3515,-5.3515,-5.3515,-5.3515,-5.3515,-5.3605,-5.38,-5.3867,-5.3956,-5.4252,-5.4502,-5.4788,-5.5078,-5.4941,-5.4941,-5.5194,-5.5194,-5.5194,-5.5194,-5.5194,-5.5194,-5.5194,-5.5194,-5.5194,-5.5194,-5.5194,-5.5194,-5.5194,-5.5194,-5.5194,-5.5194,-5.5194,-5.5194,-5.5194,-5.5194,-5.5194,-5.5194,-4.959,-4.959,-4.959,-4.959,-4.959,-4.959,-4.959,-4.959,-4.959,-4.959,-4.959,-4.959,-4.959,-4.959,-4.959,-4.959,-4.959,-4.959,-4.959,-4.959,-4.959,-4.959,-4.959,-4.959,-4.959,-4.959,-4.959,-4.959,-4.959,-4.959,-4.959,-4.959,-4.959,-4.959,-4.959,-4.959,-4.959,-4.959,-4.959,-4.959,-4.959,-4.959,-4.959,-4.959,-4.959,-4.959,-4.959,-4.959,-4.959,-4.959,-4.959,-4.959,-4.959,-4.959,-4.9654,-4.9835,-5.0903,-5.2359,-5.3483,-5.4752,-5.5934,-5.7007,-5.7303,-5.7303,-5.7303,-5.7303,-5.7303,-5.7303,-5.6287,-5.5402,-5.5402,-5.4371,-5.3515,-5.3515,-5.3515,-5.3515,-5.3515,-5.3515,-5.3515,-5.3515,-5.3515,-5.3515,-5.3515,-5.3515,-5.3515,-5.3568,-5.3553,-5.3658,-5.3956,-5.4008,-5.4164,-5.4406,-5.4911,-5.5143,-5.5194,-5.5194,-5.5194,-5.5194,-5.5194,-5.5194,-5.5194,-5.5194,-5.5194,-5.5194,-5.5194,-5.5194,-5.5194,-5.5194,-5.5194,-5.5194,-5.5194,-5.5194,-5.5194,-5.5194,-5.5194,-5.5194,-4.959,-4.959,-4.959,-4.959,-4.959,-4.959,-4.959,-4.959,-4.959,-4.959,-4.959,-4.959,-4.959,-4.959,-4.959,-4.959,-4.959,-4.959,-4.959,-4.959,-4.959,-4.959,-4.959,-4.959,-4.959,-4.959,-4.959,-4.959,-4.959,-4.959,-4.959,-4.959,-4.959,-4.959,-4.959,-4.959,-4.959,-4.959,-4.959,-4.959,-4.959,-4.959,-4.959,-4.959,-4.959,-4.959,-4.959,-4.959,-4.959,-4.959,-4.959,-4.959,-4.959,-4.959,-4.959,-4.959,-5.0486,-5.1816,-5.3133,-5.4455,-5.5514,-5.6107,-5.6765,-5.7303,-5.7303,-5.7303,-5.7216,-5.6882,-5.607,-5.5315,-5.4981,-5.4154,-5.3515,-5.3515,-5.3515,-5.3515,-5.3515,-5.3515,-5.3515,-5.3515,-5.3515,-5.3515,-5.3515,-5.3515,-5.3515,-5.3515,-5.3515,-5.3553,-5.3658,-5.38,-5.3956,-5.4097,-5.4656,-5.5042,-5.5194,-5.5194,-5.5194,-5.5194,-5.5194,-5.5194,-5.5194,-5.5194,-5.5194,-5.5194,-5.5194,-5.5194,-5.5194,-5.5194,-5.5194,-5.5194,-5.5194,-5.5194,-5.5194,-5.5194,-5.5194,-5.5194,-4.959,-4.959,-4.959,-4.959,-4.959,-4.959,-4.959,-4.959,-4.959,-4.959,-4.959,-4.959,-4.959,-4.959,-4.959,-4.959,-4.959,-4.959,-4.959,-4.959,-4.959,-4.959,-4.959,-4.959,-4.959,-4.959,-4.959,-4.959,-4.959,-4.959,-4.959,-4.959,-4.959,-4.959,-4.959,-4.959,-4.959,-4.959,-4.959,-4.959,-4.959,-4.959,-4.959,-4.959,-4.959,-4.959,-4.959,-4.959,-4.959,-4.959,-4.959,-4.959,-4.959,-4.959,-4.959,-4.959,-5.0308,-5.133,-5.2692,-5.3771,-5.4546,-5.4856,-5.5934,-5.6879,-5.6879,-5.6962,-5.6969,-5.6505,-5.5765,-5.5068,-5.4604,-5.3965,-5.3515,-5.3515,-5.3515,-5.3515,-5.3515,-5.3515,-5.3515,-5.3515,-5.3515,-5.3515,-5.3515,-5.3515,-5.3515,-5.3515,-5.3515,-5.3515,-5.3515,-5.371,-5.3852,-5.4008,-5.4517,-5.4941,-5.5194,-5.5194,-5.5194,-5.5194,-5.5194,-5.5194,-5.5194,-5.5194,-5.5194,-5.5194,-5.5194,-5.5194,-5.5194,-5.5194,-5.5194,-5.5194,-5.5194,-5.5194,-5.5194,-5.5194,-5.5194,-5.5194,-4.959,-4.959,-4.959,-4.959,-4.959,-4.959,-4.959,-4.959,-4.959,-4.959,-4.959,-4.959,-4.959,-4.959,-4.959,-4.959,-4.959,-4.959,-4.959,-4.959,-4.959,-4.959,-4.959,-4.959,-4.959,-4.959,-4.959,-4.959,-4.959,-4.959,-4.959,-4.959,-4.959,-4.959,-4.959,-4.959,-4.959,-4.959,-4.959,-4.959,-4.959,-4.959,-4.959,-4.959,-4.959,-4.959,-4.959,-4.959,-4.959,-4.959,-4.959,-4.959,-4.959,-4.959,-4.959,-4.959,-4.9654,-5.0014,-5.133,-5.1754,-5.2064,-5.3302,-5.4633,-5.5514,-5.5514,-5.6051,-5.6461,-5.6418,-5.5431,-5.456,-5.4531,-5.3965,-5.3515,-5.3515,-5.3515,-5.3515,-5.3515,-5.3515,-5.3515,-5.3515,-5.3515,-5.3515,-5.3515,-5.3515,-5.3515,-5.3515,-5.3515,-5.3515,-5.3515,-5.3515,-5.3762,-5.4252,-5.4605,-5.4941,-5.5194,-5.5194,-5.5194,-5.5194,-5.5194,-5.5194,-5.5194,-5.5194,-5.5194,-5.5194,-5.5194,-5.5194,-5.5194,-5.5194,-5.5194,-5.5194,-5.5194,-5.5194,-5.5194,-5.5194,-5.5194,-5.5194,-4.959,-4.959,-4.959,-4.959,-4.959,-4.959,-4.959,-4.959,-4.959,-4.959,-4.959,-4.959,-4.959,-4.959,-4.959,-4.959,-4.959,-4.959,-4.959,-4.959,-4.959,-4.959,-4.959,-4.959,-4.959,-4.959,-4.959,-4.959,-4.959,-4.959,-4.959,-4.959,-4.959,-4.959,-4.959,-4.959,-4.959,-4.959,-4.959,-4.959,-4.959,-4.959,-4.959,-4.959,-4.959,-4.959,-4.959,-4.959,-4.954,-4.9201,-4.9088,-4.9025,-4.8661,-4.8548,-4.8548,-4.8548,-4.8548,-4.8661,-4.9138,-5.0361,-5.1551,-5.1702,-5.2747,-5.3589,-5.3275,-5.3963,-5.4584,-5.4185,-5.432,-5.4386,-5.3965,-5.3689,-5.3515,-5.3515,-5.3515,-5.3515,-5.3515,-5.3515,-5.3515,-5.3515,-5.3515,-5.3515,-5.3515,-5.3515,-5.3515,-5.3515,-5.3515,-5.3515,-5.3515,-5.3658,-5.4023,-5.4605,-5.4737,-5.4941,-5.5194,-5.5194,-5.5194,-5.5194,-5.5194,-5.5194,-5.5194,-5.5194,-5.5194,-5.5194,-5.5194,-5.5194,-5.5194,-5.5194,-5.5194,-5.5194,-5.5194,-5.5194,-5.5194,-5.5194,-5.5194,-5.5194,-4.959,-4.959,-4.959,-4.959,-4.959,-4.959,-4.959,-4.959,-4.959,-4.959,-4.959,-4.959,-4.959,-4.959,-4.959,-4.959,-4.959,-4.959,-4.959,-4.959,-4.959,-4.959,-4.959,-4.959,-4.959,-4.959,-4.959,-4.959,-4.959,-4.959,-4.959,-4.959,-4.959,-4.959,-4.959,-4.959,-4.959,-4.959,-4.959,-4.959,-4.959,-4.949,-4.9339,-4.9339,-4.9226,-4.9063,-4.9063,-4.9063,-4.9,-4.8623,-4.8498,-4.8435,-4.8033,-4.7908,-4.7908,-4.7908,-4.7908,-4.7908,-4.7908,-4.9111,-5.0271,-4.9909,-5.0759,-5.1661,-5.1317,-5.2308,-5.322,-5.2798,-5.3477,-5.4067,-5.3602,-5.3515,-5.3515,-5.3515,-5.3515,-5.3515,-5.3515,-5.3515,-5.3515,-5.3515,-5.3515,-5.3515,-5.3515,-5.3515,-5.3515,-5.3515,-5.3515,-5.3515,-5.3515,-5.3852,-5.423,-5.4619,-5.4839,-5.4991,-5.5194,-5.5194,-5.5194,-5.5194,-5.5194,-5.5194,-5.5194,-5.5194,-5.5194,-5.5194,-5.5194,-5.5194,-5.5194,-5.5194,-5.5194,-5.5194,-5.5194,-5.5194,-5.5194,-5.5194,-5.5194,-5.5194,-4.959,-4.959,-4.959,-4.959,-4.959,-4.959,-4.959,-4.959,-4.959,-4.959,-4.959,-4.959,-4.959,-4.959,-4.959,-4.959,-4.959,-4.959,-4.959,-4.959,-4.959,-4.959,-4.959,-4.959,-4.959,-4.959,-4.959,-4.959,-4.959,-4.959,-4.959,-4.959,-4.959,-4.959,-4.959,-4.959,-4.959,-4.959,-4.959,-4.959,-4.959,-4.9251,-4.8761,-4.8761,-4.841,-4.7908,-4.7908,-4.7908,-4.7908,-4.7908,-4.7895,-4.7895,-4.7895,-4.7895,-4.7895,-4.7895,-4.7895,-4.7895,-4.7895,-4.7895,-4.7895,-4.7895,-4.8858,-4.9892,-4.9892,-5.136,-5.2699,-5.2699,-5.312,-5.3515,-5.3515,-5.3515,-5.3515,-5.3515,-5.3515,-5.3515,-5.3515,-5.3515,-5.3515,-5.3515,-5.3515,-5.3515,-5.3515,-5.3515,-5.3515,-5.3515,-5.3515,-5.3515,-5.3515,-5.4008,-5.4304,-5.4304,-5.486,-5.5194,-5.5194,-5.5194,-5.5194,-5.5194,-5.5194,-5.5194,-5.5194,-5.5194,-5.5194,-5.5194,-5.5194,-5.5194,-5.5194,-5.5194,-5.5194,-5.5194,-5.5194,-5.5194,-5.5194,-5.5194,-5.5194,-5.5194,-4.959,-4.959,-4.959,-4.959,-4.959,-4.959,-4.959,-4.959,-4.959,-4.959,-4.959,-4.959,-4.959,-4.959,-4.959,-4.959,-4.959,-4.959,-4.959,-4.959,-4.959,-4.959,-4.959,-4.959,-4.959,-4.959,-4.959,-4.959,-4.959,-4.959,-4.959,-4.959,-4.959,-4.959,-4.959,-4.959,-4.959,-4.959,-4.9377,-4.9012,-4.9012,-4.8673,-4.8171,-4.8171,-4.8058,-4.7908,-4.7908,-4.7908,-4.7857,-4.7493,-4.7368,-4.7292,-4.6916,-4.679,-4.679,-4.679,-4.679,-4.679,-4.679,-4.679,-4.6878,-4.7267,-4.7662,-4.7866,-4.7472,-4.9128,-5.075,-5.075,-5.2184,-5.3515,-5.3515,-5.3515,-5.3515,-5.3515,-5.3515,-5.3515,-5.3515,-5.3515,-5.3515,-5.3515,-5.3515,-5.3515,-5.3515,-5.3515,-5.3515,-5.3515,-5.3515,-5.3568,-5.3762,-5.3956,-5.423,-5.4619,-5.4839,-5.4991,-5.5194,-5.5194,-5.5194,-5.5194,-5.5194,-5.5194,-5.5194,-5.5194,-5.5194,-5.5194,-5.5194,-5.5194,-5.5194,-5.5194,-5.5194,-5.5194,-5.5194,-5.5194,-5.5194,-5.5194,-5.5194,-5.5194,-4.959,-4.959,-4.959,-4.959,-4.959,-4.959,-4.959,-4.959,-4.959,-4.959,-4.959,-4.959,-4.959,-4.959,-4.959,-4.959,-4.959,-4.959,-4.959,-4.959,-4.959,-4.959,-4.959,-4.959,-4.959,-4.959,-4.959,-4.959,-4.959,-4.959,-4.959,-4.959,-4.959,-4.959,-4.959,-4.9477,-4.9264,-4.9264,-4.895,-4.8422,-4.8422,-4.8096,-4.7594,-4.7594,-4.7468,-4.728,-4.728,-4.728,-4.723,-4.6916,-4.6803,-4.6753,-4.6414,-4.6313,-4.6313,-4.6313,-4.6313,-4.6313,-4.6313,-4.6313,-4.6389,-4.6728,-4.6803,-4.6728,-4.6389,-4.7828,-4.9177,-4.9177,-5.0754,-5.211,-5.211,-5.211,-5.211,-5.211,-5.211,-5.2218,-5.2716,-5.2769,-5.2943,-5.3448,-5.3515,-5.3515,-5.3515,-5.3515,-5.3515,-5.3515,-5.3515,-5.3568,-5.371,-5.3852,-5.4075,-5.4414,-5.4568,-5.4656,-5.486,-5.486,-5.4962,-5.5194,-5.5194,-5.5194,-5.5194,-5.5194,-5.5194,-5.5194,-5.5194,-5.5194,-5.5194,-5.5194,-5.5194,-5.5194,-5.5194,-5.5194,-5.5194,-5.5194,-5.5194,-5.5194,-4.959,-4.959,-4.959,-4.959,-4.959,-4.959,-4.959,-4.959,-4.959,-4.959,-4.959,-4.959,-4.959,-4.959,-4.959,-4.959,-4.959,-4.959,-4.959,-4.959,-4.959,-4.959,-4.959,-4.959,-4.959,-4.959,-4.959,-4.959,-4.959,-4.959,-4.959,-4.959,-4.959,-4.959,-4.954,-4.9238,-4.8774,-4.8711,-4.836,-4.7845,-4.7845,-4.7518,-4.7067,-4.7067,-4.6753,-4.6313,-4.6313,-4.6313,-4.6313,-4.6313,-4.6313,-4.6313,-4.6313,-4.6313,-4.6313,-4.6313,-4.6313,-4.6313,-4.6313,-4.6313,-4.6313,-4.6313,-4.6313,-4.6313,-4.6313,-4.7265,-4.8094,-4.8094,-4.9062,-4.9915,-4.9915,-4.9915,-4.9915,-4.9915,-4.9915,-5.0294,-5.1525,-5.1688,-5.215,-5.3343,-5.3515,-5.3515,-5.3515,-5.3515,-5.3515,-5.3515,-5.3515,-5.3515,-5.3515,-5.371,-5.3852,-5.3904,-5.4149,-5.4304,-5.4304,-5.4304,-5.4575,-5.5128,-5.5143,-5.5143,-5.5194,-5.5194,-5.5194,-5.5194,-5.5194,-5.5194,-5.5194,-5.5194,-5.5194,-5.5194,-5.5194,-5.5194,-5.5194,-5.5194,-5.5194,-5.5194,-4.959,-4.959,-4.959,-4.959,-4.959,-4.959,-4.959,-4.959,-4.959,-4.959,-4.959,-4.959,-4.959,-4.959,-4.959,-4.959,-4.959,-4.959,-4.959,-4.959,-4.959,-4.959,-4.959,-4.959,-4.959,-4.959,-4.959,-4.959,-4.959,-4.959,-4.959,-4.959,-4.959,-4.9577,-4.9138,-4.8887,-4.8749,-4.8284,-4.7795,-4.7244,-4.7244,-4.6979,-4.6489,-4.6489,-4.6414,-4.6313,-4.6313,-4.6313,-4.6313,-4.6313,-4.6313,-4.6313,-4.6313,-4.6313,-4.6313,-4.6313,-4.6313,-4.6313,-4.6313,-4.6313,-4.6313,-4.6313,-4.6313,-4.6313,-4.6313,-4.7265,-4.8094,-4.8094,-4.9062,-4.9915,-4.9915,-4.9915,-4.9915,-4.9915,-4.9915,-5.0294,-5.1525,-5.1688,-5.215,-5.3343,-5.3515,-5.3515,-5.3515,-5.3515,-5.3515,-5.3515,-5.3515,-5.3515,-5.3515,-5.3568,-5.3658,-5.3904,-5.3956,-5.4112,-5.4304,-5.4304,-5.4355,-5.4524,-5.4773,-5.4905,-5.489,-5.5093,-5.5194,-5.5194,-5.5194,-5.5194,-5.5194,-5.5194,-5.5194,-5.5194,-5.5194,-5.5194,-5.5194,-5.5194,-5.5194,-5.5194,-4.959,-4.959,-4.959,-4.959,-4.959,-4.959,-4.959,-4.959,-4.959,-4.959,-4.959,-4.959,-4.959,-4.959,-4.959,-4.959,-4.959,-4.959,-4.959,-4.959,-4.959,-4.959,-4.959,-4.959,-4.959,-4.959,-4.959,-4.959,-4.959,-4.959,-4.959,-4.9326,-4.9201,-4.9176,-4.8611,-4.8222,-4.797,-4.7669,-4.723,-4.674,-4.674,-4.6564,-4.6313,-4.6313,-4.6313,-4.6313,-4.6313,-4.6313,-4.6313,-4.6313,-4.6313,-4.6313,-4.6313,-4.6313,-4.6313,-4.6313,-4.6313,-4.6313,-4.6313,-4.6313,-4.6313,-4.6313,-4.6313,-4.6313,-4.6313,-4.6815,-4.7252,-4.7252,-4.7769,-4.8165,-4.8165,-4.8165,-4.8165,-4.8165,-4.8165,-4.8789,-5.0573,-5.0851,-5.147,-5.329,-5.3515,-5.3515,-5.3515,-5.2996,-5.289,-5.3462,-5.3515,-5.3515,-5.3515,-5.3515,-5.3553,-5.371,-5.371,-5.3762,-5.3904,-5.3904,-5.3904,-5.3904,-5.4333,-5.4671,-5.4788,-5.4955,-5.5093,-5.5194,-5.5194,-5.5194,-5.5194,-5.5194,-5.5194,-5.5194,-5.5194,-5.5194,-5.5194,-5.5194,-5.5194,-5.5194,-4.9301,-4.9389,-4.9452,-4.9452,-4.9527,-4.959,-4.959,-4.959,-4.959,-4.959,-4.959,-4.959,-4.959,-4.959,-4.959,-4.959,-4.959,-4.959,-4.959,-4.959,-4.959,-4.959,-4.959,-4.9552,-4.9452,-4.9452,-4.9502,-4.959,-4.9502,-4.9452,-4.9439,-4.8887,-4.8623,-4.8598,-4.8033,-4.7544,-4.7068,-4.6968,-4.6728,-4.6313,-4.6313,-4.6313,-4.6313,-4.6313,-4.6313,-4.6313,-4.6313,-4.6313,-4.6313,-4.6313,-4.6313,-4.6313,-4.6313,-4.6313,-4.6313,-4.6313,-4.6313,-4.6313,-4.6313,-4.6313,-4.6313,-4.6313,-4.6313,-4.6313,-4.6313,-4.6313,-4.6313,-4.6313,-4.6313,-4.6313,-4.6313,-4.6313,-4.6313,-4.6313,-4.6313,-4.704,-4.9291,-4.9576,-5.042,-5.2609,-5.289,-5.289,-5.289,-5.1974,-5.1866,-5.3117,-5.317,-5.329,-5.3515,-5.3515,-5.3515,-5.3515,-5.3515,-5.3515,-5.3515,-5.3515,-5.3515,-5.3515,-5.3956,-5.4333,-5.4634,-5.4671,-5.489,-5.5143,-5.5143,-5.5143,-5.5194,-5.5194,-5.5194,-5.5194,-5.5194,-5.5194,-5.5194,-5.5194,-5.5194,-5.5194,-4.8134,-4.8535,-4.8887,-4.8887,-4.9276,-4.959,-4.959,-4.959,-4.959,-4.959,-4.959,-4.959,-4.959,-4.959,-4.959,-4.959,-4.959,-4.959,-4.959,-4.959,-4.959,-4.959,-4.959,-4.9377,-4.8899,-4.8887,-4.9113,-4.959,-4.9113,-4.8887,-4.8874,-4.8297,-4.8021,-4.8008,-4.7481,-4.7143,-4.7043,-4.6627,-4.6376,-4.6313,-4.6313,-4.6313,-4.6313,-4.6313,-4.6313,-4.6313,-4.6313,-4.6313,-4.6313,-4.6313,-4.6313,-4.6313,-4.6313,-4.6313,-4.6313,-4.6313,-4.6313,-4.6313,-4.6313,-4.6313,-4.6313,-4.6313,-4.6313,-4.6313,-4.6313,-4.6313,-4.6313,-4.6313,-4.6313,-4.6313,-4.6313,-4.6313,-4.6313,-4.6313,-4.6313,-4.6755,-4.8152,-4.8313,-4.8833,-5.0252,-5.0364,-5.0364,-5.0364,-5.0252,-5.0629,-5.1851,-5.192,-5.238,-5.3448,-5.3515,-5.3515,-5.3515,-5.3515,-5.3515,-5.3515,-5.3515,-5.3515,-5.3515,-5.3568,-5.3762,-5.4023,-5.4267,-5.4539,-5.4839,-5.4839,-5.4991,-5.5194,-5.5194,-5.5194,-5.5194,-5.5194,-5.5194,-5.5194,-5.5194,-5.5194,-5.5194,-4.7845,-4.8109,-4.8284,-4.8284,-4.8485,-4.8648,-4.8648,-4.8648,-4.8648,-4.8648,-4.8648,-4.8774,-4.91,-4.9414,-4.959,-4.959,-4.959,-4.9464,-4.9151,-4.9138,-4.8987,-4.8673,-4.8648,-4.8535,-4.8297,-4.8284,-4.841,-4.8648,-4.841,-4.8284,-4.8272,-4.7732,-4.7481,-4.7456,-4.6916,-4.6677,-4.6652,-4.6414,-4.6313,-4.6313,-4.6313,-4.6313,-4.6313,-4.6313,-4.6313,-4.6313,-4.6313,-4.6313,-4.6313,-4.6313,-4.6313,-4.6313,-4.6313,-4.6313,-4.6313,-4.6313,-4.6313,-4.6313,-4.6313,-4.6313,-4.6313,-4.6313,-4.6313,-4.6313,-4.6313,-4.6313,-4.6313,-4.6313,-4.6313,-4.6313,-4.6313,-4.6313,-4.6313,-4.6313,-4.6313,-4.6695,-4.7919,-4.8094,-4.8545,-4.9745,-4.9278,-4.9177,-4.9858,-4.9291,-4.9675,-5.1579,-5.1688,-5.2258,-5.3462,-5.3515,-5.3515,-5.3515,-5.3515,-5.3515,-5.3515,-5.3515,-5.3515,-5.3515,-5.3515,-5.3658,-5.3904,-5.4008,-5.4333,-5.4803,-5.4803,-5.4941,-5.5194,-5.5194,-5.5194,-5.5194,-5.5194,-5.5194,-5.5194,-5.5194,-5.5194,-5.5194]}]]